[[{"header":{"parameterUnit":"m.s-1","parameterCategory":1,"la1":31.0,"la2":29.5877,"lo1":-88.7671,"lo2":-86.6584,"dy":0.0162,"dx":0.0185,"nx":115,"ny":88,"refTime":"2023-05-09T12:00:00:Z","depth":0,"parameterNumber":2,"parameterNumberName":"U-component_of_WINDS"},"data":[0.0,0.0,0.0,0.0,0.0,0.0,0.0,0.0,0.0,0.0,0.0,0.0,0.0,0.0,0.0,0.0,0.0,0.0,0.0,0.0,0.0,0.0,0.0,0.0,0.0,0.0,0.0,0.0,0.0,0.0,0.0,0.0,0.0,0.0,0.0,0.0,0.0,0.0,0.0,0.0,0.0,0.0,0.0,0.0,0.0,0.0,0.0,0.0,0.0,0.0,0.0,0.0,0.0,0.0,0.0,0.0,0.0,0.0,0.0,0.0,0.0,0.0,0.0,0.0,0.0,0.0,0.0,0.0,0.0,0.0,0.0,0.0,0.0,0.0,0.0,0.0,0.0,0.0,0.0,0.0,0.0,0.0,0.0,0.0,0.0,0.0,0.0,0.0,0.0,0.0,0.0,0.0,0.0,0.0,0.0,0.0,0.0,0.0,0.0,0.0,0.0,0.0,0.0,0.0,0.0,0.0,0.0,0.0,0.0,0.0,0.0,0.0,0.0,0.0,0.0,0.0,0.0,0.0,0.0,0.0,0.0,0.0,0.0,0.0,0.0,0.0,0.0,0.0,0.0,0.0,0.0,0.0,0.0,0.0,0.0,0.0,0.0,0.0,0.0,0.0,0.0,0.0,0.0,0.0,0.0,0.0,0.0,0.0,0.0,0.0,0.0,0.0,0.0,0.0,0.0,0.0,0.0,0.0,0.0,0.0,0.0,0.0,0.0,0.0,0.0,0.0,0.0,0.0,0.0,0.0,0.0,0.0,0.0,0.0,0.0,0.0,0.0,0.0,0.0,0.0,0.0,0.0,0.0,0.0,0.0,0.0,0.0,0.0,0.0,0.0,0.0,0.0,0.0,0.0,0.0,0.0,0.0,0.0,0.0,0.0,0.0,0.0,0.0,0.0,0.0,0.0,0.0,0.0,0.0,0.0,0.0,0.0,0.0,0.0,0.0,0.0,0.0,0.0,0.0,0.0,0.0,0.0,0.0,0.0,0.0,0.0,0.0,0.0,0.0,0.0,0.0,0.0,0.0,0.0,0.0,0.0,0.0,0.0,0.0,0.0,0.0,0.0,0.0,0.0,0.0,0.0,0.0,0.0,0.0,0.0,0.0,0.0,0.0,0.0,0.0,0.0,0.0,0.0,0.0,0.0,0.0,0.0,0.0,0.0,0.0,0.0,0.0,0.0,0.0,0.0,0.0,0.0,0.0,0.0,0.0,0.0,0.0,0.0,0.0,0.0,0.0,0.0,0.0,0.0,0.0,0.0,0.0,0.0,0.0,0.0,0.0,0.0,0.0,0.0,0.0,0.0,0.0,0.0,0.0,0.0,0.0,0.0,0.0,0.0,0.0,0.0,0.0,0.0,0.0,0.0,0.0,0.0,0.0,0.0,0.0,0.0,0.0,0.0,0.0,0.0,0.0,0.0,0.0,0.0,0.0,0.0,0.0,0.0,0.0,0.0,0.0,0.0,0.0,0.0,0.0,0.0,0.0,0.0,0.0,0.0,0.0,0.0,0.0,0.0,0.0,0.0,0.0,0.0,0.0,0.0,0.0,0.0,0.0,0.0,0.0,0.0,0.0,0.0,0.0,0.0,0.0,0.0,0.0,0.0,0.0,0.0,0.0,0.0,0.0,0.0,0.0,0.0,0.0,0.0,0.0,0.0,0.0,0.0,0.0,0.0,0.0,0.0,0.0,0.0,0.0,0.0,0.0,0.0,0.0,0.0,0.0,0.0,0.0,0.0,0.0,0.0,0.0,0.0,0.0,0.0,0.0,0.0,0.0,0.0,0.0,0.0,0.0,0.0,0.0,0.0,0.0,0.0,0.0,0.0,0.0,0.0,0.0,0.0,0.0,0.0,0.0,0.0,0.0,0.0,0.0,0.0,0.0,0.0,0.0,0.0,0.0,0.0,0.0,0.0,0.0,0.0,0.0,0.0,0.0,0.0,0.0,0.0,0.0,0.0,0.0,0.0,0.0,0.0,0.0,0.0,0.0,0.0,0.0,0.0,0.0,0.0,0.0,0.0,0.0,0.0,0.0,0.0,0.0,0.0,0.0,0.0,0.0,0.0,0.0,0.0,0.0,0.0,0.0,0.0,0.0,0.0,0.0,0.0,0.0,0.0,0.0,0.0,0.0,0.0,0.0,0.0,0.0,0.0,0.0,0.0,0.0,0.0,0.0,0.0,0.0,0.0,0.0,0.0,0.0,0.0,0.0,0.0,0.0,0.0,0.0,0.0,0.0,0.0,0.0,0.0,0.0,0.0,0.0,0.0,0.0,0.0,0.0,0.0,0.0,0.0,0.0,0.0,0.0,0.0,0.0,0.0,0.0,0.0,0.0,0.0,0.0,0.0,0.0,0.0,0.0,0.0,0.0,0.0,0.0,0.0,0.0,0.0,0.0,0.0,0.0,0.0,0.0,0.0,0.0,0.0,0.0,0.0,0.0,0.0,0.0,0.0,0.0,0.0,0.0,0.0,0.0,0.0,0.0,0.0,0.0,0.0,0.0,0.0,0.0,0.0,0.0,0.0,0.0,0.0,0.0,0.0,0.0,0.0,0.0,0.0,0.0,0.0,0.0,0.0,0.0,0.0,0.0,0.0,0.0,0.0,0.0,0.0,0.0,0.0,0.0,0.0,0.0,0.0,0.0,0.0,0.0,0.0,0.0,0.0,0.0,0.0,0.0,0.0,0.0,0.0,0.0,0.0,0.0,0.0,0.0,0.0,0.0,0.0,0.0,0.0,0.0,0.0,0.0,0.0,0.0,0.0,0.0,0.0,0.0,0.0,0.0,0.0,0.0,0.0,0.0,0.0,0.0,0.0,0.0,0.0,0.0,0.0,0.0,0.0,0.0,0.0,0.0,0.0,0.0,0.0,0.0,0.0,0.0,0.0,0.0,0.0,0.0,0.0,0.0,0.0,0.0,0.0,0.0,0.0,0.0,0.0,0.0,0.0,0.0,0.0,0.0,0.0,0.0,0.0,0.0,0.0,0.0,0.0,0.0,0.0,0.0,0.0,0.0,0.0,0.0,0.0,0.0,0.0,0.0,0.0,0.0,0.0,0.0,0.0,0.0,0.0,0.0,0.0,0.0,0.0,0.0,0.0,0.0,0.0,0.0,0.0,0.0,0.0,0.0,0.0,0.0,0.0,0.0,0.0,0.0,0.0,0.0,0.0,0.0,0.0,0.0,0.0,0.0,0.0,0.0,0.0,0.0,0.0,0.0,0.0,0.0,0.0,0.0,0.0,0.0,0.0,0.0,0.0,0.0,0.0,0.0,0.0,0.0,0.0,0.0,0.0,0.0,0.0,0.0,0.0,0.0,0.0,0.0,0.0,0.0,0.0,0.0,0.0,0.0,0.0,0.0,0.0,0.0,0.0,0.0,0.0,0.0,0.0,0.0,0.0,0.0,0.0,0.0,0.0,0.0,0.0,0.0,0.0,0.0,0.0,0.0,0.0,0.0,0.0,0.0,0.0,0.0,0.0,0.0,0.0,0.0,0.0,0.0,0.0,0.0,0.0,0.0,0.0,0.0,0.0,0.0,0.0,0.0,0.0,0.0,0.0,0.0,0.0,0.0,0.0,0.0,0.0,0.0,0.0,0.0,0.0,0.0,0.0,0.0,0.0,0.0,0.0,0.0,0.0,0.0,0.0,0.0,0.0,0.0,0.0,0.0,0.0,0.0,0.0,0.0,0.0,0.0,0.0,0.0,0.0,0.0,0.0,0.0,0.0,0.0,0.0,0.0,0.0,0.0,0.0,0.0,0.0,0.0,0.0,0.0,0.0,0.0,0.0,0.0,0.0,0.0,0.0,0.0,0.0,0.0,0.0,0.0,0.0,0.0,0.0,0.0,0.0,0.0,0.0,0.0,0.0,0.0,0.0,0.0,0.0,0.0,0.0,0.0,0.0,0.0,0.0,0.0,0.0,0.0,0.0,0.0,0.0,0.0,0.0,0.0,0.0,0.0,0.0,0.0,0.0,0.0,0.0,0.0,0.0,0.0,0.0,0.0,0.0,0.0,0.0,0.0,0.0,0.0,0.0,0.0,0.0,0.0,0.0,0.0,0.0,0.0,0.0,0.0,0.0,0.0,0.0,0.0,0.0,0.0,0.0,0.0,0.0,0.0,0.0,0.0,0.0,0.0,0.0,0.0,0.0,0.0,0.0,0.0,0.0,0.0,0.0,0.0,0.0,0.0,0.0,0.0,0.0,0.0,0.0,0.0,0.0,0.0,0.0,0.0,0.0,0.0,0.0,0.0,0.0,0.0,0.0,-2.4182,0.0,0.0,0.0,0.0,0.0,0.0,0.0,0.0,0.0,0.0,0.0,0.0,0.0,0.0,0.0,0.0,0.0,0.0,0.0,0.0,0.0,0.0,0.0,0.0,0.0,0.0,0.0,0.0,0.0,0.0,0.0,0.0,0.0,0.0,0.0,0.0,0.0,0.0,0.0,0.0,0.0,0.0,0.0,0.0,0.0,0.0,0.0,0.0,0.0,0.0,0.0,0.0,0.0,0.0,0.0,0.0,0.0,0.0,0.0,0.0,0.0,0.0,0.0,0.0,0.0,0.0,0.0,0.0,0.0,0.0,0.0,0.0,0.0,0.0,0.0,0.0,0.0,0.0,0.0,0.0,0.0,0.0,0.0,0.0,0.0,0.0,0.0,0.0,0.0,0.0,0.0,0.0,0.0,0.0,0.0,0.0,0.0,0.0,0.0,0.0,0.0,0.0,0.0,0.0,0.0,0.0,0.0,0.0,0.0,0.0,-2.5489,-2.5469,-2.5722,-2.5782,-2.5595,0.0,0.0,0.0,0.0,0.0,0.0,0.0,0.0,0.0,0.0,0.0,0.0,0.0,0.0,0.0,0.0,0.0,0.0,0.0,0.0,0.0,0.0,0.0,0.0,0.0,0.0,0.0,0.0,0.0,0.0,0.0,0.0,0.0,0.0,0.0,0.0,0.0,0.0,0.0,0.0,0.0,0.0,0.0,0.0,0.0,0.0,0.0,0.0,0.0,0.0,0.0,0.0,0.0,0.0,0.0,0.0,0.0,0.0,0.0,0.0,0.0,0.0,0.0,0.0,0.0,0.0,0.0,0.0,0.0,0.0,0.0,0.0,0.0,0.0,0.0,0.0,0.0,0.0,0.0,0.0,0.0,0.0,0.0,0.0,0.0,0.0,0.0,0.0,0.0,0.0,0.0,0.0,0.0,0.0,0.0,0.0,0.0,0.0,0.0,0.0,0.0,0.0,0.0,0.0,0.0,0.0,0.0,0.0,0.0,0.0,0.0,0.0,-2.6882,-2.699,-2.6673,0.0,0.0,0.0,0.0,0.0,0.0,0.0,0.0,0.0,0.0,0.0,0.0,0.0,0.0,0.0,0.0,0.0,0.0,0.0,0.0,0.0,0.0,0.0,0.0,0.0,0.0,0.0,0.0,0.0,0.0,0.0,0.0,0.0,0.0,0.0,0.0,0.0,0.0,0.0,0.0,0.0,0.0,0.0,0.0,0.0,0.0,0.0,0.0,0.0,0.0,0.0,0.0,0.0,0.0,0.0,0.0,0.0,0.0,0.0,0.0,0.0,0.0,0.0,0.0,0.0,0.0,0.0,0.0,0.0,0.0,0.0,0.0,0.0,0.0,0.0,0.0,0.0,0.0,0.0,0.0,0.0,0.0,0.0,0.0,0.0,0.0,0.0,0.0,0.0,0.0,0.0,0.0,0.0,0.0,0.0,0.0,0.0,0.0,0.0,0.0,0.0,0.0,0.0,0.0,0.0,0.0,0.0,0.0,0.0,0.0,-2.6822,-2.7523,-2.7343,0.0,-2.6334,0.0,0.0,0.0,0.0,0.0,0.0,0.0,0.0,0.0,0.0,0.0,0.0,0.0,0.0,0.0,0.0,0.0,0.0,0.0,0.0,0.0,0.0,0.0,0.0,0.0,0.0,0.0,0.0,0.0,0.0,0.0,0.0,0.0,0.0,0.0,0.0,0.0,0.0,0.0,0.0,0.0,0.0,0.0,0.0,0.0,0.0,0.0,0.0,0.0,0.0,0.0,0.0,0.0,0.0,0.0,0.0,0.0,0.0,0.0,0.0,0.0,0.0,0.0,0.0,0.0,0.0,0.0,0.0,0.0,0.0,0.0,0.0,0.0,0.0,0.0,0.0,0.0,0.0,0.0,0.0,0.0,0.0,0.0,0.0,0.0,0.0,0.0,0.0,0.0,0.0,0.0,0.0,0.0,0.0,0.0,0.0,0.0,0.0,0.0,0.0,0.0,0.0,0.0,0.0,0.0,0.0,0.0,0.0,0.0,0.0,-2.8255,-2.8464,-2.8447,-2.8029,0.0,0.0,0.0,0.0,0.0,0.0,0.0,0.0,0.0,0.0,0.0,0.0,0.0,0.0,0.0,0.0,0.0,0.0,0.0,0.0,0.0,0.0,0.0,0.0,0.0,0.0,0.0,0.0,0.0,0.0,0.0,0.0,0.0,0.0,0.0,0.0,0.0,0.0,0.0,0.0,0.0,0.0,0.0,0.0,0.0,0.0,0.0,0.0,0.0,0.0,0.0,0.0,0.0,0.0,0.0,0.0,0.0,0.0,0.0,0.0,0.0,0.0,0.0,0.0,0.0,0.0,0.0,0.0,0.0,0.0,0.0,0.0,0.0,0.0,0.0,0.0,0.0,0.0,0.0,0.0,0.0,0.0,0.0,0.0,0.0,0.0,0.0,0.0,0.0,0.0,0.0,0.0,0.0,0.0,0.0,0.0,0.0,0.0,0.0,0.0,0.0,0.0,0.0,0.0,0.0,0.0,0.0,0.0,0.0,0.0,-2.8828,-2.9651,-2.9602,-2.9426,-2.8902,-2.8027,0.0,0.0,0.0,0.0,0.0,0.0,0.0,0.0,0.0,0.0,0.0,0.0,0.0,0.0,0.0,0.0,0.0,0.0,0.0,0.0,0.0,0.0,0.0,0.0,0.0,0.0,0.0,0.0,0.0,0.0,0.0,0.0,0.0,0.0,0.0,0.0,0.0,0.0,0.0,0.0,0.0,0.0,0.0,0.0,0.0,0.0,0.0,0.0,0.0,0.0,0.0,0.0,0.0,0.0,0.0,0.0,0.0,0.0,0.0,0.0,0.0,0.0,0.0,0.0,0.0,0.0,0.0,0.0,0.0,0.0,0.0,0.0,0.0,0.0,0.0,0.0,0.0,0.0,0.0,0.0,0.0,0.0,0.0,0.0,0.0,0.0,0.0,0.0,0.0,0.0,0.0,0.0,0.0,0.0,0.0,0.0,0.0,0.0,0.0,0.0,0.0,0.0,0.0,0.0,0.0,0.0,0.0,0.0,-2.8177,-2.9775,-3.0791,-3.1043,-2.9982,-2.9196,0.0,0.0,0.0,0.0,0.0,0.0,0.0,0.0,0.0,0.0,0.0,0.0,0.0,0.0,0.0,0.0,0.0,0.0,0.0,0.0,0.0,0.0,0.0,0.0,0.0,0.0,0.0,0.0,0.0,0.0,0.0,0.0,0.0,0.0,0.0,0.0,0.0,0.0,0.0,0.0,0.0,0.0,0.0,0.0,0.0,0.0,0.0,0.0,0.0,0.0,0.0,0.0,0.0,0.0,0.0,0.0,0.0,0.0,0.0,0.0,0.0,0.0,0.0,0.0,0.0,0.0,0.0,0.0,0.0,0.0,0.0,0.0,0.0,0.0,0.0,0.0,0.0,0.0,0.0,0.0,0.0,0.0,0.0,0.0,0.0,0.0,0.0,0.0,0.0,0.0,0.0,0.0,0.0,0.0,0.0,0.0,0.0,0.0,0.0,0.0,0.0,0.0,0.0,0.0,0.0,0.0,0.0,0.0,0.0,-2.9838,-3.0872,-3.1395,-3.1351,-3.0145,-2.9549,0.0,0.0,0.0,0.0,0.0,0.0,0.0,0.0,0.0,0.0,0.0,0.0,0.0,0.0,0.0,0.0,0.0,0.0,0.0,0.0,0.0,0.0,0.0,0.0,0.0,0.0,0.0,0.0,0.0,0.0,0.0,0.0,0.0,0.0,0.0,0.0,0.0,0.0,0.0,0.0,0.0,0.0,0.0,0.0,0.0,0.0,0.0,0.0,0.0,0.0,0.0,0.0,0.0,0.0,0.0,0.0,0.0,0.0,0.0,0.0,0.0,0.0,0.0,0.0,0.0,0.0,0.0,0.0,0.0,0.0,0.0,0.0,0.0,0.0,0.0,0.0,0.0,0.0,0.0,0.0,0.0,0.0,0.0,0.0,0.0,0.0,0.0,0.0,0.0,0.0,0.0,0.0,0.0,0.0,0.0,0.0,0.0,0.0,0.0,0.0,0.0,0.0,0.0,0.0,0.0,0.0,0.0,0.0,0.0,-3.1523,0.0,-3.227,-3.2288,-3.0815,-3.0092,0.0,0.0,0.0,0.0,0.0,0.0,0.0,0.0,0.0,0.0,0.0,0.0,0.0,0.0,0.0,0.0,0.0,0.0,0.0,0.0,0.0,0.0,0.0,0.0,0.0,0.0,0.0,0.0,0.0,0.0,0.0,0.0,0.0,0.0,0.0,0.0,0.0,0.0,0.0,0.0,0.0,0.0,0.0,0.0,0.0,0.0,0.0,0.0,0.0,0.0,0.0,0.0,0.0,0.0,0.0,0.0,0.0,0.0,0.0,0.0,0.0,0.0,0.0,0.0,0.0,0.0,0.0,0.0,0.0,0.0,0.0,0.0,0.0,0.0,0.0,0.0,0.0,0.0,0.0,0.0,0.0,0.0,0.0,0.0,0.0,0.0,0.0,0.0,0.0,0.0,0.0,0.0,0.0,0.0,0.0,0.0,0.0,0.0,0.0,0.0,0.0,0.0,0.0,0.0,0.0,0.0,0.0,0.0,-3.0746,-3.3125,-3.3212,-3.3453,-3.4011,-3.2031,-3.0772,0.0,0.0,0.0,0.0,0.0,0.0,0.0,0.0,0.0,0.0,0.0,0.0,0.0,0.0,0.0,0.0,0.0,0.0,0.0,0.0,0.0,0.0,0.0,0.0,0.0,0.0,0.0,0.0,0.0,0.0,0.0,0.0,0.0,0.0,0.0,0.0,0.0,0.0,0.0,0.0,0.0,0.0,0.0,0.0,0.0,0.0,0.0,0.0,0.0,0.0,0.0,0.0,0.0,0.0,0.0,0.0,0.0,0.0,0.0,0.0,0.0,0.0,0.0,0.0,0.0,0.0,0.0,0.0,0.0,0.0,0.0,0.0,0.0,0.0,0.0,0.0,0.0,0.0,0.0,0.0,0.0,0.0,0.0,0.0,0.0,0.0,0.0,0.0,0.0,0.0,0.0,0.0,0.0,0.0,0.0,0.0,0.0,0.0,0.0,0.0,0.0,0.0,0.0,0.0,0.0,0.0,0.0,0.0,0.0,-3.242,-3.3554,-3.4216,-3.4241,-3.2349,-3.1359,0.0,0.0,0.0,0.0,0.0,0.0,0.0,0.0,0.0,0.0,0.0,0.0,0.0,0.0,0.0,0.0,0.0,0.0,0.0,0.0,0.0,0.0,0.0,0.0,0.0,0.0,0.0,0.0,0.0,0.0,0.0,0.0,0.0,0.0,0.0,0.0,0.0,0.0,0.0,0.0,0.0,0.0,0.0,0.0,0.0,0.0,0.0,0.0,0.0,0.0,0.0,0.0,0.0,0.0,0.0,0.0,0.0,0.0,0.0,0.0,0.0,0.0,0.0,0.0,0.0,0.0,0.0,0.0,0.0,0.0,0.0,0.0,0.0,0.0,0.0,0.0,0.0,0.0,0.0,0.0,0.0,0.0,0.0,0.0,0.0,0.0,0.0,0.0,0.0,0.0,0.0,0.0,0.0,0.0,0.0,0.0,0.0,0.0,0.0,0.0,0.0,0.0,0.0,0.0,0.0,0.0,0.0,0.0,0.0,-3.3433,-3.4776,-3.5331,-3.4881,-3.3296,-3.2359,-3.2169,0.0,0.0,0.0,0.0,0.0,0.0,0.0,0.0,0.0,0.0,0.0,0.0,0.0,0.0,0.0,0.0,0.0,0.0,0.0,0.0,0.0,0.0,0.0,0.0,0.0,0.0,0.0,0.0,0.0,0.0,0.0,0.0,0.0,0.0,0.0,0.0,0.0,0.0,0.0,0.0,0.0,0.0,0.0,0.0,0.0,0.0,0.0,0.0,0.0,0.0,0.0,0.0,0.0,0.0,0.0,0.0,0.0,0.0,0.0,0.0,0.0,0.0,0.0,0.0,0.0,0.0,0.0,0.0,0.0,0.0,0.0,0.0,0.0,0.0,0.0,0.0,0.0,0.0,0.0,0.0,0.0,0.0,0.0,0.0,0.0,0.0,0.0,0.0,0.0,0.0,0.0,0.0,0.0,0.0,0.0,0.0,0.0,0.0,0.0,0.0,0.0,0.0,0.0,0.0,0.0,0.0,0.0,0.0,-3.5736,-3.6667,-3.6714,-3.5798,-3.4733,-3.364,0.0,0.0,0.0,0.0,0.0,0.0,0.0,0.0,0.0,0.0,0.0,0.0,0.0,0.0,0.0,0.0,0.0,0.0,0.0,0.0,0.0,0.0,0.0,0.0,0.0,0.0,0.0,0.0,0.0,0.0,0.0,0.0,0.0,0.0,0.0,0.0,0.0,0.0,0.0,0.0,0.0,0.0,0.0,0.0,0.0,0.0,0.0,0.0,0.0,0.0,0.0,0.0,0.0,0.0,0.0,0.0,0.0,0.0,0.0,0.0,0.0,0.0,0.0,0.0,0.0,0.0,0.0,0.0,0.0,0.0,0.0,0.0,0.0,0.0,0.0,0.0,0.0,0.0,0.0,0.0,0.0,0.0,0.0,0.0,0.0,0.0,0.0,0.0,0.0,0.0,0.0,0.0,0.0,0.0,0.0,0.0,0.0,0.0,0.0,0.0,0.0,0.0,0.0,0.0,0.0,0.0,0.0,0.0,0.0,-3.6453,-3.7433,-3.7539,-3.672,-3.5186,-3.3797,0.0,0.0,0.0,0.0,0.0,0.0,0.0,0.0,0.0,0.0,0.0,0.0,0.0,0.0,0.0,0.0,0.0,0.0,0.0,0.0,0.0,0.0,0.0,0.0,0.0,0.0,0.0,0.0,0.0,0.0,0.0,0.0,0.0,0.0,0.0,0.0,0.0,0.0,0.0,0.0,0.0,0.0,0.0,0.0,0.0,0.0,0.0,0.0,0.0,0.0,0.0,0.0,0.0,0.0,0.0,0.0,0.0,0.0,0.0,0.0,0.0,0.0,0.0,0.0,0.0,0.0,0.0,0.0,0.0,0.0,0.0,0.0,0.0,0.0,0.0,0.0,0.0,0.0,0.0,0.0,0.0,0.0,0.0,0.0,0.0,0.0,0.0,0.0,0.0,0.0,0.0,0.0,0.0,0.0,0.0,0.0,0.0,0.0,0.0,0.0,0.0,0.0,0.0,0.0,0.0,0.0,0.0,0.0,-3.5566,-3.7301,-3.7873,-3.7987,-3.7651,-3.5916,-3.4281,0.0,0.0,0.0,0.0,0.0,0.0,0.0,0.0,0.0,0.0,0.0,0.0,0.0,0.0,0.0,0.0,0.0,0.0,0.0,0.0,0.0,0.0,0.0,0.0,0.0,0.0,0.0,0.0,0.0,0.0,0.0,0.0,0.0,0.0,0.0,0.0,0.0,0.0,0.0,0.0,0.0,0.0,0.0,0.0,0.0,0.0,0.0,0.0,0.0,0.0,0.0,0.0,0.0,0.0,0.0,0.0,0.0,0.0,0.0,0.0,0.0,0.0,0.0,0.0,0.0,0.0,0.0,0.0,0.0,0.0,0.0,0.0,0.0,0.0,0.0,0.0,0.0,0.0,0.0,0.0,0.0,0.0,0.0,0.0,0.0,0.0,0.0,0.0,0.0,0.0,0.0,0.0,0.0,0.0,0.0,0.0,0.0,0.0,0.0,0.0,0.0,0.0,0.0,0.0,0.0,0.0,0.0,0.0,-3.6232,-3.7913,-3.8067,-3.8202,-3.8342,-3.6698,-3.4857,0.0,0.0,0.0,0.0,0.0,0.0,0.0,0.0,0.0,0.0,0.0,0.0,0.0,0.0,0.0,0.0,0.0,0.0,0.0,0.0,0.0,0.0,0.0,0.0,0.0,0.0,0.0,0.0,0.0,0.0,0.0,0.0,0.0,0.0,0.0,0.0,0.0,0.0,0.0,0.0,0.0,0.0,0.0,0.0,0.0,0.0,0.0,0.0,0.0,0.0,0.0,0.0,0.0,0.0,0.0,0.0,0.0,0.0,0.0,0.0,0.0,0.0,0.0,0.0,0.0,0.0,0.0,0.0,0.0,0.0,0.0,0.0,0.0,0.0,0.0,0.0,0.0,0.0,0.0,0.0,0.0,0.0,0.0,0.0,0.0,0.0,0.0,0.0,0.0,0.0,0.0,0.0,0.0,0.0,0.0,0.0,0.0,0.0,0.0,0.0,0.0,0.0,0.0,0.0,0.0,0.0,0.0,0.0,-3.5996,-3.7045,-3.7787,-3.8244,-3.8393,-3.666,-3.4809,0.0,0.0,0.0,0.0,0.0,0.0,0.0,0.0,0.0,0.0,0.0,0.0,0.0,0.0,0.0,0.0,0.0,0.0,0.0,0.0,0.0,0.0,0.0,0.0,0.0,0.0,0.0,0.0,0.0,0.0,0.0,0.0,0.0,0.0,0.0,0.0,0.0,0.0,0.0,0.0,0.0,0.0,0.0,0.0,0.0,0.0,0.0,0.0,-2.665,0.0,0.0,0.0,0.0,0.0,0.0,0.0,0.0,0.0,0.0,0.0,0.0,0.0,0.0,0.0,0.0,0.0,0.0,0.0,0.0,0.0,0.0,0.0,0.0,0.0,0.0,0.0,0.0,0.0,0.0,0.0,0.0,0.0,0.0,0.0,0.0,0.0,0.0,0.0,0.0,0.0,0.0,0.0,0.0,0.0,0.0,0.0,0.0,0.0,0.0,0.0,0.0,0.0,0.0,0.0,0.0,0.0,0.0,0.0,-3.611,-3.6228,-3.7895,-3.8496,-3.7795,-3.6827,-3.5206,0.0,0.0,0.0,0.0,0.0,0.0,0.0,0.0,0.0,0.0,0.0,0.0,0.0,0.0,0.0,0.0,0.0,0.0,0.0,0.0,0.0,0.0,0.0,0.0,0.0,0.0,0.0,0.0,0.0,0.0,0.0,0.0,0.0,0.0,0.0,0.0,0.0,0.0,0.0,0.0,0.0,0.0,0.0,0.0,0.0,0.0,0.0,0.0,0.0,0.0,0.0,0.0,0.0,0.0,0.0,0.0,0.0,0.0,0.0,0.0,0.0,0.0,0.0,0.0,0.0,0.0,0.0,0.0,0.0,0.0,0.0,0.0,0.0,0.0,0.0,0.0,0.0,0.0,0.0,0.0,0.0,0.0,0.0,0.0,0.0,0.0,0.0,0.0,0.0,0.0,0.0,0.0,0.0,0.0,0.0,0.0,0.0,0.0,0.0,0.0,0.0,0.0,0.0,0.0,0.0,0.0,0.0,-3.5136,-3.5979,-3.5432,-3.7677,-3.833,-3.7149,-3.6913,-3.5541,-3.2861,0.0,0.0,0.0,0.0,0.0,0.0,0.0,0.0,0.0,0.0,0.0,0.0,0.0,0.0,0.0,0.0,0.0,0.0,0.0,0.0,0.0,0.0,0.0,0.0,0.0,0.0,0.0,0.0,0.0,0.0,0.0,0.0,0.0,0.0,0.0,0.0,0.0,0.0,-2.8212,-2.9972,0.0,0.0,0.0,0.0,0.0,0.0,0.0,0.0,-2.7982,0.0,0.0,0.0,0.0,0.0,0.0,0.0,0.0,0.0,0.0,0.0,0.0,0.0,0.0,0.0,0.0,0.0,0.0,0.0,0.0,0.0,0.0,0.0,0.0,0.0,0.0,0.0,0.0,0.0,0.0,0.0,0.0,0.0,0.0,0.0,0.0,0.0,0.0,0.0,0.0,0.0,0.0,0.0,0.0,0.0,0.0,0.0,0.0,0.0,0.0,0.0,0.0,0.0,0.0,0.0,0.0,-3.2821,-3.3935,-3.4491,-3.4443,-3.5662,-3.6557,-3.7047,-3.6346,-3.488,-3.274,0.0,0.0,0.0,0.0,0.0,0.0,0.0,0.0,0.0,0.0,0.0,0.0,0.0,0.0,0.0,0.0,0.0,0.0,0.0,0.0,0.0,0.0,0.0,0.0,0.0,0.0,0.0,0.0,0.0,0.0,0.0,0.0,0.0,0.0,0.0,0.0,0.0,0.0,0.0,-3.1457,-3.2135,0.0,0.0,0.0,0.0,0.0,0.0,0.0,0.0,-2.8768,0.0,0.0,0.0,0.0,0.0,0.0,0.0,0.0,0.0,0.0,0.0,0.0,0.0,0.0,0.0,0.0,0.0,0.0,0.0,0.0,0.0,0.0,0.0,0.0,0.0,0.0,0.0,0.0,0.0,0.0,0.0,0.0,0.0,0.0,0.0,0.0,0.0,0.0,0.0,0.0,0.0,0.0,0.0,0.0,0.0,0.0,0.0,0.0,0.0,0.0,0.0,0.0,0.0,0.0,0.0,-3.2733,-3.3474,-3.3528,-3.2872,-3.4262,-3.5275,-3.5769,-3.5737,-3.475,0.0,0.0,0.0,0.0,0.0,0.0,0.0,0.0,0.0,0.0,0.0,0.0,0.0,0.0,0.0,0.0,0.0,0.0,0.0,0.0,0.0,0.0,0.0,0.0,0.0,0.0,0.0,0.0,0.0,0.0,0.0,0.0,0.0,0.0,0.0,0.0,0.0,0.0,0.0,0.0,-3.2767,-3.3675,-3.3561,0.0,0.0,0.0,0.0,0.0,0.0,-3.0765,-2.9812,0.0,0.0,0.0,0.0,0.0,0.0,0.0,0.0,0.0,0.0,0.0,0.0,0.0,0.0,0.0,0.0,0.0,0.0,0.0,0.0,0.0,0.0,0.0,0.0,0.0,0.0,0.0,0.0,0.0,0.0,0.0,0.0,0.0,0.0,0.0,0.0,0.0,0.0,0.0,0.0,0.0,0.0,0.0,0.0,0.0,0.0,0.0,0.0,0.0,0.0,0.0,0.0,0.0,0.0,0.0,-3.261,-3.3128,-3.2795,-3.1634,-3.3219,-3.4284,-3.4599,-3.5328,-3.4766,0.0,0.0,0.0,0.0,0.0,0.0,0.0,0.0,0.0,0.0,0.0,0.0,0.0,0.0,0.0,0.0,0.0,0.0,0.0,0.0,0.0,0.0,0.0,0.0,0.0,0.0,0.0,0.0,0.0,0.0,0.0,0.0,0.0,0.0,0.0,0.0,0.0,0.0,0.0,0.0,0.0,-3.5278,-3.4983,-3.4929,0.0,0.0,0.0,0.0,-3.165,-3.1648,0.0,0.0,0.0,0.0,0.0,0.0,0.0,0.0,0.0,0.0,0.0,0.0,0.0,0.0,0.0,0.0,0.0,0.0,0.0,0.0,0.0,0.0,0.0,0.0,0.0,0.0,0.0,0.0,0.0,0.0,0.0,0.0,0.0,0.0,0.0,0.0,0.0,0.0,0.0,0.0,0.0,0.0,0.0,0.0,0.0,0.0,0.0,0.0,0.0,0.0,0.0,0.0,0.0,0.0,0.0,0.0,-3.2509,-3.2489,-3.2129,-3.1581,-3.2632,-3.3677,-3.4574,-3.5312,-3.4767,0.0,0.0,0.0,0.0,0.0,0.0,0.0,0.0,0.0,0.0,0.0,0.0,0.0,0.0,0.0,0.0,0.0,0.0,0.0,0.0,0.0,0.0,0.0,0.0,0.0,0.0,0.0,0.0,0.0,0.0,0.0,0.0,0.0,0.0,0.0,0.0,0.0,0.0,0.0,0.0,0.0,-3.6714,-3.5876,-3.6333,-3.6339,0.0,0.0,-3.4455,-3.384,-3.374,0.0,0.0,0.0,0.0,0.0,0.0,0.0,0.0,0.0,0.0,0.0,0.0,0.0,0.0,0.0,0.0,0.0,0.0,0.0,0.0,0.0,0.0,0.0,0.0,0.0,0.0,0.0,0.0,0.0,0.0,0.0,0.0,0.0,0.0,0.0,0.0,0.0,0.0,0.0,0.0,0.0,0.0,0.0,0.0,0.0,0.0,0.0,0.0,0.0,0.0,0.0,0.0,0.0,0.0,0.0,-3.1987,-3.2496,-3.188,-3.125,-3.0774,-3.1802,-3.2809,-3.3791,-3.4586,-3.4339,0.0,0.0,0.0,0.0,0.0,0.0,0.0,0.0,0.0,0.0,0.0,0.0,0.0,0.0,0.0,0.0,0.0,0.0,0.0,0.0,0.0,0.0,0.0,0.0,0.0,0.0,0.0,0.0,0.0,0.0,0.0,0.0,0.0,0.0,0.0,0.0,0.0,0.0,0.0,0.0,0.0,0.0,-3.6661,-3.7327,0.0,0.0,0.0,-3.5089,-3.3407,0.0,0.0,0.0,0.0,0.0,0.0,0.0,0.0,0.0,0.0,0.0,0.0,0.0,0.0,0.0,0.0,0.0,0.0,0.0,0.0,0.0,0.0,0.0,0.0,0.0,0.0,0.0,0.0,0.0,0.0,0.0,0.0,0.0,0.0,0.0,0.0,0.0,0.0,0.0,0.0,0.0,0.0,0.0,0.0,0.0,0.0,0.0,0.0,0.0,0.0,0.0,0.0,0.0,0.0,0.0,0.0,0.0,-3.2569,-3.1538,-3.0798,-3.0493,-3.1517,-3.245,-3.3154,-3.4038,0.0,0.0,0.0,0.0,0.0,0.0,0.0,0.0,0.0,0.0,0.0,0.0,0.0,0.0,0.0,0.0,0.0,0.0,0.0,0.0,0.0,0.0,0.0,0.0,0.0,0.0,0.0,-2.7793,0.0,0.0,0.0,0.0,0.0,0.0,0.0,0.0,0.0,0.0,0.0,0.0,0.0,0.0,-3.7551,-3.7178,-3.8107,-3.8294,0.0,0.0,-3.5377,-3.2931,-3.3038,-3.2603,0.0,0.0,0.0,0.0,0.0,0.0,0.0,0.0,0.0,0.0,0.0,0.0,0.0,0.0,0.0,0.0,0.0,0.0,0.0,0.0,0.0,0.0,0.0,0.0,0.0,0.0,0.0,0.0,0.0,0.0,0.0,0.0,0.0,0.0,0.0,0.0,0.0,0.0,0.0,0.0,0.0,0.0,0.0,0.0,0.0,0.0,0.0,0.0,0.0,0.0,0.0,0.0,0.0,0.0,-3.1813,-3.2625,-3.1686,-3.1237,-3.1417,-3.239,-3.2963,-3.3117,-3.3996,-3.4014,0.0,0.0,0.0,0.0,0.0,0.0,0.0,0.0,0.0,0.0,0.0,0.0,0.0,0.0,0.0,0.0,0.0,0.0,0.0,0.0,0.0,0.0,0.0,0.0,0.0,0.0,0.0,0.0,0.0,0.0,0.0,0.0,0.0,0.0,0.0,0.0,0.0,0.0,0.0,0.0,0.0,-3.8205,-3.7308,-3.8683,-3.9071,0.0,-3.6572,-3.556,-3.3216,-3.367,-3.3302,-3.0455,0.0,0.0,0.0,0.0,0.0,0.0,0.0,0.0,0.0,0.0,0.0,0.0,0.0,0.0,0.0,0.0,0.0,0.0,0.0,0.0,0.0,0.0,0.0,0.0,0.0,0.0,0.0,0.0,0.0,0.0,0.0,0.0,0.0,0.0,0.0,0.0,0.0,0.0,0.0,0.0,0.0,0.0,0.0,0.0,0.0,0.0,0.0,0.0,0.0,0.0,0.0,0.0,0.0,-3.1373,-3.2756,-3.1252,-3.0836,-3.1539,-3.1974,-3.2221,-3.2285,-3.3697,-3.4036,0.0,0.0,0.0,0.0,0.0,0.0,0.0,0.0,0.0,0.0,0.0,0.0,0.0,0.0,0.0,0.0,0.0,0.0,0.0,0.0,0.0,0.0,0.0,0.0,0.0,0.0,0.0,0.0,-3.1501,-3.1082,-3.018,0.0,0.0,0.0,0.0,0.0,0.0,0.0,0.0,0.0,0.0,-3.8032,-3.8162,-3.905,0.0,0.0,-3.7153,-3.6119,-3.323,-3.3344,-3.2866,-3.0174,-2.8599,0.0,0.0,0.0,0.0,0.0,0.0,0.0,0.0,0.0,0.0,0.0,0.0,0.0,0.0,0.0,0.0,0.0,0.0,0.0,0.0,0.0,0.0,0.0,0.0,0.0,0.0,0.0,0.0,0.0,0.0,0.0,0.0,0.0,0.0,0.0,0.0,0.0,0.0,0.0,0.0,0.0,0.0,0.0,0.0,0.0,0.0,0.0,0.0,0.0,0.0,0.0,0.0,-3.1166,-3.2934,-3.1321,-3.0871,-3.161,-3.191,-3.1969,-3.1813,-3.2966,-3.3478,0.0,0.0,0.0,0.0,0.0,0.0,0.0,0.0,0.0,0.0,0.0,0.0,0.0,0.0,0.0,0.0,0.0,0.0,0.0,0.0,0.0,0.0,0.0,0.0,0.0,0.0,0.0,0.0,-3.2222,-3.1477,-3.0371,0.0,0.0,0.0,0.0,0.0,0.0,0.0,0.0,0.0,0.0,-3.8223,-3.8718,-3.8991,-3.8664,-3.7312,-3.6828,-3.5634,-3.2859,-3.2625,-3.2005,-2.9867,0.0,0.0,0.0,0.0,0.0,0.0,0.0,0.0,0.0,0.0,0.0,0.0,0.0,0.0,0.0,0.0,0.0,0.0,0.0,0.0,0.0,0.0,0.0,0.0,0.0,0.0,0.0,-3.2542,0.0,0.0,-3.2587,0.0,0.0,0.0,0.0,0.0,0.0,0.0,0.0,0.0,0.0,0.0,0.0,0.0,0.0,0.0,0.0,0.0,0.0,0.0,0.0,0.0,0.0,-3.1362,-3.3051,-3.2044,-3.1591,-3.1731,-3.2449,-3.2429,-3.1711,-3.1825,-3.2225,-3.2985,0.0,0.0,0.0,0.0,0.0,0.0,0.0,0.0,0.0,0.0,0.0,0.0,0.0,0.0,0.0,0.0,0.0,0.0,0.0,0.0,0.0,0.0,0.0,0.0,0.0,0.0,-3.2595,-3.156,-3.0564,0.0,0.0,0.0,0.0,0.0,0.0,0.0,0.0,0.0,-3.6217,-3.7803,-3.8927,-3.8811,-3.8526,-3.792,-3.6723,-3.5345,-3.381,-3.2141,-3.1542,-3.0808,0.0,0.0,0.0,0.0,0.0,0.0,0.0,0.0,0.0,0.0,0.0,0.0,0.0,0.0,0.0,0.0,0.0,0.0,0.0,0.0,0.0,0.0,0.0,0.0,0.0,0.0,0.0,-3.3542,-3.3044,0.0,0.0,0.0,0.0,0.0,0.0,0.0,0.0,0.0,0.0,0.0,-3.3865,-3.3053,0.0,0.0,0.0,0.0,0.0,0.0,0.0,0.0,0.0,0.0,0.0,0.0,-3.2203,-3.3721,-3.18,-3.1302,-3.2429,-3.1654,-3.1115,-3.0846,-3.1422,-3.2164,-3.3048,0.0,0.0,0.0,0.0,0.0,0.0,0.0,0.0,0.0,0.0,0.0,0.0,0.0,0.0,0.0,0.0,0.0,0.0,0.0,0.0,0.0,0.0,0.0,0.0,0.0,-3.279,0.0,0.0,0.0,0.0,0.0,0.0,0.0,0.0,0.0,0.0,-3.5576,-3.6764,-3.7964,-3.86,-3.8899,-3.8752,-3.8296,-3.7596,0.0,0.0,0.0,0.0,0.0,0.0,0.0,0.0,0.0,0.0,0.0,0.0,0.0,0.0,-2.5027,-2.4456,-2.4684,-2.4898,-2.4885,0.0,0.0,0.0,0.0,0.0,0.0,0.0,0.0,0.0,0.0,0.0,0.0,0.0,0.0,-3.4654,-3.4353,-3.3738,0.0,0.0,0.0,0.0,0.0,0.0,0.0,0.0,-3.3985,-3.439,-3.4805,-3.3448,-3.3412,0.0,-3.3486,-3.2809,0.0,0.0,0.0,0.0,0.0,0.0,0.0,0.0,-3.2473,-3.3691,-3.1813,-3.1162,-3.1911,-3.1244,-3.0712,-3.0423,-3.1235,-3.1987,-3.2594,-3.3445,-3.3404,0.0,0.0,0.0,0.0,0.0,0.0,0.0,0.0,0.0,0.0,0.0,0.0,0.0,0.0,0.0,0.0,0.0,0.0,0.0,0.0,0.0,0.0,0.0,-3.3615,0.0,0.0,0.0,0.0,0.0,0.0,0.0,0.0,0.0,-3.5534,-3.6435,-3.7412,-3.8495,-3.877,-3.8718,-3.8281,0.0,0.0,0.0,0.0,0.0,0.0,0.0,-3.143,-3.0097,-3.0013,-2.984,-2.8989,-2.8318,-2.7336,-2.5581,0.0,0.0,-2.4848,-2.5078,-2.5243,-2.4709,-2.4201,-2.3767,-2.3456,-2.2781,-2.2315,0.0,0.0,0.0,0.0,-3.6615,0.0,0.0,0.0,-3.5697,-3.5803,0.0,-3.582,0.0,0.0,0.0,0.0,-3.4484,-3.4503,0.0,0.0,-3.5027,-3.5454,-3.5491,-3.4532,-3.4203,-3.4364,-3.2871,-3.2692,-3.3716,-3.3857,0.0,0.0,0.0,0.0,0.0,0.0,-3.2215,-3.296,-3.2018,-3.1155,-3.0445,-3.1199,-3.1231,-3.0462,-3.1269,-3.1756,-3.1781,-3.2662,-3.3083,-3.303,-3.2352,0.0,0.0,0.0,0.0,0.0,0.0,0.0,0.0,0.0,0.0,0.0,0.0,0.0,0.0,0.0,0.0,0.0,0.0,0.0,0.0,-3.4506,0.0,0.0,0.0,0.0,0.0,0.0,0.0,0.0,0.0,-3.5615,-3.6473,-3.7333,-3.7867,-3.7825,0.0,0.0,0.0,0.0,-3.5212,-3.4859,-3.3633,-3.2558,-3.1926,-3.2059,-3.1817,-3.0615,0.0,0.0,-2.8846,-2.814,-2.7365,-2.5714,-2.6091,-2.6224,-2.4286,-2.4469,-2.4352,-2.2903,-2.2811,-2.2627,-2.2149,-2.1755,-2.1464,-4.0449,0.0,0.0,0.0,0.0,-3.7918,-3.77,-3.7308,-3.7089,-3.7008,-3.6948,-3.6305,0.0,0.0,0.0,0.0,0.0,0.0,-3.4874,-3.4545,-3.5018,-3.5232,-3.5145,-3.4281,-3.3939,-3.3974,-3.3505,-3.3845,-3.4858,-3.4384,-3.4593,-3.5513,0.0,0.0,0.0,0.0,-3.2703,-3.282,-3.1392,-3.0797,-3.1213,-3.0893,-3.0597,-3.0404,-3.1808,-3.2545,-3.2564,-3.3981,-3.4462,-3.3736,-3.3091,0.0,0.0,0.0,0.0,0.0,0.0,0.0,0.0,0.0,0.0,0.0,0.0,0.0,0.0,0.0,0.0,0.0,0.0,0.0,-3.3971,-3.3923,-3.39,0.0,0.0,0.0,0.0,0.0,0.0,0.0,0.0,0.0,-3.7434,-3.7824,-3.7945,0.0,0.0,-3.826,-3.6543,-3.6259,-3.5853,-3.4746,-3.4002,0.0,-3.3438,-3.232,-3.129,-3.0839,-3.0473,-2.9485,-2.7236,-2.7526,-2.7395,-2.5462,-2.4982,-2.4557,-2.3675,-2.4764,-2.537,-2.4477,-2.363,-2.2958,-2.2503,-2.1623,-2.0982,-4.1542,-4.1433,-4.0031,-3.9107,-3.8571,-3.8415,-3.8258,-3.8061,-3.7557,-3.7678,-3.8139,-3.7055,-3.6096,-3.5291,-3.4769,0.0,0.0,0.0,-3.4379,-3.4525,-3.4776,-3.506,-3.5341,-3.4572,-3.4202,-3.4165,-3.3899,-3.4,-3.4389,-3.3889,-3.3958,-3.4585,0.0,-3.4934,-3.4212,-3.3308,-3.2699,-3.2333,-3.0937,-3.0464,-3.1034,-3.0541,-3.0495,-3.0923,-3.1577,-3.2365,-3.3352,-3.3964,-3.4342,-3.4431,-3.3712,-3.2916,0.0,0.0,0.0,0.0,0.0,0.0,0.0,0.0,0.0,0.0,0.0,-3.0734,-3.1155,0.0,0.0,0.0,-3.2036,-3.3091,-3.4452,-3.4341,0.0,0.0,0.0,0.0,0.0,0.0,0.0,-3.4836,-3.5297,-3.5835,-3.6479,-3.7121,-3.7621,-3.7856,-3.8189,-3.7662,-3.5673,0.0,-3.5295,-3.4312,-3.3924,-3.3621,-3.3419,-3.254,-3.1762,-3.1348,-3.0284,-2.888,-2.712,-2.7342,-2.712,-2.5515,-2.454,-2.3942,-2.3389,-2.4101,-2.4326,-2.3352,-2.2712,-2.2223,-2.181,-2.1196,-2.0827,-4.2598,-4.2304,-4.0036,-3.8993,-3.8791,-3.8339,-3.8376,-3.8624,-3.738,-3.7893,-3.9487,-3.7837,-3.7039,-3.6833,-3.4798,0.0,-3.2854,-3.2868,-3.3476,-3.4384,-3.438,-3.4881,-3.58,-3.5016,-3.4681,-3.4673,-3.3949,-3.3361,-3.2995,-3.2871,-3.2978,-3.3294,-3.4367,-3.4645,-3.403,-3.3182,-3.233,-3.1474,-3.0629,-3.0207,-3.0214,-3.0267,-3.0707,-3.1538,-3.0948,-3.1674,-3.3805,-3.3161,-3.3421,-3.4901,-3.4077,-3.3264,-3.2688,0.0,0.0,0.0,0.0,0.0,0.0,0.0,0.0,0.0,0.0,0.0,0.0,0.0,0.0,-3.2035,-3.2898,0.0,-3.4721,-3.534,0.0,0.0,0.0,-3.5489,-3.5407,-3.5404,-3.511,-3.4302,0.0,0.0,-3.4334,-3.5682,-3.6954,-3.7632,-3.7598,-3.6814,-3.4881,-3.4521,-3.4173,-3.3835,-3.352,-3.3132,-3.2578,-3.2524,-3.2315,-3.1632,-3.0482,-2.8919,-2.7621,-2.7202,-2.6632,-2.5369,-2.4455,-2.3879,-2.3676,-2.2675,-2.1436,-2.0662,-2.0754,-2.0885,-2.0593,-2.0516,-2.061,-4.1712,-4.16,-4.0772,-4.0259,-3.9912,-3.891,-3.8671,-3.8892,-3.776,-3.768,-3.8265,-3.7362,-3.6246,-3.4981,-3.3371,-3.2861,-3.3266,-3.3573,-3.3999,-3.4447,-3.4157,-3.4261,-3.4661,-3.3885,-3.3625,-3.381,-3.3086,-3.2962,-3.3396,-3.2999,-3.3155,-3.3802,-3.427,-3.386,-3.2708,-3.2514,-3.177,-3.0476,-3.028,-3.0213,-3.0207,-3.0267,-3.0412,-3.0649,-3.1768,-3.2526,-3.289,-3.3925,-3.4488,-3.4457,-3.3374,-3.2673,-3.247,-3.1337,0.0,0.0,0.0,0.0,0.0,0.0,0.0,0.0,0.0,-3.0843,-3.1102,0.0,-3.1894,0.0,-3.289,-3.4022,-3.5523,-3.5149,0.0,0.0,-3.563,-3.5565,-3.5547,-3.5553,-3.5204,-3.438,-3.4511,-3.458,-3.4309,-3.5212,-3.5933,-3.6067,-3.6511,-3.6292,-3.4914,-3.5074,-3.4986,-3.405,-3.3508,-3.3078,-3.2498,-3.1506,-3.0725,-3.0435,-2.9138,-2.7831,-2.6915,-2.6325,-2.5728,-2.4822,-2.3309,-2.2618,-2.3212,-2.1289,-2.0059,-2.0583,-2.0763,-2.0633,-2.0455,-1.9886,-1.9658,-4.1864,-4.1787,-4.1667,-4.1101,-4.0163,-3.8885,-3.8463,-3.8558,-3.7386,-3.7389,-3.8139,-3.6928,-3.5784,-3.4597,-3.3071,-3.2658,-3.3096,-3.2948,-3.3054,-3.3311,-3.3108,-3.3139,-3.3424,-3.3106,-3.3081,-3.3247,-3.3005,-3.293,-3.2998,-3.2724,-3.2803,-3.323,-3.3324,-3.3019,-3.2367,-3.2625,-3.2219,-3.1054,-3.1207,-3.0944,-3.0245,-3.0605,-3.1015,-3.1418,-3.1629,-3.2349,-3.3617,-3.3726,-3.396,-3.4375,-3.3337,-3.26,-3.2303,-3.1315,-3.0692,0.0,0.0,0.0,0.0,0.0,0.0,0.0,0.0,0.0,0.0,0.0,-3.2826,-3.3221,-3.371,-3.4531,-3.5876,-3.547,-3.5316,-3.5755,-3.5698,-3.5654,-3.5639,-3.5651,-3.5295,-3.4444,-3.4383,-3.4223,-3.3812,-3.4459,-3.4963,-3.4812,-3.5124,-3.5242,-3.4802,-3.4653,-3.4358,-3.3921,-3.3494,-3.2775,-3.179,-3.0207,-2.9053,-2.8699,-2.7527,-2.6327,-2.589,-2.5063,-2.43,-2.3848,-2.2444,-2.1565,-2.227,-2.0771,-1.9564,-2.0346,-2.0622,-2.0441,-2.0214,-1.9774,-1.9636,-4.2353,-4.2203,-4.2409,-4.157,-3.9917,-3.8614,-3.8058,-3.7945,-3.6657,-3.6895,-3.8092,-3.6365,-3.5355,-3.4867,-3.3462,-3.2782,-3.2653,-3.1981,-3.1714,-3.181,-3.1792,-3.1987,-3.2368,-3.2494,-3.269,-3.2892,-3.3081,-3.2877,-3.23,-3.232,-3.2324,-3.2286,-3.2359,-3.2479,-3.2645,-3.3172,-3.3041,-3.2213,-3.242,-3.1821,-3.0392,-3.0992,-3.1682,-3.2381,-3.1204,-3.184,-3.4511,-3.3242,-3.3072,-3.4386,-3.3559,-3.2799,-3.2324,-3.1662,-3.107,0.0,-3.0573,0.0,0.0,0.0,0.0,0.0,0.0,0.0,0.0,-3.3762,-3.3922,-3.4775,-3.486,-3.5156,-3.5937,-3.5934,-3.5866,-3.5817,-3.5739,-3.5713,-3.5709,-3.5704,-3.535,-3.445,-3.4276,-3.3881,-3.3126,-3.3615,-3.3993,-3.3926,-3.3786,-3.3888,-3.4221,-3.3551,-3.3076,-3.3508,-3.3052,-3.1754,-3.0318,-2.8814,-2.7793,-2.7347,-2.6191,-2.5033,-2.5034,-2.3965,-2.3084,-2.2964,-2.2034,-2.1317,-2.1672,-2.0674,-1.9953,-2.0499,-2.0475,-2.0256,-1.9973,-1.9793,-1.9695,-4.1993,-4.1572,-4.2235,-4.1415,-3.9627,-3.8693,-3.8119,-3.7655,-3.6111,-3.5701,-3.5994,-3.5031,-3.4658,-3.4691,-3.4217,-3.3321,-3.2264,-3.2456,-3.2149,-3.1417,-3.1132,-3.1618,-3.2613,-3.1834,-3.2064,-3.3163,-3.2071,-3.1719,-3.2226,-3.2456,-3.2424,-3.2258,-3.3068,-3.341,-3.3259,0.0,0.0,0.0,-3.1784,-3.1447,-3.1159,-3.0641,-3.0476,-3.0703,-3.1716,0.0,-3.2666,-3.3605,-3.4113,-3.4093,-3.3447,0.0,0.0,0.0,0.0,0.0,0.0,0.0,0.0,0.0,0.0,0.0,-3.2839,-3.2439,-3.2346,-3.3557,-3.4731,-3.5576,-3.5725,-3.5817,-3.5993,-3.5934,-3.5868,-3.5805,-3.5744,-3.5708,-3.5701,-3.5704,-3.5303,-3.4282,-3.3608,-3.3051,-3.2725,-3.2741,-3.3064,-3.3498,-3.2967,-3.2681,-3.3097,-3.2388,-3.2016,-3.2288,-3.1088,-2.9603,-2.8797,-2.7919,-2.7243,-2.7192,-2.6107,-2.505,-2.4694,-2.3876,-2.3148,-2.3054,-2.2418,-2.1923,-2.2403,-2.11,-2.0158,-2.11,-2.0638,-2.0021,-1.9784,-1.9351,-1.9008,-4.1381,-4.1781,-4.1368,-4.0526,0.0,-3.8351,-3.744,-3.659,-3.5484,-3.4931,-3.4835,-3.446,-3.4199,-3.4037,-3.3542,-3.2965,-3.2298,-3.2087,-3.183,-3.1498,-3.1323,-3.1725,-3.2534,-3.1722,-3.1951,-3.3045,-3.2072,-3.1781,-3.2212,-3.2734,-3.2702,-3.2159,-3.2696,-3.3077,-3.3349,-3.3363,-3.2957,-3.2147,-3.2395,-3.1949,-3.0814,-3.0738,-3.0753,-3.0794,-3.1081,0.0,0.0,0.0,0.0,0.0,0.0,0.0,0.0,-3.221,0.0,-3.1856,-3.1856,-3.1806,-3.1733,-3.2266,-3.2682,-3.275,-3.3007,-3.2924,-3.2435,-3.3658,-3.4641,-3.5123,-3.5641,-3.5946,-3.595,-3.5917,-3.5889,-3.5851,-3.5755,-3.5702,-3.5688,-3.5621,-3.5361,-3.4744,-3.3562,-3.2704,-3.2549,-3.2156,-3.1998,-3.2239,-3.1864,-3.1696,-3.205,-3.1377,-3.091,-3.1142,-3.0045,-2.8669,-2.7684,-2.6775,-2.598,-2.5448,-2.4359,-2.358,-2.3377,-2.269,-2.2083,-2.1853,-2.1713,-2.1691,-2.1464,-2.0875,-2.0514,-2.069,-2.0611,-2.0226,-1.9726,-1.9471,-1.9479,-4.0567,-4.1511,-4.0195,-3.942,-3.895,-3.7785,-3.6608,-3.5448,-3.482,0.0,0.0,-3.4091,-3.3818,-3.3339,-3.2832,-3.2525,-3.2332,-3.1718,-3.1532,-3.1705,-3.1634,-3.1917,-3.2451,-3.2007,-3.2201,-3.2854,-3.2556,-3.2252,-3.2021,-3.2799,-3.2665,-3.1744,-3.178,-3.2227,-3.2842,-3.2771,-3.2445,-3.1927,-3.2852,-3.2355,-3.04,-3.086,-3.1135,-3.115,-3.0441,-3.0984,-3.2968,-3.231,-3.2425,-3.3562,-3.313,-3.2816,-3.2718,-3.2238,-3.1899,-3.1812,-3.1794,-3.1691,-3.1391,-3.2235,-3.2388,-3.1464,-3.2662,-3.3274,-3.2929,-3.3746,-3.4258,-3.4152,-3.4911,-3.5413,-3.5434,-3.5436,-3.543,-3.5425,-3.5349,-3.5307,-3.5434,-3.5137,-3.4905,-3.4915,-3.3443,-3.2397,-3.245,-3.1735,-3.1185,-3.112,-3.1062,-3.0784,-3.0865,-3.0363,-2.984,-2.9485,-2.8776,-2.7995,-2.6713,-2.5729,-2.4647,-2.3755,-2.2754,-2.201,-2.1833,-2.1457,-2.0953,-2.0682,-2.0868,-2.0897,-2.0617,-2.0785,-2.085,-2.043,-2.0662,-2.0753,-1.995,-2.005,-2.027,-3.9475,-3.9019,-3.886,-3.8491,-3.7944,-3.7194,-3.6161,-3.4968,-3.4226,-3.3972,-3.4001,-3.3373,-3.3187,-3.3334,-3.3631,-3.3091,-3.1938,-3.2179,-3.2097,-3.1702,-3.1396,-3.198,-3.3193,-3.2816,-3.2862,-3.3301,-3.327,-3.2495,-3.1317,-3.1881,-3.1491,-3.0228,-3.0642,-3.1141,-3.1438,-3.1829,-3.1656,-3.0922,-3.1326,-3.1423,-3.1142,-3.0462,-3.0154,-3.0212,-3.0665,-3.1013,-3.1336,-3.1872,-3.2216,-3.2368,-3.275,-3.2956,-3.2884,-3.3104,-3.3004,-3.2292,-3.2206,-3.1896,-3.1209,-3.1406,-3.1299,-3.0791,-3.1684,-3.2401,-3.2599,-3.3583,-3.3936,-3.3293,-3.343,-3.3524,-3.3635,-3.3735,-3.3774,-3.3729,-3.3683,-3.3918,-3.4544,-3.3871,-3.3564,-3.4033,-3.2534,-3.1629,-3.1968,-3.1345,-3.0995,-3.1476,-3.0864,-3.0089,-2.8963,-2.902,-2.8815,-2.7595,-2.6908,-2.6204,-2.5293,-2.4788,-2.4193,-2.3464,-2.2726,-2.2099,-2.1697,-2.134,-2.1019,-2.0829,-2.0472,-2.0506,-2.1094,-2.1187,-2.1103,-2.1184,-2.1227,-2.1089,-2.0762,-2.0969,-2.084,-3.9009,-3.9026,-3.8166,-3.7553,-3.7023,-3.5656,-3.4788,-3.4203,-3.3077,-3.2851,-3.3223,-3.2585,-3.2138,-3.1913,-3.2195,-3.1961,-3.1332,-3.1528,-3.1723,-3.1839,-3.1705,-3.2429,-3.372,-3.3268,-3.3286,-3.3839,-3.3457,-3.24,-3.1038,-3.1647,-3.1186,-2.9709,-3.0454,-3.0635,-3.0155,-3.0776,-3.0822,-3.0188,-3.0844,-3.0983,-3.0549,-3.0173,-2.9964,-3.0007,-3.0272,-3.059,-3.0988,-3.1241,-3.1572,-3.192,-3.2203,-3.224,-3.2047,-3.2372,-3.2282,-3.1642,-3.17,-3.1349,-3.0453,-3.0516,-3.0692,-3.0894,-3.1522,-3.1757,-3.1381,-3.2518,-3.2888,-3.2151,-3.2615,-3.3087,-3.3179,-3.3256,-3.3321,-3.3359,-3.3305,-3.3455,-3.3689,-3.3255,-3.2921,-3.3062,-3.1965,-3.1167,-3.142,-3.0666,-3.0203,-3.0519,-2.9831,-2.8851,-2.7957,-2.7814,-2.7483,-2.636,-2.6038,-2.5567,-2.4541,-2.4144,-2.3604,-2.2652,-2.2084,-2.1594,-2.1129,-2.0862,-2.0626,-2.0347,-2.0119,-2.0249,-2.071,-2.0848,-2.0883,-2.0704,-2.1308,-2.1293,-2.0873,-2.11,-2.131,-3.8561,-3.9176,-3.7642,-3.6753,-3.6229,-3.4521,-3.3792,-3.3611,-3.2205,-3.1912,-3.2337,-3.1788,-3.122,-3.0745,-3.081,-3.0871,-3.0929,-3.118,-3.163,-3.2264,-3.2528,-3.3334,-3.4471,-3.409,-3.4161,-3.4485,-3.3946,-3.2742,-3.1272,-3.1484,-3.0862,-2.9474,-3.0076,-3.0026,-2.9138,-2.989,-3.0048,-2.973,-3.044,-3.0555,-2.9901,-2.9924,-2.9975,-2.9983,-2.9893,-3.0117,-3.0694,-3.0443,-3.0607,-3.1285,-3.1139,-3.1047,-3.1174,-3.1145,-3.1052,-3.0909,-3.0845,-3.0516,-2.9801,-2.974,-3.0045,-3.0686,-3.1167,-3.1047,-3.0375,-3.1317,-3.1715,-3.1151,-3.1756,-3.2364,-3.2436,-3.2557,-3.279,-3.3045,-3.3057,-3.3119,-3.3212,-3.2794,-3.2333,-3.2087,-3.1252,-3.0509,-3.0114,-2.9814,-2.9643,-2.9472,-2.8695,-2.8106,-2.7797,-2.6972,-2.6118,-2.5529,-2.5439,-2.5131,-2.4155,-2.3715,-2.3134,-2.2049,-2.1661,-2.131,-2.0905,-2.0531,-2.0258,-2.0053,-2.012,-2.0318,-2.0211,-2.0482,-2.068,-2.0541,-2.1087,-2.1282,-2.0577,-2.0987,-2.1433,-3.7923,-3.7994,-3.7098,-3.6262,-3.5671,-3.4775,-3.4101,-3.3495,-3.2111,-3.1566,-3.1615,-3.094,-3.0705,-3.0692,-3.0729,-3.079,-3.0962,-3.197,-3.2616,-3.3136,-3.4164,-3.4922,-3.5421,-3.6012,-3.6012,-3.5419,-3.524,-3.3898,-3.1697,-3.1088,-2.9987,-2.855,-2.8781,-2.8974,-2.8917,-2.9352,-2.9576,-2.9531,-2.973,-2.9812,-2.9808,-2.9798,-2.9859,-2.9905,-2.9907,-2.9918,-3.0023,-2.9277,-2.9261,-2.9906,-2.9175,-2.9316,-3.0531,-2.9946,-2.978,-3.042,-2.9828,-2.9386,-2.9421,-2.9222,-2.9229,-2.9392,-2.998,-3.007,-2.9551,-3.0345,-3.0706,-3.0284,-3.034,-3.0667,-3.0732,-3.0886,-3.1354,-3.2128,-3.2218,-3.25,-3.2914,-3.2299,-3.1315,-3.0496,-3.0197,-2.9298,-2.8406,-2.8933,-2.9541,-2.9464,-2.8754,-2.795,-2.7242,-2.6442,-2.5504,-2.4717,-2.4667,-2.4552,-2.3738,-2.3395,-2.3009,-2.2388,-2.2164,-2.1759,-2.1243,-2.0783,-2.0432,-2.046,-2.0326,-2.0516,-2.0816,-2.0941,-2.0786,-2.0984,-2.1093,-2.1011,-2.0854,-2.1075,-2.1061,-3.7834,-3.7246,-3.7163,-3.6724,-3.5964,-3.4871,-3.4039,-3.3437,-3.2971,-3.2067,-3.1071,-3.1532,-3.1359,-3.0589,-3.0589,-3.0609,-3.0721,-3.1608,-3.238,-3.3071,-3.3954,-3.4956,-3.6005,-3.6343,-3.6093,-3.5377,-3.5323,-3.409,-3.1911,-3.0534,-2.9396,-2.8488,-2.8543,-2.8682,-2.8827,-2.9104,-2.9275,-2.9275,-2.9458,-2.9559,-2.9645,-2.9736,-2.9825,-2.9841,-2.9864,-2.9916,-2.984,-2.9139,-2.9082,-2.9718,-2.8585,-2.8286,-2.9326,-2.9073,-2.8924,-2.9043,-2.9198,-2.9283,-2.9324,-2.9262,-2.9241,-2.928,-2.9556,-2.9636,-2.9404,-2.988,-3.0108,-2.9972,-3.0087,-3.0273,-3.0472,-3.051,-3.0772,-3.1211,-3.1331,-3.149,-3.1683,-3.1259,-3.0658,-3.0248,-2.9977,-2.959,-2.8967,-2.9276,-2.9662,-2.955,-2.8912,-2.8051,-2.7149,-2.6302,-2.5419,-2.4606,-2.4543,-2.4277,-2.3589,-2.333,-2.3012,-2.2502,-2.2231,-2.1977,-2.1564,-2.1236,-2.1017,-2.0975,-2.0862,-2.0893,-2.1178,-2.0829,-2.0579,-2.0981,-2.1261,-2.1143,-2.1128,-2.1759,-2.1776,-3.803,-3.7349,-3.7606,-3.7297,-3.6523,-3.5126,-3.4202,-3.3557,-3.3135,-3.206,-3.0858,-3.1687,-3.1515,-3.0588,-3.0489,-3.0489,-3.0642,-3.1615,-3.2416,-3.3127,-3.4222,-3.5416,-3.6486,-3.6667,-3.6435,-3.5864,-3.5418,-3.399,-3.1796,-3.0386,-2.9472,-2.9089,-2.8917,-2.8913,-2.9022,-2.9075,-2.9044,-2.91,-2.9251,-2.9368,-2.9463,-2.9626,-2.9737,-2.9773,-2.9832,-2.9855,-2.9845,-2.8903,-2.8741,-2.948,-2.7801,-2.7225,-2.8079,-2.784,-2.7681,-2.7905,-2.8848,-2.9456,-2.9446,-2.9464,-2.9444,-2.9434,-2.9454,-2.9483,-2.9533,-2.9697,-2.9853,-2.9961,-3.013,-3.0309,-3.0458,-3.0521,-3.0711,-3.1073,-3.1153,-3.1098,-3.1132,-3.0884,-3.0581,-3.0046,-2.9938,-2.9939,-2.9809,-2.9672,-2.955,-2.9715,-2.9115,-2.8229,-2.729,-2.6415,-2.5531,-2.4688,-2.4507,-2.4238,-2.37,-2.3491,-2.3141,-2.2742,-2.2493,-2.2265,-2.1878,-2.1738,-2.1543,-2.1431,-2.1372,-2.1231,-2.1167,-2.0759,-2.0438,-2.0637,-2.0876,-2.1126,-2.124,-2.2159,-2.2173,-3.8444,-3.849,-3.8383,-3.789,-3.7161,-3.5795,-3.4825,-3.4145,-3.228,-3.134,-3.1232,-3.0924,-3.0558,-3.0506,-3.0539,-3.0506,-3.0734,-3.2362,-3.3216,-3.3539,-3.5593,-3.6757,-3.6906,-3.7321,-3.7488,-3.7059,-3.5792,-3.3974,-3.176,-3.0871,-3.0425,-3.0347,-2.9785,-2.9598,-2.9493,-2.9027,-2.8899,-2.901,-2.9096,-2.9189,-2.9378,-2.9471,-2.9579,-2.9683,-2.9764,-2.9808,-2.9666,-2.8369,-2.7964,-2.876,-2.6585,-2.5949,-2.7237,-2.6072,-2.5936,-2.7361,-2.8944,-2.9855,-2.983,-2.9689,-2.9617,-2.9635,-2.9532,-2.9522,-2.9745,-2.9794,-2.9894,-3.0079,-3.0215,-3.0359,-3.0492,-3.0603,-3.0998,-3.1738,-3.1889,-3.1822,-3.184,-3.1499,-3.0859,-2.9844,-2.9868,-3.0091,-3.0068,-2.9402,-2.9381,-2.9575,-2.9241,-2.8339,-2.7324,-2.648,-2.5632,-2.4839,-2.4495,-2.4355,-2.4022,-2.3746,-2.3466,-2.3099,-2.279,-2.2642,-2.2494,-2.2312,-2.207,-2.188,-2.1807,-2.1567,-2.1166,-2.0893,-2.0678,-2.064,-2.0579,-2.0764,-2.1026,-2.1257,-2.1402,-3.842,-3.8415,-3.789,-3.7792,-3.789,-3.695,-3.5924,-3.4857,-3.4178,-3.2833,-3.1553,-3.2054,-3.172,-3.0459,-3.0981,-3.0952,-3.0675,-3.2229,-3.3117,-3.3588,-3.5521,-3.6603,-3.6939,-3.7374,-3.7309,-3.6702,-3.5703,-3.3924,-3.1696,-3.1122,-3.0688,-3.0121,-2.9523,-2.9178,-2.9079,-2.8586,-2.8321,-2.8425,-2.8731,-2.8943,-2.9045,-2.9289,-2.946,-2.9519,-2.9655,-2.9757,-2.9738,-2.8574,-2.8331,-2.9157,-2.7202,-2.6642,-2.7713,-2.7436,-2.7595,-2.8712,-2.9468,-2.9832,-2.9832,-2.9805,-2.9794,-2.9822,-2.9751,-2.9761,-2.9891,-2.994,-2.9988,-3.0101,-3.0253,-3.0379,-3.0458,-3.0598,-3.0849,-3.1164,-3.125,-3.1255,-3.1168,-3.1089,-3.075,-3.0163,-3.0148,-3.0196,-3.0048,-2.9568,-2.916,-2.9276,-2.8695,-2.7784,-2.6916,-2.6285,-2.5695,-2.4937,-2.4594,-2.4479,-2.4375,-2.3949,-2.3595,-2.3301,-2.3047,-2.2838,-2.2672,-2.2605,-2.2381,-2.2271,-2.2195,-2.207,-2.1706,-2.1339,-2.1087,-2.0608,-2.0547,-2.0653,-2.0687,-2.1411,-2.1571,-3.8391,-3.8327,-3.7873,-3.7954,-3.8294,-3.7603,-3.6788,-3.5859,-3.5484,-3.4104,-3.263,-3.3397,-3.2971,-3.1699,-3.2051,-3.2083,-3.1669,-3.2404,-3.3012,-3.3679,-3.5373,-3.6361,-3.6741,-3.73,-3.7291,-3.6648,-3.5794,-3.4093,-3.1994,-3.186,-3.1512,-3.0757,-3.002,-2.9493,-2.9207,-2.862,-2.823,-2.815,-2.8476,-2.8706,-2.8802,-2.916,-2.9347,-2.9368,-2.9528,-2.9578,-2.9522,-2.867,-2.8379,-2.8665,-2.7487,-2.6965,-2.7565,-2.7578,-2.8025,-2.9008,-2.925,-2.9481,-2.9735,-2.9832,-2.9874,-2.9874,-2.988,-2.9921,-2.998,-3.0007,-3.0049,-3.0135,-3.0285,-3.0404,-3.0443,-3.0586,-3.073,-3.0781,-3.0798,-3.0798,-3.0735,-3.0724,-3.0496,-3.0143,-3.0244,-3.0163,-2.9727,-2.937,-2.9051,-2.8795,-2.7995,-2.7135,-2.6563,-2.599,-2.5437,-2.4641,-2.45,-2.4315,-2.415,-2.3822,-2.3733,-2.3518,-2.3248,-2.304,-2.2855,-2.279,-2.2712,-2.2632,-2.2538,-2.2477,-2.2223,-2.1858,-2.134,-2.076,-2.0719,-2.0859,-2.1282,-2.1908,-2.1933,-3.8375,-3.8347,-3.8391,-3.8343,-3.8294,-3.7711,-3.7311,-3.6967,-3.5827,-3.4825,-3.4104,-3.4423,-3.4061,-3.3554,-3.3499,-3.3684,-3.3425,-3.2988,-3.3149,-3.3883,-3.5406,-3.6117,-3.617,-3.7055,-3.7268,-3.6925,-3.617,-3.4512,-3.2353,-3.2757,-3.2722,-3.2143,-3.1304,-3.0481,-2.995,-2.9143,-2.8529,-2.8149,-2.8291,-2.8533,-2.873,-2.9052,-2.9262,-2.9294,-2.9357,-2.9328,-2.9198,-2.8521,-2.8091,-2.7817,-2.709,-2.6607,-2.666,-2.6421,-2.66,-2.7982,-2.8372,-2.8848,-2.9542,-2.9709,-2.9763,-2.9789,-2.9857,-2.9924,-2.9972,-2.9999,-3.0014,-3.0091,-3.026,-3.04,-3.0419,-3.0587,-3.073,-3.0785,-3.0788,-3.0799,-3.0779,-3.0729,-3.0367,-2.977,-3.006,-2.985,-2.8823,-2.8597,-2.8642,-2.801,-2.7243,-2.6625,-2.6352,-2.5757,-2.4796,-2.4174,-2.4106,-2.4153,-2.3896,-2.3657,-2.3735,-2.3738,-2.3473,-2.3253,-2.3022,-2.2914,-2.2816,-2.2725,-2.2659,-2.2569,-2.2499,-2.2105,-2.157,-2.1103,-2.1118,-2.1091,-2.151,-2.1942,-2.2217,-3.781,-3.8087,-3.829,-3.8391,-3.8375,-3.8149,-3.7792,-3.7214,-3.6319,-3.5568,-3.5036,-3.5049,-3.4505,-3.3791,-3.4003,-3.4105,-3.3766,-3.338,-3.3413,-3.3948,-3.5155,-3.5504,-3.5365,-3.6333,-3.641,-3.5587,-3.5085,-3.3924,-3.2492,-3.2298,-3.2173,-3.1861,-3.1202,-3.0456,-2.964,-2.8912,-2.8214,-2.7629,-2.7864,-2.8138,-2.835,-2.8706,-2.8978,-2.9189,-2.9186,-2.9055,-2.8868,-2.8723,-2.8297,-2.757,-2.7151,-2.6983,-2.7096,-2.7558,-2.8044,-2.8473,-2.868,-2.8815,-2.9106,-2.9394,-2.9523,-2.9608,-2.9716,-2.9857,-2.9924,-2.994,-2.9948,-2.9977,-3.0177,-3.0342,-3.0372,-3.0539,-3.0713,-3.0795,-3.0796,-3.0801,-3.08,-3.0772,-3.0345,-2.9676,-2.9675,-2.9259,-2.8336,-2.8058,-2.7578,-2.7214,-2.644,-2.5932,-2.5799,-2.5553,-2.5152,-2.4676,-2.447,-2.4095,-2.3948,-2.3825,-2.3833,-2.389,-2.3724,-2.3491,-2.3271,-2.3047,-2.2927,-2.279,-2.2738,-2.2684,-2.2603,-2.2329,-2.1812,-2.1385,-2.1247,-2.132,-2.1549,-2.1911,-2.2372,-3.7102,-3.7339,-3.7287,-3.7508,-3.7818,-3.7834,-3.7838,-3.7603,-3.6983,-3.6287,-3.5762,-3.6023,-3.5426,-3.4521,-3.4963,-3.4824,-3.4105,-3.388,-3.3585,-3.3571,-3.4812,-3.5155,-3.4895,-3.5488,-3.5255,-3.4246,-3.4077,-3.3362,-3.2034,-3.1856,-3.1662,-3.1335,-3.0627,-2.9868,-2.9127,-2.8627,-2.8023,-2.7466,-2.7615,-2.7901,-2.817,-2.8527,-2.885,-2.91,-2.8984,-2.8809,-2.8644,-2.8639,-2.8226,-2.7367,-2.6856,-2.6921,-2.753,-2.7705,-2.7997,-2.8543,-2.8469,-2.8424,-2.8805,-2.9112,-2.9264,-2.9397,-2.9561,-2.9753,-2.9866,-2.9907,-2.9897,-2.9961,-3.0095,-3.0234,-3.0317,-3.0487,-3.0668,-3.0767,-3.0757,-3.0778,-3.0795,-3.08,-3.0399,-2.977,-2.9498,-2.8868,-2.7879,-2.7281,-2.667,-2.6371,-2.5878,-2.5515,-2.5484,-2.5412,-2.5143,-2.4872,-2.4518,-2.4231,-2.4103,-2.4022,-2.3962,-2.3962,-2.3961,-2.3774,-2.3558,-2.3295,-2.3109,-2.2833,-2.2703,-2.2699,-2.2644,-2.2538,-2.2198,-2.1827,-2.1516,-2.1585,-2.1864,-2.2501,-2.2875,-3.6355,-3.6232,-3.5688,-3.6059,-3.677,-3.6894,-3.7307,-3.7919,-3.7535,-3.6825,-3.6454,-3.6859,-3.6537,-3.5726,-3.5813,-3.5356,-3.4579,-3.4079,-3.3515,-3.3238,-3.4163,-3.4944,-3.5183,-3.4808,-3.4017,-3.3222,-3.3345,-3.2857,-3.1797,-3.18,-3.1473,-3.092,-3.0213,-2.9248,-2.8765,-2.8472,-2.8007,-2.74,-2.7524,-2.7754,-2.8043,-2.843,-2.8779,-2.9021,-2.885,-2.8682,-2.8531,-2.8254,-2.7776,-2.704,-2.6415,-2.6693,-2.7518,-2.6741,-2.7072,-2.8319,-2.7734,-2.7954,-2.8518,-2.8761,-2.8911,-2.9137,-2.9338,-2.9598,-2.9815,-2.9893,-2.9916,-2.9964,-3.0057,-3.0135,-3.026,-3.0395,-3.0525,-3.0676,-3.0703,-3.0747,-3.0773,-3.0798,-3.0391,-2.974,-2.9437,-2.888,-2.731,-2.6935,-2.6515,-2.5919,-2.5605,-2.5549,-2.5503,-2.5331,-2.4932,-2.4689,-2.4547,-2.4372,-2.4242,-2.3945,-2.3923,-2.4223,-2.4192,-2.4011,-2.3785,-2.3513,-2.3224,-2.2928,-2.2751,-2.2734,-2.2754,-2.2735,-2.2668,-2.2447,-2.2224,-2.2063,-2.2359,-2.3011,-2.3191,-3.5518,-3.5316,-3.537,-3.557,-3.5879,-3.6296,-3.6384,-3.6342,-3.7093,-3.6789,-3.6252,-3.6692,-3.6335,-3.5398,-3.4892,-3.4349,-3.3607,-3.2989,-3.2941,-3.3061,-3.3346,-3.4213,-3.4595,-3.3784,-3.3136,-3.2896,-3.2622,-3.2273,-3.1498,-3.1585,-3.161,-3.1489,-3.0627,-2.9885,-2.9231,-2.8578,-2.7924,-2.7255,-2.7231,-2.7481,-2.7832,-2.8124,-2.8417,-2.8706,-2.8725,-2.8626,-2.8355,-2.7526,-2.7089,-2.7032,-2.6817,-2.6783,-2.7205,-2.7293,-2.7506,-2.7762,-2.7752,-2.7677,-2.7952,-2.8156,-2.8415,-2.8802,-2.9023,-2.9318,-2.978,-2.9834,-2.9857,-2.9905,-2.9988,-3.0023,-3.0085,-3.0196,-3.0384,-3.0589,-3.0669,-3.0694,-3.0726,-3.0746,-3.0453,-2.9687,-2.9551,-2.8648,-2.7527,-2.686,-2.658,-2.5859,-2.559,-2.5608,-2.5642,-2.5615,-2.5385,-2.4951,-2.4738,-2.4547,-2.4321,-2.3975,-2.3967,-2.4383,-2.4418,-2.4275,-2.3981,-2.3667,-2.3327,-2.3012,-2.292,-2.2889,-2.3055,-2.3131,-2.3045,-2.294,-2.3165,-2.3125,-2.3141,-2.3526,-2.3469,-3.4709,-3.4255,-3.4173,-3.456,-3.5194,-3.5603,-3.5956,-3.6279,-3.669,-3.6492,-3.5804,-3.5673,-3.5139,-3.4092,-3.3574,-3.2844,-3.2071,-3.179,-3.1582,-3.1412,-3.1838,-3.2788,-3.3554,-3.2958,-3.2442,-3.2197,-3.1511,-3.123,-3.1159,-3.0905,-3.0915,-3.1058,-3.054,-2.9747,-2.8939,-2.8819,-2.8288,-2.774,-2.7791,-2.804,-2.8054,-2.8229,-2.8273,-2.838,-2.8339,-2.8237,-2.7932,-2.7341,-2.7083,-2.7193,-2.704,-2.6924,-2.7211,-2.7528,-2.7748,-2.7701,-2.7642,-2.7627,-2.7716,-2.7815,-2.8106,-2.8522,-2.8778,-2.9118,-2.9522,-2.9701,-2.9782,-2.9798,-2.9859,-2.9874,-2.9926,-3.0068,-3.0266,-3.0432,-3.0575,-3.0662,-3.07,-3.0728,-3.0562,-3.0115,-2.9656,-2.902,-2.7603,-2.7169,-2.6495,-2.5875,-2.5604,-2.5796,-2.6003,-2.5998,-2.5933,-2.5601,-2.5361,-2.5269,-2.4877,-2.4468,-2.4235,-2.458,-2.475,-2.4574,-2.4284,-2.393,-2.3617,-2.3354,-2.3189,-2.3087,-2.3217,-2.335,-2.3344,-2.3436,-2.3889,-2.4144,-2.4067,-2.4204,-2.4106,-3.3969,-3.3229,-3.2659,-3.3305,-3.4618,-3.488,-3.562,-3.6717,-3.6468,-3.5896,-3.5177,-3.4466,-3.3651,-3.2291,-3.2253,-3.1408,-3.0363,-3.0719,-3.0315,-3.0164,-3.0537,-3.1694,-3.274,-3.2322,-3.1906,-3.1517,-3.0091,-3.0179,-3.0572,-2.988,-2.9911,-3.0347,-2.9866,-2.9042,-2.8442,-2.8511,-2.8391,-2.7793,-2.793,-2.8133,-2.8083,-2.8219,-2.8187,-2.7957,-2.7872,-2.776,-2.763,-2.7441,-2.7472,-2.7624,-2.704,-2.7104,-2.7566,-2.7554,-2.7524,-2.7585,-2.7494,-2.7494,-2.7582,-2.7595,-2.7829,-2.8242,-2.8504,-2.8842,-2.9233,-2.9493,-2.9673,-2.9719,-2.9701,-2.9709,-2.9803,-2.9996,-3.0163,-3.0297,-3.0462,-3.0567,-3.0668,-3.07,-3.0721,-3.0769,-3.0051,-2.9296,-2.8337,-2.7519,-2.6751,-2.6264,-2.6094,-2.6368,-2.6693,-2.6902,-2.6761,-2.6475,-2.6281,-2.6131,-2.5601,-2.5009,-2.4809,-2.4818,-2.4995,-2.494,-2.4662,-2.4354,-2.4022,-2.3756,-2.3518,-2.3353,-2.3283,-2.3385,-2.3562,-2.4057,-2.4586,-2.4698,-2.4745,-2.5074,-2.5139,-3.3373,-3.2598,-3.2459,-3.2915,-3.373,-3.4345,-3.4821,-3.5174,-3.5563,-3.5167,-3.4232,-3.3494,-3.2861,-3.2171,-3.1198,-3.0441,-3.0046,-2.9832,-2.9595,-3.0157,-3.0711,-3.1302,-3.1775,-3.1401,-3.1443,-3.1352,-3.0647,-3.0017,-2.9859,-3.0232,-3.0547,-3.0071,-2.9552,-2.8956,-2.8117,-2.7284,-2.6417,-2.6281,-2.6552,-2.7077,-2.7514,-2.7686,-2.772,-2.7565,-2.758,-2.7612,-2.7554,-2.7436,-2.736,-2.7384,-2.7415,-2.7402,-2.7504,-2.7494,-2.7417,-2.7293,-2.7246,-2.72,-2.7184,-2.7244,-2.7365,-2.7733,-2.8139,-2.8504,-2.8897,-2.9283,-2.9521,-2.9626,-2.9617,-2.9579,-2.9635,-2.9732,-2.9931,-3.0115,-3.0247,-3.0395,-3.0574,-3.0669,-3.0692,-3.0677,-3.0559,-2.9943,-2.8489,-2.8202,-2.7517,-2.6824,-2.6773,-2.7042,-2.737,-2.7702,-2.7404,-2.7038,-2.6962,-2.6711,-2.6083,-2.5663,-2.571,-2.5568,-2.5635,-2.5602,-2.5326,-2.4977,-2.4744,-2.4313,-2.3829,-2.3689,-2.3547,-2.3797,-2.404,-2.4648,-2.5192,-2.5281,-2.5442,-2.5831,-2.5674,-3.3509,-3.2706,-3.265,-3.3138,-3.3904,-3.4306,-3.4268,-3.4136,-3.4836,-3.4378,-3.3215,-3.2538,-3.1998,-3.1347,-3.0317,-2.9692,-2.9318,-2.9005,-2.8966,-2.9357,-2.9814,-3.0257,-3.0616,-3.0401,-3.0475,-3.1075,-2.9767,-2.9124,-2.9356,-2.9349,-2.9137,-2.9326,-2.8984,-2.8428,-2.7922,-2.7127,-2.7028,-2.6945,-2.708,-2.7352,-2.7419,-2.7568,-2.7457,-2.7282,-2.7293,-2.7324,-2.7277,-2.7246,-2.72,-2.7247,-2.734,-2.7432,-2.7388,-2.7357,-2.723,-2.7135,-2.7071,-2.7056,-2.7024,-2.7039,-2.7181,-2.7439,-2.7865,-2.8254,-2.8646,-2.9038,-2.9289,-2.9411,-2.9411,-2.9382,-2.9414,-2.9514,-2.9678,-2.984,-3.0047,-3.0203,-3.0351,-3.0518,-3.0678,-3.0707,-3.0709,-3.0034,-2.9271,-2.875,-2.8334,-2.7637,-2.7459,-2.768,-2.7934,-2.8152,-2.7762,-2.7478,-2.7468,-2.7183,-2.6535,-2.6372,-2.6644,-2.6619,-2.6638,-2.6564,-2.6371,-2.5957,-2.5551,-2.5078,-2.4575,-2.4027,-2.3948,-2.4217,-2.4563,-2.5129,-2.5551,-2.5776,-2.6018,-2.6264,-2.5842,-3.3663,-3.2901,-3.2786,-3.347,-3.4454,-3.4366,-3.3952,-3.3531,-3.4014,-3.3382,-3.2109,-3.1493,-3.0709,-3.0245,-2.949,-2.8845,-2.8565,-2.8451,-2.8585,-2.8656,-2.8776,-2.9231,-2.9523,-2.9454,-2.96,-3.0348,-2.9162,-2.8737,-2.8735,-2.8132,-2.8282,-2.8304,-2.8229,-2.7838,-2.7549,-2.7655,-2.7479,-2.721,-2.7485,-2.7774,-2.7554,-2.7589,-2.7368,-2.7077,-2.7006,-2.704,-2.7039,-2.7055,-2.7086,-2.7086,-2.7104,-2.7169,-2.7185,-2.7169,-2.707,-2.707,-2.7007,-2.6958,-2.6942,-2.6975,-2.7087,-2.7319,-2.7754,-2.8075,-2.8402,-2.8796,-2.9112,-2.9178,-2.9211,-2.9251,-2.9211,-2.9293,-2.9398,-2.9533,-2.9821,-2.9972,-3.0099,-3.0334,-3.0501,-3.0668,-3.0639,-3.0163,-2.9655,-2.916,-2.8838,-2.8548,-2.8383,-2.8297,-2.8513,-2.8565,-2.8182,-2.8059,-2.8074,-2.7865,-2.728,-2.7043,-2.7318,-2.7489,-2.7539,-2.7532,-2.7403,-2.7169,-2.6716,-2.5938,-2.5393,-2.4792,-2.4382,-2.4517,-2.494,-2.5552,-2.595,-2.6195,-2.6449,-2.6703,-2.593,-3.2781,-3.2468,-3.2252,-3.3185,-3.4563,-3.3959,-3.3629,-3.3517,-3.2733,-3.1942,-3.1102,-2.9605,-2.9409,-2.9373,-2.8571,-2.82,-2.8321,-2.8372,-2.8411,-2.8411,-2.8468,-2.8719,-2.8856,-2.8888,-2.9053,-2.9293,-2.9019,-2.9005,-2.8869,-2.8727,-2.8082,-2.7903,-2.7818,-2.7443,-2.6896,-2.6557,-2.6671,-2.6705,-2.6687,-2.6674,-2.7012,-2.7029,-2.7013,-2.6792,-2.6859,-2.6892,-2.6925,-2.6975,-2.7024,-2.7024,-2.7007,-2.7024,-2.704,-2.7024,-2.6991,-2.6958,-2.6925,-2.6876,-2.6825,-2.6859,-2.6859,-2.6988,-2.7502,-2.7883,-2.8161,-2.8596,-2.8975,-2.9089,-2.9145,-2.9189,-2.9207,-2.9214,-2.9272,-2.9388,-2.9495,-2.9632,-2.9823,-3.0051,-3.0283,-3.0477,-3.0473,-3.0451,-2.9977,-2.9648,-2.9452,-2.9201,-2.8975,-2.8763,-2.8726,-2.8804,-2.8691,-2.8675,-2.8749,-2.845,-2.8051,-2.7918,-2.7972,-2.8198,-2.8313,-2.8536,-2.8453,-2.838,-2.793,-2.7279,-2.6297,-2.5383,-2.5125,-2.4897,-2.511,-2.5541,-2.6052,-2.6557,-2.637,-2.6123,-2.5793,-3.2867,-3.2634,-3.2481,-3.3178,-3.4229,-3.4268,-3.3144,-3.1827,-3.2139,-3.1471,-3.0134,-2.9159,-2.9,-2.9094,-2.8472,-2.8091,-2.8115,-2.8323,-2.8411,-2.8411,-2.8436,-2.846,-2.8549,-2.8565,-2.8692,-2.8865,-2.9005,-2.8871,-2.8371,-2.8009,-2.7763,-2.7339,-2.7211,-2.7041,-2.6689,-2.629,-2.638,-2.6491,-2.6287,-2.6217,-2.6803,-2.6791,-2.6725,-2.6725,-2.6758,-2.6775,-2.6809,-2.6892,-2.6959,-2.6959,-2.6959,-2.6959,-2.6925,-2.6875,-2.6876,-2.6893,-2.6842,-2.6792,-2.6725,-2.6758,-2.6758,-2.6808,-2.738,-2.7786,-2.7996,-2.8417,-2.887,-2.8987,-2.9044,-2.9078,-2.9044,-2.9078,-2.9104,-2.9155,-2.9275,-2.9446,-2.9598,-2.9807,-3.0013,-3.0221,-3.0342,-3.0361,-3.0268,-3.0047,-3.0029,-2.9842,-2.958,-2.9288,-2.8988,-2.8884,-2.8839,-2.8369,-2.8381,-2.8851,-2.8754,-2.896,-2.8829,-2.898,-2.9077,-2.9295,-2.9388,-2.9265,-2.9159,-2.8799,-2.7648,-2.6032,-2.5177,-2.4737,-2.5132,-2.5455,-2.5649,-2.5784,-2.5683,-2.5473,-2.5248,-3.298,-3.2778,-3.2665,-3.3181,-3.4018,-3.4397,-3.2892,-3.0777,-3.1723,-3.1113,-2.9106,-2.8841,-2.8871,-2.8947,-2.8478,-2.7995,-2.7745,-2.8079,-2.8226,-2.8275,-2.8387,-2.8411,-2.8411,-2.842,-2.8493,-2.8605,-2.8661,-2.8498,-2.8309,-2.7709,-2.7155,-2.7089,-2.6947,-2.6916,-2.692,-2.6735,-2.7036,-2.7122,-2.7047,-2.6862,-2.7078,-2.7024,-2.681,-2.6708,-2.6708,-2.6708,-2.6725,-2.6792,-2.6842,-2.6859,-2.6859,-2.6876,-2.6825,-2.6758,-2.6758,-2.6809,-2.6775,-2.6725,-2.6691,-2.6708,-2.6725,-2.6725,-2.7258,-2.755,-2.7797,-2.8161,-2.8669,-2.8827,-2.8917,-2.8959,-2.8917,-2.894,-2.8952,-2.8987,-2.916,-2.9341,-2.9404,-2.9523,-2.966,-2.9897,-3.017,-3.0257,-3.0175,-3.0313,-3.0248,-3.0057,-2.9788,-2.9369,-2.9077,-2.8814,-2.8552,-2.7772,-2.7819,-2.8831,-2.9351,-3.0007,-2.993,-2.9912,-2.9928,-3.0018,-3.0092,-3.0087,-2.9849,-2.9367,-2.7972,-2.6423,-2.5472,-2.483,-2.5226,-2.5415,-2.5201,-2.5149,-2.5332,-2.5338,-2.5198,-3.2557,-3.245,-3.215,-3.2989,-3.4297,-3.3857,-3.2815,-3.1558,-3.1134,-3.0104,-2.8861,-2.7852,-2.8111,-2.867,-2.8378,-2.7759,-2.7494,-2.765,-2.789,-2.798,-2.8201,-2.8372,-2.8436,-2.8411,-2.8444,-2.8525,-2.8477,-2.8661,-2.8544,-2.795,-2.7632,-2.7541,-2.7411,-2.7342,-2.7426,-2.7342,-2.7807,-2.7947,-2.7928,-2.7821,-2.7613,-2.7517,-2.7198,-2.686,-2.6708,-2.6691,-2.6691,-2.6708,-2.6725,-2.6742,-2.6725,-2.6725,-2.6725,-2.6725,-2.6708,-2.6708,-2.6708,-2.6708,-2.6691,-2.6691,-2.6691,-2.6758,-2.7085,-2.7228,-2.7502,-2.7894,-2.8417,-2.8785,-2.881,-2.881,-2.8822,-2.887,-2.8905,-2.891,-2.901,-2.91,-2.916,-2.9301,-2.9456,-2.9551,-2.9821,-3.0032,-3.0093,-3.0308,-3.0456,-3.0231,-2.9965,-2.9537,-2.8997,-2.8615,-2.8293,-2.7554,-2.7715,-2.8702,-2.9521,-3.0266,-3.0567,-3.0604,-3.0593,-3.0548,-3.049,-3.0335,-2.9907,-2.9212,-2.7924,-2.7125,-2.648,-2.5999,-2.5724,-2.5375,-2.5162,-2.5132,-2.5183,-2.5128,-2.4971,-3.2474,-3.2411,-3.2625,-3.3042,-3.3623,-3.3932,-3.2971,-3.1541,-3.159,-3.0733,-2.9198,-2.8377,-2.8037,-2.7997,-2.7689,-2.7372,-2.6954,-2.7214,-2.756,-2.774,-2.7965,-2.8235,-2.851,-2.8558,-2.8573,-2.8525,-2.8573,-2.8549,-2.8568,-2.8388,-2.8116,-2.8061,-2.7982,-2.7965,-2.7818,-2.7721,-2.7915,-2.8034,-2.7961,-2.7517,-2.7081,-2.7027,-2.7029,-2.6674,-2.664,-2.664,-2.664,-2.6589,-2.664,-2.6674,-2.6674,-2.664,-2.664,-2.664,-2.6623,-2.6589,-2.6572,-2.6589,-2.6623,-2.6657,-2.6674,-2.6742,-2.694,-2.7228,-2.7411,-2.7707,-2.8106,-2.843,-2.8507,-2.8589,-2.8724,-2.881,-2.881,-2.8834,-2.8893,-2.894,-2.9021,-2.9123,-2.9249,-2.9346,-2.9466,-2.9686,-2.9869,-3.0018,-3.0163,-3.0132,-2.9956,-2.9692,-2.8863,-2.7964,-2.7678,-2.7345,-2.7867,-2.873,-2.9505,-3.0251,-3.0608,-3.0691,-3.0723,-3.0678,-3.0632,-3.0412,-2.9925,-2.94,-2.8455,-2.7815,-2.7371,-2.6359,-2.5303,-2.5162,-2.5152,-2.5014,-2.4881,-2.4579,-2.4447,-3.2538,-3.2138,-3.2783,-3.3008,-3.2969,-3.4017,-3.3238,-3.1488,-3.2021,-3.1308,-2.9837,-2.9147,-2.829,-2.7244,-2.7271,-2.7139,-2.6392,-2.6759,-2.7111,-2.7382,-2.761,-2.7845,-2.8116,-2.831,-2.847,-2.8494,-2.8629,-2.8597,-2.8468,-2.8389,-2.8359,-2.8411,-2.824,-2.8262,-2.817,-2.7933,-2.7857,-2.814,-2.7963,-2.736,-2.6746,-2.6751,-2.6756,-2.6656,-2.6572,-2.6571,-2.6571,-2.6537,-2.6572,-2.6606,-2.6589,-2.6572,-2.6572,-2.6572,-2.6571,-2.652,-2.6503,-2.6503,-2.6537,-2.6572,-2.6606,-2.6674,-2.6792,-2.7021,-2.7332,-2.756,-2.7768,-2.8051,-2.812,-2.8281,-2.85,-2.8589,-2.8669,-2.8706,-2.8791,-2.8851,-2.8929,-2.9033,-2.9112,-2.9192,-2.9283,-2.9395,-2.957,-2.9688,-2.9799,-2.9912,-2.9882,-2.9774,-2.8969,-2.7892,-2.7385,-2.7207,-2.7452,-2.8251,-2.8984,-2.9724,-3.0243,-3.0638,-3.064,-3.0518,-3.0292,-3.0149,-2.9823,-2.9276,-2.8608,-2.7832,-2.6983,-2.585,-2.4849,-2.4922,-2.4933,-2.4679,-2.4456,-2.421,-2.4235,-3.2763,-3.1265,-3.2113,-3.2718,-3.3161,-3.3597,-3.3214,-3.2118,-3.1908,-3.1205,-3.0152,-2.9749,-2.8648,-2.757,-2.7413,-2.7089,-2.603,-2.6351,-2.6691,-2.6875,-2.6967,-2.731,-2.761,-2.7879,-2.8107,-2.8073,-2.835,-2.851,-2.8444,-2.8411,-2.8411,-2.8411,-2.8299,-2.8235,-2.8155,-2.8,-2.7679,-2.7837,-2.7725,-2.7446,-2.6937,-2.6811,-2.6755,-2.6552,-2.6503,-2.6502,-2.6502,-2.6468,-2.6502,-2.6537,-2.652,-2.6502,-2.6502,-2.6502,-2.6485,-2.645,-2.645,-2.6433,-2.6399,-2.6468,-2.6486,-2.652,-2.6589,-2.6759,-2.702,-2.71,-2.7336,-2.7622,-2.7692,-2.7883,-2.8065,-2.821,-2.8352,-2.852,-2.8639,-2.8767,-2.8827,-2.8929,-2.8998,-2.9051,-2.9134,-2.9249,-2.9351,-2.9493,-2.9598,-2.9734,-2.9916,-2.9825,-2.9308,-2.8369,-2.759,-2.7206,-2.7079,-2.7528,-2.8183,-2.8843,-2.9512,-2.9918,-3.0065,-2.9857,-2.9604,-2.9509,-2.953,-2.8765,-2.8029,-2.7311,-2.6638,-2.5772,-2.5113,-2.4905,-2.4749,-2.4651,-2.4611,-2.4515,-2.4651,-3.2868,-3.2227,-3.2452,-3.2427,-3.2351,-3.3129,-3.3022,-3.2382,-3.1892,-3.1116,-3.016,-2.9624,-2.8823,-2.8025,-2.7682,-2.737,-2.6708,-2.7089,-2.7085,-2.7133,-2.7234,-2.7293,-2.7454,-2.7555,-2.7805,-2.7944,-2.8229,-2.8414,-2.8396,-2.8299,-2.8323,-2.8299,-2.8162,-2.821,-2.8162,-2.7947,-2.7529,-2.698,-2.6947,-2.6714,-2.5819,-2.5869,-2.5964,-2.6059,-2.6028,-2.617,-2.6312,-2.6311,-2.6398,-2.645,-2.6433,-2.6399,-2.6381,-2.6381,-2.6364,-2.6329,-2.6328,-2.631,-2.6293,-2.6364,-2.6468,-2.6399,-2.6451,-2.6554,-2.6691,-2.6708,-2.6891,-2.7099,-2.7288,-2.7474,-2.7689,-2.7837,-2.8,-2.8242,-2.8443,-2.857,-2.8725,-2.8803,-2.8952,-2.901,-2.9078,-2.916,-2.9243,-2.9326,-2.9431,-2.956,-2.9739,-2.9815,-2.9356,-2.8859,-2.8096,-2.7512,-2.7362,-2.7154,-2.7768,-2.8327,-2.8874,-2.9158,-2.9453,-2.9136,-2.8891,-2.9145,-2.8997,-2.8223,-2.7568,-2.7055,-2.647,-2.5831,-2.536,-2.5044,-2.4895,-2.4818,-2.4797,-2.4751,-2.4774,-3.2515,-3.2326,-3.2309,-3.2184,-3.2081,-3.2819,-3.2893,-3.2355,-3.1823,-3.1073,-3.0129,-2.9641,-2.9127,-2.8568,-2.7965,-2.754,-2.7074,-2.7046,-2.7017,-2.6916,-2.6837,-2.6977,-2.7073,-2.721,-2.7388,-2.768,-2.7879,-2.7968,-2.7925,-2.7925,-2.7925,-2.79,-2.79,-2.7835,-2.7993,-2.7716,-2.7091,-2.629,-2.5906,-2.5724,-2.4784,-2.4879,-2.5173,-2.5424,-2.5478,-2.5666,-2.5886,-2.5975,-2.6151,-2.6274,-2.6345,-2.6293,-2.6293,-2.6276,-2.6258,-2.6205,-2.6185,-2.6185,-2.6239,-2.6292,-2.638,-2.6311,-2.6329,-2.6346,-2.6347,-2.6399,-2.6624,-2.6808,-2.6923,-2.7085,-2.7363,-2.7517,-2.7698,-2.794,-2.8051,-2.8188,-2.8464,-2.8633,-2.8851,-2.901,-2.9067,-2.9134,-2.9211,-2.9286,-2.9384,-2.9353,-2.9172,-2.9464,-2.9651,-2.9159,-2.8607,-2.8111,-2.7776,-2.7551,-2.7409,-2.7923,-2.8403,-2.8574,-2.8705,-2.83,-2.8162,-2.8395,-2.8149,-2.7184,-2.6723,-2.668,-2.6312,-2.5712,-2.5378,-2.5132,-2.4993,-2.4874,-2.4791,-2.4719,-2.4528,-3.1732,-3.1031,-3.1486,-3.199,-3.2436,-3.2773,-3.2676,-3.2259,-3.1581,-3.0881,-3.0237,-2.997,-2.9628,-2.9042,-2.8206,-2.7695,-2.7202,-2.6666,-2.6412,-2.6496,-2.6453,-2.6171,-2.6245,-2.6549,-2.6849,-2.6759,-2.7185,-2.7501,-2.724,-2.7417,-2.7462,-2.7316,-2.7251,-2.7327,-2.7705,-2.7173,-2.6509,-2.5885,-2.547,-2.5063,-2.4704,-2.4513,-2.4628,-2.4887,-2.4962,-2.5157,-2.5462,-2.5538,-2.5738,-2.6061,-2.6115,-2.6133,-2.6203,-2.6205,-2.6187,-2.6203,-2.6185,-2.6185,-2.6203,-2.6203,-2.6221,-2.6221,-2.624,-2.6258,-2.6294,-2.6347,-2.6399,-2.6589,-2.664,-2.6825,-2.7021,-2.7228,-2.7398,-2.7595,-2.7695,-2.7897,-2.817,-2.8489,-2.8694,-2.8887,-2.9021,-2.913,-2.9181,-2.9259,-2.9367,-2.9213,-2.8773,-2.8919,-2.9437,-2.9503,-2.9002,-2.8546,-2.814,-2.7605,-2.7394,-2.7605,-2.7905,-2.8065,-2.7857,-2.7343,-2.7143,-2.7246,-2.679,-2.609,-2.6048,-2.6186,-2.5953,-2.5598,-2.5399,-2.52,-2.5037,-2.4888,-2.4782,-2.4678,-2.4543,-3.1933,-3.1711,-3.1652,-3.1718,-3.1946,-3.206,-3.2051,-3.1809,-3.1146,-3.0493,-2.9954,-2.9531,-2.9066,-2.8609,-2.8533,-2.8103,-2.7711,-2.7962,-2.7679,-2.7045,-2.6666,-2.6231,-2.6157,-2.625,-2.6437,-2.664,-2.7065,-2.7202,-2.689,-2.7211,-2.7014,-2.6792,-2.6806,-2.7126,-2.7494,-2.7335,-2.7005,-2.636,-2.5761,-2.5176,-2.4628,-2.418,-2.4105,-2.4517,-2.4497,-2.4699,-2.5059,-2.5082,-2.5326,-2.5701,-2.5756,-2.5901,-2.6079,-2.6151,-2.6185,-2.6185,-2.6185,-2.6185,-2.6185,-2.6203,-2.6185,-2.6185,-2.6203,-2.6205,-2.6222,-2.6222,-2.6276,-2.6363,-2.6502,-2.664,-2.6691,-2.6825,-2.7004,-2.7274,-2.7441,-2.7666,-2.7936,-2.8246,-2.8509,-2.8713,-2.8881,-2.8959,-2.9034,-2.9061,-2.914,-2.9323,-2.898,-2.8744,-2.9074,-2.9543,-2.9424,-2.8921,-2.8409,-2.7745,-2.7382,-2.7337,-2.6891,-2.6664,-2.6512,-2.6169,-2.6087,-2.6316,-2.6171,-2.5815,-2.5763,-2.5686,-2.5644,-2.5586,-2.5478,-2.5298,-2.5132,-2.4993,-2.4893,-2.4768,-2.4636,-3.1813,-3.1847,-3.1378,-3.1321,-3.1549,-3.1499,-3.1394,-3.1175,-3.0747,-3.0312,-2.9815,-2.9355,-2.9162,-2.895,-2.87,-2.8639,-2.8306,-2.7975,-2.7917,-2.7397,-2.7045,-2.6596,-2.6371,-2.6399,-2.6764,-2.6875,-2.7003,-2.7116,-2.6736,-2.7356,-2.7002,-2.6343,-2.6447,-2.6845,-2.717,-2.714,-2.6836,-2.6132,-2.5458,-2.4814,-2.4282,-2.3899,-2.3767,-2.3958,-2.4099,-2.4266,-2.4574,-2.4759,-2.4879,-2.5179,-2.5446,-2.5612,-2.5883,-2.6097,-2.6151,-2.6185,-2.6185,-2.6185,-2.6185,-2.6185,-2.6185,-2.6185,-2.6185,-2.6185,-2.6185,-2.6203,-2.6257,-2.6344,-2.645,-2.652,-2.6572,-2.6657,-2.6791,-2.7052,-2.7148,-2.7365,-2.7634,-2.7946,-2.8166,-2.8373,-2.8366,-2.8535,-2.8802,-2.8852,-2.8885,-2.9057,-2.921,-2.8999,-2.8819,-2.9273,-2.9609,-2.9128,-2.856,-2.7894,-2.7234,-2.6771,-2.6222,-2.5418,-2.5343,-2.5451,-2.5602,-2.5908,-2.5733,-2.5644,-2.5677,-2.5679,-2.5655,-2.5588,-2.5476,-2.5385,-2.5248,-2.5116,-2.4993,-2.4893,-2.479,-3.1235,-3.1419,-3.0656,-3.0868,-3.1415,-3.1177,-3.079,-3.04,-3.0477,-3.0251,-2.9763,-2.9749,-2.9555,-2.9633,-2.9052,-2.8625,-2.8375,-2.7412,-2.7088,-2.6891,-2.6764,-2.6666,-2.6862,-2.7127,-2.7052,-2.7098,-2.7177,-2.7092,-2.6714,-2.6624,-2.6256,-2.6017,-2.6286,-2.6549,-2.663,-2.6688,-2.6515,-2.6165,-2.5615,-2.4986,-2.4403,-2.3894,-2.3773,-2.3799,-2.3745,-2.3931,-2.4162,-2.4287,-2.4533,-2.4823,-2.5179,-2.5351,-2.5594,-2.5919,-2.6079,-2.6169,-2.6169,-2.6151,-2.6151,-2.6151,-2.6185,-2.6185,-2.6185,-2.6185,-2.6185,-2.6203,-2.6257,-2.6363,-2.6468,-2.6555,-2.6641,-2.6674,-2.6708,-2.6775,-2.6775,-2.7004,-2.7288,-2.7545,-2.7733,-2.779,-2.762,-2.7789,-2.826,-2.8445,-2.8767,-2.8998,-2.9216,-2.9302,-2.9166,-2.9231,-2.943,-2.9165,-2.8599,-2.7993,-2.7319,-2.6472,-2.5901,-2.5216,-2.5264,-2.5356,-2.5485,-2.5584,-2.562,-2.564,-2.5682,-2.5688,-2.5669,-2.5607,-2.5489,-2.5395,-2.5335,-2.5231,-2.5112,-2.5076,-2.5005,-3.1061,-3.1156,-3.0994,-3.1079,-3.1247,-3.0852,-3.074,-3.0852,-3.0264,-2.9789,-2.9665,-2.9651,-2.929,-2.8501,-2.8579,-2.8186,-2.7595,-2.706,-2.6905,-2.6764,-2.6718,-2.6521,-2.6642,-2.6953,-2.6922,-2.7094,-2.7152,-2.7138,-2.6524,-2.6162,-2.5984,-2.5898,-2.5976,-2.6035,-2.621,-2.6454,-2.6619,-2.6668,-2.6105,-2.545,-2.4852,-2.4418,-2.4103,-2.3729,-2.3595,-2.3754,-2.3915,-2.3882,-2.4099,-2.4498,-2.4574,-2.4739,-2.5082,-2.5462,-2.574,-2.6045,-2.6045,-2.6045,-2.6045,-2.6063,-2.6097,-2.6185,-2.6185,-2.6185,-2.6185,-2.6203,-2.6257,-2.6346,-2.6451,-2.6572,-2.6624,-2.6657,-2.6691,-2.6708,-2.6725,-2.6841,-2.7116,-2.7289,-2.7454,-2.7385,-2.7214,-2.7588,-2.804,-2.8413,-2.8746,-2.8984,-2.9184,-2.9314,-2.9297,-2.928,-2.9124,-2.8866,-2.8185,-2.7453,-2.6818,-2.6035,-2.5568,-2.5158,-2.5195,-2.524,-2.534,-2.544,-2.5545,-2.5631,-2.5664,-2.5696,-2.5699,-2.5625,-2.5539,-2.5479,-2.5397,-2.5317,-2.5239,-2.5195,-2.5168,-3.1024,-3.102,-3.1146,-3.1229,-3.1206,-3.0722,-3.0676,-3.0697,-2.9727,-2.935,-2.956,-2.935,-2.8844,-2.8396,-2.8507,-2.8212,-2.734,-2.7125,-2.6983,-2.6952,-2.6815,-2.6903,-2.696,-2.7152,-2.7466,-2.7463,-2.7449,-2.7482,-2.6736,-2.6288,-2.6074,-2.5468,-2.5491,-2.5507,-2.5577,-2.5823,-2.6414,-2.6715,-2.6654,-2.606,-2.5442,-2.4859,-2.4261,-2.3804,-2.367,-2.3759,-2.3939,-2.3864,-2.3917,-2.4295,-2.4359,-2.439,-2.4759,-2.5137,-2.5478,-2.5772,-2.5954,-2.599,-2.6026,-2.6097,-2.6115,-2.6168,-2.6185,-2.6185,-2.6185,-2.6203,-2.624,-2.6312,-2.6434,-2.6537,-2.6606,-2.6657,-2.6674,-2.6708,-2.6742,-2.6758,-2.6924,-2.7086,-2.7089,-2.7048,-2.7256,-2.7628,-2.8016,-2.8382,-2.8658,-2.8817,-2.8994,-2.9177,-2.9053,-2.8837,-2.8663,-2.8397,-2.7559,-2.672,-2.6136,-2.5614,-2.5223,-2.4998,-2.5101,-2.5152,-2.5216,-2.536,-2.5537,-2.5619,-2.5662,-2.5682,-2.5691,-2.5679,-2.5632,-2.5544,-2.5485,-2.5404,-2.5333,-2.5264,-2.5238,-3.1024,-3.1009,-3.1133,-3.1316,-3.1377,-3.0778,-3.0488,-3.0287,-2.9237,-2.8998,-2.9321,-2.8872,-2.8521,-2.8183,-2.8352,-2.8054,-2.7462,-2.7145,-2.7067,-2.7157,-2.7237,-2.7273,-2.7503,-2.8079,-2.7809,-2.7919,-2.7774,-2.7252,-2.7072,-2.653,-2.5803,-2.5005,-2.5052,-2.5034,-2.4973,-2.5174,-2.5701,-2.6224,-2.644,-2.6178,-2.5373,-2.4784,-2.4455,-2.3999,-2.3969,-2.4088,-2.438,-2.4306,-2.3999,-2.4326,-2.4455,-2.4367,-2.4549,-2.4835,-2.5166,-2.5454,-2.568,-2.5809,-2.5917,-2.6025,-2.615,-2.6185,-2.6185,-2.6185,-2.6185,-2.6185,-2.6222,-2.6278,-2.6382,-2.6182,-2.615,-2.6438,-2.6573,-2.6506,-2.6472,-2.6607,-2.6825,-2.6837,-2.6676,-2.6692,-2.6872,-2.7275,-2.7704,-2.8058,-2.8466,-2.8609,-2.8607,-2.8787,-2.8662,-2.836,-2.8073,-2.7797,-2.7009,-2.6172,-2.5594,-2.5132,-2.4874,-2.4772,-2.4921,-2.5056,-2.5094,-2.5305,-2.5532,-2.5605,-2.5679,-2.5683,-2.57,-2.5673,-2.5661,-2.5623,-2.5557,-2.5506,-2.5425,-2.5387,-2.5311,-3.1024,-3.1009,-3.1146,-3.1337,-3.141,-3.0797,-3.0263,-2.9771,-2.904,-2.8802,-2.8788,-2.8326,-2.7805,-2.7565,-2.7931,-2.766,-2.6963,-2.7205,-2.704,-2.7013,-2.718,-2.7357,-2.7307,-2.7702,-2.7762,-2.7545,-2.721,-2.6698,-2.6117,-2.5837,-2.5511,-2.453,-2.4622,-2.4761,-2.4458,-2.4706,-2.5188,-2.566,-2.6081,-2.6318,-2.5927,-2.5932,-2.5824,-2.5285,-2.5091,-2.5061,-2.5255,-2.5241,-2.4829,-2.4717,-2.459,-2.4461,-2.4343,-2.4503,-2.4695,-2.4938,-2.5304,-2.5492,-2.5624,-2.5807,-2.5972,-2.6115,-2.6133,-2.6185,-2.6185,-2.6185,-2.6205,-2.6277,-2.6195,-2.5928,-2.5812,-2.6184,-2.6455,-2.6337,-2.6169,-2.6421,-2.6708,-2.6519,-2.6311,-2.6369,-2.6523,-2.6852,-2.7302,-2.7751,-2.8165,-2.8187,-2.796,-2.7917,-2.7841,-2.7625,-2.727,-2.6941,-2.6395,-2.568,-2.5122,-2.4814,-2.465,-2.4623,-2.4749,-2.4857,-2.4985,-2.5266,-2.554,-2.5637,-2.5694,-2.5682,-2.5684,-2.5702,-2.5677,-2.5646,-2.5637,-2.558,-2.5588,-2.5547,-2.5441,-3.1024,-3.1007,-3.1146,-3.1185,-3.1191,-3.1026,-3.0459,-2.9659,-2.9237,-2.8942,-2.8619,-2.8057,-2.7551,-2.7242,-2.7665,-2.7502,-2.686,-2.719,-2.7162,-2.7055,-2.7142,-2.7261,-2.7367,-2.7406,-2.7491,-2.7379,-2.6909,-2.6313,-2.5432,-2.5197,-2.4975,-2.4282,-2.4465,-2.4495,-2.4141,-2.4476,-2.4778,-2.5061,-2.5701,-2.5989,-2.6199,-2.6312,-2.6225,-2.5809,-2.5621,-2.5726,-2.5869,-2.5839,-2.542,-2.4844,-2.4515,-2.4131,-2.4013,-2.4156,-2.4323,-2.4553,-2.4855,-2.5146,-2.5224,-2.54,-2.5647,-2.5793,-2.5883,-2.5795,-2.6169,-2.6185,-2.6203,-2.6258,-2.6295,-2.6078,-2.5827,-2.6031,-2.6234,-2.6218,-2.595,-2.59,-2.6168,-2.6266,-2.611,-2.6037,-2.616,-2.6331,-2.6815,-2.7382,-2.7678,-2.7485,-2.7287,-2.7477,-2.7338,-2.6909,-2.6547,-2.625,-2.5819,-2.5337,-2.4816,-2.463,-2.4554,-2.4566,-2.4621,-2.4821,-2.5016,-2.5309,-2.5546,-2.5595,-2.5637,-2.5677,-2.5682,-2.5683,-2.5703,-2.5679,-2.5676,-2.5673,-2.5686,-2.5675,-2.557,-3.1099,-3.1082,-3.1204,-3.1137,-3.0983,-3.1324,-3.0825,-2.9869,-2.9715,-2.9378,-2.8816,-2.8241,-2.7902,-2.7819,-2.7776,-2.7583,-2.7552,-2.7852,-2.7638,-2.733,-2.7446,-2.74,-2.7413,-2.7458,-2.7432,-2.7137,-2.6713,-2.6177,-2.5524,-2.5132,-2.4622,-2.4204,-2.4125,-2.4125,-2.4125,-2.4171,-2.4361,-2.4692,-2.509,-2.5231,-2.5652,-2.6199,-2.6159,-2.594,-2.5795,-2.6096,-2.6324,-2.6216,-2.5819,-2.527,-2.4627,-2.4006,-2.3777,-2.3888,-2.3973,-2.4168,-2.4513,-2.4695,-2.4795,-2.4938,-2.5157,-2.5332,-2.5373,-2.5594,-2.5937,-2.6097,-2.6114,-2.6221,-2.6259,-2.6109,-2.5858,-2.5641,-2.5828,-2.5813,-2.5495,-2.5581,-2.5882,-2.6065,-2.5878,-2.5757,-2.5932,-2.6057,-2.6525,-2.7093,-2.7093,-2.688,-2.6824,-2.7103,-2.7064,-2.6405,-2.5864,-2.5771,-2.5566,-2.5068,-2.4586,-2.45,-2.45,-2.4507,-2.4596,-2.4806,-2.5024,-2.5212,-2.5387,-2.5521,-2.5561,-2.5612,-2.5654,-2.5681,-2.5683,-2.5683,-2.5701,-2.5699,-2.5696,-2.5688,-2.5659,-3.1482,-3.1502,-3.1632,-3.1392,-3.0997,-3.1352,-3.105,-3.0385,-3.0315,-3.001,-2.9434,-2.8802,-2.8312,-2.7833,-2.7805,-2.7767,-2.7967,-2.8349,-2.8093,-2.7669,-2.7832,-2.7595,-2.7439,-2.7571,-2.7242,-2.6844,-2.6347,-2.572,-2.5288,-2.4674,-2.4256,-2.4125,-2.4125,-2.4125,-2.4125,-2.4141,-2.4171,-2.4419,-2.4565,-2.478,-2.5133,-2.571,-2.6431,-2.6439,-2.645,-2.6857,-2.7079,-2.678,-2.6564,-2.6015,-2.5106,-2.4171,-2.3796,-2.3681,-2.3745,-2.3867,-2.4183,-2.4307,-2.4431,-2.4578,-2.4788,-2.4946,-2.5044,-2.5218,-2.5516,-2.5721,-2.5864,-2.6185,-2.6122,-2.5802,-2.5518,-2.5116,-2.5102,-2.4784,-2.447,-2.5478,-2.6202,-2.5916,-2.5597,-2.5778,-2.6071,-2.632,-2.6673,-2.7002,-2.705,-2.6737,-2.6265,-2.6506,-2.6751,-2.6014,-2.5338,-2.5377,-2.5416,-2.4973,-2.4568,-2.4528,-2.45,-2.4498,-2.4555,-2.476,-2.491,-2.5059,-2.5212,-2.5392,-2.5496,-2.5537,-2.5579,-2.5631,-2.5678,-2.5682,-2.5683,-2.5701,-2.57,-2.5697,-2.5691]},{"header":{"parameterUnit":"m.s-1","parameterCategory":1,"la1":31.0,"la2":29.5877,"lo1":-88.7671,"lo2":-86.6584,"dy":0.0162,"dx":0.0185,"nx":115,"ny":88,"refTime":"2023-05-09T12:00:00:Z","depth":0,"parameterNumber":3,"parameterNumberName":"V-component_of_WINDS"},"data":[0.0,0.0,0.0,0.0,0.0,0.0,0.0,0.0,0.0,0.0,0.0,0.0,0.0,0.0,0.0,0.0,0.0,0.0,0.0,0.0,0.0,0.0,0.0,0.0,0.0,0.0,0.0,0.0,0.0,0.0,0.0,0.0,0.0,0.0,0.0,0.0,0.0,0.0,0.0,0.0,0.0,0.0,0.0,0.0,0.0,0.0,0.0,0.0,0.0,0.0,0.0,0.0,0.0,0.0,0.0,0.0,0.0,0.0,0.0,0.0,0.0,0.0,0.0,0.0,0.0,0.0,0.0,0.0,0.0,0.0,0.0,0.0,0.0,0.0,0.0,0.0,0.0,0.0,0.0,0.0,0.0,0.0,0.0,0.0,0.0,0.0,0.0,0.0,0.0,0.0,0.0,0.0,0.0,0.0,0.0,0.0,0.0,0.0,0.0,0.0,0.0,0.0,0.0,0.0,0.0,0.0,0.0,0.0,0.0,0.0,0.0,0.0,0.0,0.0,0.0,0.0,0.0,0.0,0.0,0.0,0.0,0.0,0.0,0.0,0.0,0.0,0.0,0.0,0.0,0.0,0.0,0.0,0.0,0.0,0.0,0.0,0.0,0.0,0.0,0.0,0.0,0.0,0.0,0.0,0.0,0.0,0.0,0.0,0.0,0.0,0.0,0.0,0.0,0.0,0.0,0.0,0.0,0.0,0.0,0.0,0.0,0.0,0.0,0.0,0.0,0.0,0.0,0.0,0.0,0.0,0.0,0.0,0.0,0.0,0.0,0.0,0.0,0.0,0.0,0.0,0.0,0.0,0.0,0.0,0.0,0.0,0.0,0.0,0.0,0.0,0.0,0.0,0.0,0.0,0.0,0.0,0.0,0.0,0.0,0.0,0.0,0.0,0.0,0.0,0.0,0.0,0.0,0.0,0.0,0.0,0.0,0.0,0.0,0.0,0.0,0.0,0.0,0.0,0.0,0.0,0.0,0.0,0.0,0.0,0.0,0.0,0.0,0.0,0.0,0.0,0.0,0.0,0.0,0.0,0.0,0.0,0.0,0.0,0.0,0.0,0.0,0.0,0.0,0.0,0.0,0.0,0.0,0.0,0.0,0.0,0.0,0.0,0.0,0.0,0.0,0.0,0.0,0.0,0.0,0.0,0.0,0.0,0.0,0.0,0.0,0.0,0.0,0.0,0.0,0.0,0.0,0.0,0.0,0.0,0.0,0.0,0.0,0.0,0.0,0.0,0.0,0.0,0.0,0.0,0.0,0.0,0.0,0.0,0.0,0.0,0.0,0.0,0.0,0.0,0.0,0.0,0.0,0.0,0.0,0.0,0.0,0.0,0.0,0.0,0.0,0.0,0.0,0.0,0.0,0.0,0.0,0.0,0.0,0.0,0.0,0.0,0.0,0.0,0.0,0.0,0.0,0.0,0.0,0.0,0.0,0.0,0.0,0.0,0.0,0.0,0.0,0.0,0.0,0.0,0.0,0.0,0.0,0.0,0.0,0.0,0.0,0.0,0.0,0.0,0.0,0.0,0.0,0.0,0.0,0.0,0.0,0.0,0.0,0.0,0.0,0.0,0.0,0.0,0.0,0.0,0.0,0.0,0.0,0.0,0.0,0.0,0.0,0.0,0.0,0.0,0.0,0.0,0.0,0.0,0.0,0.0,0.0,0.0,0.0,0.0,0.0,0.0,0.0,0.0,0.0,0.0,0.0,0.0,0.0,0.0,0.0,0.0,0.0,0.0,0.0,0.0,0.0,0.0,0.0,0.0,0.0,0.0,0.0,0.0,0.0,0.0,0.0,0.0,0.0,0.0,0.0,0.0,0.0,0.0,0.0,0.0,0.0,0.0,0.0,0.0,0.0,0.0,0.0,0.0,0.0,0.0,0.0,0.0,0.0,0.0,0.0,0.0,0.0,0.0,0.0,0.0,0.0,0.0,0.0,0.0,0.0,0.0,0.0,0.0,0.0,0.0,0.0,0.0,0.0,0.0,0.0,0.0,0.0,0.0,0.0,0.0,0.0,0.0,0.0,0.0,0.0,0.0,0.0,0.0,0.0,0.0,0.0,0.0,0.0,0.0,0.0,0.0,0.0,0.0,0.0,0.0,0.0,0.0,0.0,0.0,0.0,0.0,0.0,0.0,0.0,0.0,0.0,0.0,0.0,0.0,0.0,0.0,0.0,0.0,0.0,0.0,0.0,0.0,0.0,0.0,0.0,0.0,0.0,0.0,0.0,0.0,0.0,0.0,0.0,0.0,0.0,0.0,0.0,0.0,0.0,0.0,0.0,0.0,0.0,0.0,0.0,0.0,0.0,0.0,0.0,0.0,0.0,0.0,0.0,0.0,0.0,0.0,0.0,0.0,0.0,0.0,0.0,0.0,0.0,0.0,0.0,0.0,0.0,0.0,0.0,0.0,0.0,0.0,0.0,0.0,0.0,0.0,0.0,0.0,0.0,0.0,0.0,0.0,0.0,0.0,0.0,0.0,0.0,0.0,0.0,0.0,0.0,0.0,0.0,0.0,0.0,0.0,0.0,0.0,0.0,0.0,0.0,0.0,0.0,0.0,0.0,0.0,0.0,0.0,0.0,0.0,0.0,0.0,0.0,0.0,0.0,0.0,0.0,0.0,0.0,0.0,0.0,0.0,0.0,0.0,0.0,0.0,0.0,0.0,0.0,0.0,0.0,0.0,0.0,0.0,0.0,0.0,0.0,0.0,0.0,0.0,0.0,0.0,0.0,0.0,0.0,0.0,0.0,0.0,0.0,0.0,0.0,0.0,0.0,0.0,0.0,0.0,0.0,0.0,0.0,0.0,0.0,0.0,0.0,0.0,0.0,0.0,0.0,0.0,0.0,0.0,0.0,0.0,0.0,0.0,0.0,0.0,0.0,0.0,0.0,0.0,0.0,0.0,0.0,0.0,0.0,0.0,0.0,0.0,0.0,0.0,0.0,0.0,0.0,0.0,0.0,0.0,0.0,0.0,0.0,0.0,0.0,0.0,0.0,0.0,0.0,0.0,0.0,0.0,0.0,0.0,0.0,0.0,0.0,0.0,0.0,0.0,0.0,0.0,0.0,0.0,0.0,0.0,0.0,0.0,0.0,0.0,0.0,0.0,0.0,0.0,0.0,0.0,0.0,0.0,0.0,0.0,0.0,0.0,0.0,0.0,0.0,0.0,0.0,0.0,0.0,0.0,0.0,0.0,0.0,0.0,0.0,0.0,0.0,0.0,0.0,0.0,0.0,0.0,0.0,0.0,0.0,0.0,0.0,0.0,0.0,0.0,0.0,0.0,0.0,0.0,0.0,0.0,0.0,0.0,0.0,0.0,0.0,0.0,0.0,0.0,0.0,0.0,0.0,0.0,0.0,0.0,0.0,0.0,0.0,0.0,0.0,0.0,0.0,0.0,0.0,0.0,0.0,0.0,0.0,0.0,0.0,0.0,0.0,0.0,0.0,0.0,0.0,0.0,0.0,0.0,0.0,0.0,0.0,0.0,0.0,0.0,0.0,0.0,0.0,0.0,0.0,0.0,0.0,0.0,0.0,0.0,0.0,0.0,0.0,0.0,0.0,0.0,0.0,0.0,0.0,0.0,0.0,0.0,0.0,0.0,0.0,0.0,0.0,0.0,0.0,0.0,0.0,0.0,0.0,0.0,0.0,0.0,0.0,0.0,0.0,0.0,0.0,0.0,0.0,0.0,0.0,0.0,0.0,0.0,0.0,0.0,0.0,0.0,0.0,0.0,0.0,0.0,0.0,0.0,0.0,0.0,0.0,0.0,0.0,0.0,0.0,0.0,0.0,0.0,0.0,0.0,0.0,0.0,0.0,0.0,0.0,0.0,0.0,0.0,0.0,0.0,0.0,0.0,0.0,0.0,0.0,0.0,0.0,0.0,0.0,0.0,0.0,0.0,0.0,0.0,0.0,0.0,0.0,0.0,0.0,0.0,0.0,0.0,0.0,0.0,0.0,0.0,0.0,0.0,0.0,0.0,0.0,0.0,0.0,0.0,0.0,0.0,0.0,0.0,0.0,0.0,0.0,0.0,0.0,0.0,0.0,0.0,0.0,0.0,0.0,0.0,0.0,0.0,0.0,0.0,0.0,0.0,0.0,0.0,0.0,0.0,0.0,0.0,0.0,0.0,0.0,0.0,0.0,0.0,0.0,0.0,0.0,0.0,0.0,0.0,0.0,0.0,0.0,0.0,0.0,0.0,0.0,0.0,0.0,0.0,0.0,0.0,0.0,0.0,0.0,0.0,0.0,0.0,0.0,0.0,-0.8653,0.0,0.0,0.0,0.0,0.0,0.0,0.0,0.0,0.0,0.0,0.0,0.0,0.0,0.0,0.0,0.0,0.0,0.0,0.0,0.0,0.0,0.0,0.0,0.0,0.0,0.0,0.0,0.0,0.0,0.0,0.0,0.0,0.0,0.0,0.0,0.0,0.0,0.0,0.0,0.0,0.0,0.0,0.0,0.0,0.0,0.0,0.0,0.0,0.0,0.0,0.0,0.0,0.0,0.0,0.0,0.0,0.0,0.0,0.0,0.0,0.0,0.0,0.0,0.0,0.0,0.0,0.0,0.0,0.0,0.0,0.0,0.0,0.0,0.0,0.0,0.0,0.0,0.0,0.0,0.0,0.0,0.0,0.0,0.0,0.0,0.0,0.0,0.0,0.0,0.0,0.0,0.0,0.0,0.0,0.0,0.0,0.0,0.0,0.0,0.0,0.0,0.0,0.0,0.0,0.0,0.0,0.0,0.0,0.0,0.0,-0.6592,-0.6824,-0.765,-0.8315,-0.8813,0.0,0.0,0.0,0.0,0.0,0.0,0.0,0.0,0.0,0.0,0.0,0.0,0.0,0.0,0.0,0.0,0.0,0.0,0.0,0.0,0.0,0.0,0.0,0.0,0.0,0.0,0.0,0.0,0.0,0.0,0.0,0.0,0.0,0.0,0.0,0.0,0.0,0.0,0.0,0.0,0.0,0.0,0.0,0.0,0.0,0.0,0.0,0.0,0.0,0.0,0.0,0.0,0.0,0.0,0.0,0.0,0.0,0.0,0.0,0.0,0.0,0.0,0.0,0.0,0.0,0.0,0.0,0.0,0.0,0.0,0.0,0.0,0.0,0.0,0.0,0.0,0.0,0.0,0.0,0.0,0.0,0.0,0.0,0.0,0.0,0.0,0.0,0.0,0.0,0.0,0.0,0.0,0.0,0.0,0.0,0.0,0.0,0.0,0.0,0.0,0.0,0.0,0.0,0.0,0.0,0.0,0.0,0.0,0.0,0.0,0.0,0.0,-0.736,-0.8316,-0.9282,0.0,0.0,0.0,0.0,0.0,0.0,0.0,0.0,0.0,0.0,0.0,0.0,0.0,0.0,0.0,0.0,0.0,0.0,0.0,0.0,0.0,0.0,0.0,0.0,0.0,0.0,0.0,0.0,0.0,0.0,0.0,0.0,0.0,0.0,0.0,0.0,0.0,0.0,0.0,0.0,0.0,0.0,0.0,0.0,0.0,0.0,0.0,0.0,0.0,0.0,0.0,0.0,0.0,0.0,0.0,0.0,0.0,0.0,0.0,0.0,0.0,0.0,0.0,0.0,0.0,0.0,0.0,0.0,0.0,0.0,0.0,0.0,0.0,0.0,0.0,0.0,0.0,0.0,0.0,0.0,0.0,0.0,0.0,0.0,0.0,0.0,0.0,0.0,0.0,0.0,0.0,0.0,0.0,0.0,0.0,0.0,0.0,0.0,0.0,0.0,0.0,0.0,0.0,0.0,0.0,0.0,0.0,0.0,0.0,0.0,-0.5214,-0.5693,-0.6912,0.0,-1.0043,0.0,0.0,0.0,0.0,0.0,0.0,0.0,0.0,0.0,0.0,0.0,0.0,0.0,0.0,0.0,0.0,0.0,0.0,0.0,0.0,0.0,0.0,0.0,0.0,0.0,0.0,0.0,0.0,0.0,0.0,0.0,0.0,0.0,0.0,0.0,0.0,0.0,0.0,0.0,0.0,0.0,0.0,0.0,0.0,0.0,0.0,0.0,0.0,0.0,0.0,0.0,0.0,0.0,0.0,0.0,0.0,0.0,0.0,0.0,0.0,0.0,0.0,0.0,0.0,0.0,0.0,0.0,0.0,0.0,0.0,0.0,0.0,0.0,0.0,0.0,0.0,0.0,0.0,0.0,0.0,0.0,0.0,0.0,0.0,0.0,0.0,0.0,0.0,0.0,0.0,0.0,0.0,0.0,0.0,0.0,0.0,0.0,0.0,0.0,0.0,0.0,0.0,0.0,0.0,0.0,0.0,0.0,0.0,0.0,0.0,-0.4633,-0.5468,-0.7556,-0.9175,0.0,0.0,0.0,0.0,0.0,0.0,0.0,0.0,0.0,0.0,0.0,0.0,0.0,0.0,0.0,0.0,0.0,0.0,0.0,0.0,0.0,0.0,0.0,0.0,0.0,0.0,0.0,0.0,0.0,0.0,0.0,0.0,0.0,0.0,0.0,0.0,0.0,0.0,0.0,0.0,0.0,0.0,0.0,0.0,0.0,0.0,0.0,0.0,0.0,0.0,0.0,0.0,0.0,0.0,0.0,0.0,0.0,0.0,0.0,0.0,0.0,0.0,0.0,0.0,0.0,0.0,0.0,0.0,0.0,0.0,0.0,0.0,0.0,0.0,0.0,0.0,0.0,0.0,0.0,0.0,0.0,0.0,0.0,0.0,0.0,0.0,0.0,0.0,0.0,0.0,0.0,0.0,0.0,0.0,0.0,0.0,0.0,0.0,0.0,0.0,0.0,0.0,0.0,0.0,0.0,0.0,0.0,0.0,0.0,0.0,-0.3189,-0.4299,-0.5855,-0.8126,-0.9706,-1.0479,0.0,0.0,0.0,0.0,0.0,0.0,0.0,0.0,0.0,0.0,0.0,0.0,0.0,0.0,0.0,0.0,0.0,0.0,0.0,0.0,0.0,0.0,0.0,0.0,0.0,0.0,0.0,0.0,0.0,0.0,0.0,0.0,0.0,0.0,0.0,0.0,0.0,0.0,0.0,0.0,0.0,0.0,0.0,0.0,0.0,0.0,0.0,0.0,0.0,0.0,0.0,0.0,0.0,0.0,0.0,0.0,0.0,0.0,0.0,0.0,0.0,0.0,0.0,0.0,0.0,0.0,0.0,0.0,0.0,0.0,0.0,0.0,0.0,0.0,0.0,0.0,0.0,0.0,0.0,0.0,0.0,0.0,0.0,0.0,0.0,0.0,0.0,0.0,0.0,0.0,0.0,0.0,0.0,0.0,0.0,0.0,0.0,0.0,0.0,0.0,0.0,0.0,0.0,0.0,0.0,0.0,0.0,0.0,-0.16,-0.254,-0.4327,-0.6882,-0.8315,-0.9627,0.0,0.0,0.0,0.0,0.0,0.0,0.0,0.0,0.0,0.0,0.0,0.0,0.0,0.0,0.0,0.0,0.0,0.0,0.0,0.0,0.0,0.0,0.0,0.0,0.0,0.0,0.0,0.0,0.0,0.0,0.0,0.0,0.0,0.0,0.0,0.0,0.0,0.0,0.0,0.0,0.0,0.0,0.0,0.0,0.0,0.0,0.0,0.0,0.0,0.0,0.0,0.0,0.0,0.0,0.0,0.0,0.0,0.0,0.0,0.0,0.0,0.0,0.0,0.0,0.0,0.0,0.0,0.0,0.0,0.0,0.0,0.0,0.0,0.0,0.0,0.0,0.0,0.0,0.0,0.0,0.0,0.0,0.0,0.0,0.0,0.0,0.0,0.0,0.0,0.0,0.0,0.0,0.0,0.0,0.0,0.0,0.0,0.0,0.0,0.0,0.0,0.0,0.0,0.0,0.0,0.0,0.0,0.0,0.0,-0.0586,-0.2294,-0.4238,-0.6272,-0.7936,-0.9423,0.0,0.0,0.0,0.0,0.0,0.0,0.0,0.0,0.0,0.0,0.0,0.0,0.0,0.0,0.0,0.0,0.0,0.0,0.0,0.0,0.0,0.0,0.0,0.0,0.0,0.0,0.0,0.0,0.0,0.0,0.0,0.0,0.0,0.0,0.0,0.0,0.0,0.0,0.0,0.0,0.0,0.0,0.0,0.0,0.0,0.0,0.0,0.0,0.0,0.0,0.0,0.0,0.0,0.0,0.0,0.0,0.0,0.0,0.0,0.0,0.0,0.0,0.0,0.0,0.0,0.0,0.0,0.0,0.0,0.0,0.0,0.0,0.0,0.0,0.0,0.0,0.0,0.0,0.0,0.0,0.0,0.0,0.0,0.0,0.0,0.0,0.0,0.0,0.0,0.0,0.0,0.0,0.0,0.0,0.0,0.0,0.0,0.0,0.0,0.0,0.0,0.0,0.0,0.0,0.0,0.0,0.0,0.0,0.0,0.0,0.0,-0.3855,-0.5621,-0.7434,-0.9057,0.0,0.0,0.0,0.0,0.0,0.0,0.0,0.0,0.0,0.0,0.0,0.0,0.0,0.0,0.0,0.0,0.0,0.0,0.0,0.0,0.0,0.0,0.0,0.0,0.0,0.0,0.0,0.0,0.0,0.0,0.0,0.0,0.0,0.0,0.0,0.0,0.0,0.0,0.0,0.0,0.0,0.0,0.0,0.0,0.0,0.0,0.0,0.0,0.0,0.0,0.0,0.0,0.0,0.0,0.0,0.0,0.0,0.0,0.0,0.0,0.0,0.0,0.0,0.0,0.0,0.0,0.0,0.0,0.0,0.0,0.0,0.0,0.0,0.0,0.0,0.0,0.0,0.0,0.0,0.0,0.0,0.0,0.0,0.0,0.0,0.0,0.0,0.0,0.0,0.0,0.0,0.0,0.0,0.0,0.0,0.0,0.0,0.0,0.0,0.0,0.0,0.0,0.0,0.0,0.0,0.0,0.0,0.0,0.0973,-0.0072,-0.1414,-0.3074,-0.5121,-0.6845,-0.8534,0.0,0.0,0.0,0.0,0.0,0.0,0.0,0.0,0.0,0.0,0.0,0.0,0.0,0.0,0.0,0.0,0.0,0.0,0.0,0.0,0.0,0.0,0.0,0.0,0.0,0.0,0.0,0.0,0.0,0.0,0.0,0.0,0.0,0.0,0.0,0.0,0.0,0.0,0.0,0.0,0.0,0.0,0.0,0.0,0.0,0.0,0.0,0.0,0.0,0.0,0.0,0.0,0.0,0.0,0.0,0.0,0.0,0.0,0.0,0.0,0.0,0.0,0.0,0.0,0.0,0.0,0.0,0.0,0.0,0.0,0.0,0.0,0.0,0.0,0.0,0.0,0.0,0.0,0.0,0.0,0.0,0.0,0.0,0.0,0.0,0.0,0.0,0.0,0.0,0.0,0.0,0.0,0.0,0.0,0.0,0.0,0.0,0.0,0.0,0.0,0.0,0.0,0.0,0.0,0.0,0.0,0.0,0.0,0.0,0.1168,-0.011,-0.1681,-0.3637,-0.5377,-0.7168,0.0,0.0,0.0,0.0,0.0,0.0,0.0,0.0,0.0,0.0,0.0,0.0,0.0,0.0,0.0,0.0,0.0,0.0,0.0,0.0,0.0,0.0,0.0,0.0,0.0,0.0,0.0,0.0,0.0,0.0,0.0,0.0,0.0,0.0,0.0,0.0,0.0,0.0,0.0,0.0,0.0,0.0,0.0,0.0,0.0,0.0,0.0,0.0,0.0,0.0,0.0,0.0,0.0,0.0,0.0,0.0,0.0,0.0,0.0,0.0,0.0,0.0,0.0,0.0,0.0,0.0,0.0,0.0,0.0,0.0,0.0,0.0,0.0,0.0,0.0,0.0,0.0,0.0,0.0,0.0,0.0,0.0,0.0,0.0,0.0,0.0,0.0,0.0,0.0,0.0,0.0,0.0,0.0,0.0,0.0,0.0,0.0,0.0,0.0,0.0,0.0,0.0,0.0,0.0,0.0,0.0,0.0,0.0,0.0,0.2852,0.1404,-0.0193,-0.2057,-0.383,-0.5779,-0.7983,0.0,0.0,0.0,0.0,0.0,0.0,0.0,0.0,0.0,0.0,0.0,0.0,0.0,0.0,0.0,0.0,0.0,0.0,0.0,0.0,0.0,0.0,0.0,0.0,0.0,0.0,0.0,0.0,0.0,0.0,0.0,0.0,0.0,0.0,0.0,0.0,0.0,0.0,0.0,0.0,0.0,0.0,0.0,0.0,0.0,0.0,0.0,0.0,0.0,0.0,0.0,0.0,0.0,0.0,0.0,0.0,0.0,0.0,0.0,0.0,0.0,0.0,0.0,0.0,0.0,0.0,0.0,0.0,0.0,0.0,0.0,0.0,0.0,0.0,0.0,0.0,0.0,0.0,0.0,0.0,0.0,0.0,0.0,0.0,0.0,0.0,0.0,0.0,0.0,0.0,0.0,0.0,0.0,0.0,0.0,0.0,0.0,0.0,0.0,0.0,0.0,0.0,0.0,0.0,0.0,0.0,0.0,0.0,0.4784,0.3087,0.1322,-0.043,-0.2238,-0.4391,0.0,0.0,0.0,0.0,0.0,0.0,0.0,0.0,0.0,0.0,0.0,0.0,0.0,0.0,0.0,0.0,0.0,0.0,0.0,0.0,0.0,0.0,0.0,0.0,0.0,0.0,0.0,0.0,0.0,0.0,0.0,0.0,0.0,0.0,0.0,0.0,0.0,0.0,0.0,0.0,0.0,0.0,0.0,0.0,0.0,0.0,0.0,0.0,0.0,0.0,0.0,0.0,0.0,0.0,0.0,0.0,0.0,0.0,0.0,0.0,0.0,0.0,0.0,0.0,0.0,0.0,0.0,0.0,0.0,0.0,0.0,0.0,0.0,0.0,0.0,0.0,0.0,0.0,0.0,0.0,0.0,0.0,0.0,0.0,0.0,0.0,0.0,0.0,0.0,0.0,0.0,0.0,0.0,0.0,0.0,0.0,0.0,0.0,0.0,0.0,0.0,0.0,0.0,0.0,0.0,0.0,0.0,0.0,0.0,0.5692,0.4762,0.3202,0.1162,-0.0806,-0.2957,0.0,0.0,0.0,0.0,0.0,0.0,0.0,0.0,0.0,0.0,0.0,0.0,0.0,0.0,0.0,0.0,0.0,0.0,0.0,0.0,0.0,0.0,0.0,0.0,0.0,0.0,0.0,0.0,0.0,0.0,0.0,0.0,0.0,0.0,0.0,0.0,0.0,0.0,0.0,0.0,0.0,0.0,0.0,0.0,0.0,0.0,0.0,0.0,0.0,0.0,0.0,0.0,0.0,0.0,0.0,0.0,0.0,0.0,0.0,0.0,0.0,0.0,0.0,0.0,0.0,0.0,0.0,0.0,0.0,0.0,0.0,0.0,0.0,0.0,0.0,0.0,0.0,0.0,0.0,0.0,0.0,0.0,0.0,0.0,0.0,0.0,0.0,0.0,0.0,0.0,0.0,0.0,0.0,0.0,0.0,0.0,0.0,0.0,0.0,0.0,0.0,0.0,0.0,0.0,0.0,0.0,0.0,0.0,0.6151,0.6075,0.5576,0.4412,0.2509,0.0392,-0.1947,0.0,0.0,0.0,0.0,0.0,0.0,0.0,0.0,0.0,0.0,0.0,0.0,0.0,0.0,0.0,0.0,0.0,0.0,0.0,0.0,0.0,0.0,0.0,0.0,0.0,0.0,0.0,0.0,0.0,0.0,0.0,0.0,0.0,0.0,0.0,0.0,0.0,0.0,0.0,0.0,0.0,0.0,0.0,0.0,0.0,0.0,0.0,0.0,0.0,0.0,0.0,0.0,0.0,0.0,0.0,0.0,0.0,0.0,0.0,0.0,0.0,0.0,0.0,0.0,0.0,0.0,0.0,0.0,0.0,0.0,0.0,0.0,0.0,0.0,0.0,0.0,0.0,0.0,0.0,0.0,0.0,0.0,0.0,0.0,0.0,0.0,0.0,0.0,0.0,0.0,0.0,0.0,0.0,0.0,0.0,0.0,0.0,0.0,0.0,0.0,0.0,0.0,0.0,0.0,0.0,0.0,0.0,0.0,0.6307,0.5962,0.5732,0.4902,0.3439,0.1241,-0.1331,0.0,0.0,0.0,0.0,0.0,0.0,0.0,0.0,0.0,0.0,0.0,0.0,0.0,0.0,0.0,0.0,0.0,0.0,0.0,0.0,0.0,0.0,0.0,0.0,0.0,0.0,0.0,0.0,0.0,0.0,0.0,0.0,0.0,0.0,0.0,0.0,0.0,0.0,0.0,0.0,0.0,0.0,0.0,0.0,0.0,0.0,0.0,0.0,0.0,0.0,0.0,0.0,0.0,0.0,0.0,0.0,0.0,0.0,0.0,0.0,0.0,0.0,0.0,0.0,0.0,0.0,0.0,0.0,0.0,0.0,0.0,0.0,0.0,0.0,0.0,0.0,0.0,0.0,0.0,0.0,0.0,0.0,0.0,0.0,0.0,0.0,0.0,0.0,0.0,0.0,0.0,0.0,0.0,0.0,0.0,0.0,0.0,0.0,0.0,0.0,0.0,0.0,0.0,0.0,0.0,0.0,0.0,0.0,0.6185,0.5826,0.5353,0.44,0.3064,0.12,-0.1026,0.0,0.0,0.0,0.0,0.0,0.0,0.0,0.0,0.0,0.0,0.0,0.0,0.0,0.0,0.0,0.0,0.0,0.0,0.0,0.0,0.0,0.0,0.0,0.0,0.0,0.0,0.0,0.0,0.0,0.0,0.0,0.0,0.0,0.0,0.0,0.0,0.0,0.0,0.0,0.0,0.0,0.0,0.0,0.0,0.0,0.0,0.0,0.0,-1.6132,0.0,0.0,0.0,0.0,0.0,0.0,0.0,0.0,0.0,0.0,0.0,0.0,0.0,0.0,0.0,0.0,0.0,0.0,0.0,0.0,0.0,0.0,0.0,0.0,0.0,0.0,0.0,0.0,0.0,0.0,0.0,0.0,0.0,0.0,0.0,0.0,0.0,0.0,0.0,0.0,0.0,0.0,0.0,0.0,0.0,0.0,0.0,0.0,0.0,0.0,0.0,0.0,0.0,0.0,0.0,0.0,0.0,0.0,0.0,0.6327,0.586,0.5284,0.4258,0.2684,0.0804,-0.1422,0.0,0.0,0.0,0.0,0.0,0.0,0.0,0.0,0.0,0.0,0.0,0.0,0.0,0.0,0.0,0.0,0.0,0.0,0.0,0.0,0.0,0.0,0.0,0.0,0.0,0.0,0.0,0.0,0.0,0.0,0.0,0.0,0.0,0.0,0.0,0.0,0.0,0.0,0.0,0.0,0.0,0.0,0.0,0.0,0.0,0.0,0.0,0.0,0.0,0.0,0.0,0.0,0.0,0.0,0.0,0.0,0.0,0.0,0.0,0.0,0.0,0.0,0.0,0.0,0.0,0.0,0.0,0.0,0.0,0.0,0.0,0.0,0.0,0.0,0.0,0.0,0.0,0.0,0.0,0.0,0.0,0.0,0.0,0.0,0.0,0.0,0.0,0.0,0.0,0.0,0.0,0.0,0.0,0.0,0.0,0.0,0.0,0.0,0.0,0.0,0.0,0.0,0.0,0.0,0.0,0.0,0.0,0.6552,0.6506,0.589,0.5295,0.4156,0.2394,0.0201,-0.2135,-0.4618,0.0,0.0,0.0,0.0,0.0,0.0,0.0,0.0,0.0,0.0,0.0,0.0,0.0,0.0,0.0,0.0,0.0,0.0,0.0,0.0,0.0,0.0,0.0,0.0,0.0,0.0,0.0,0.0,0.0,0.0,0.0,0.0,0.0,0.0,0.0,0.0,0.0,0.0,-0.9611,-0.8914,0.0,0.0,0.0,0.0,0.0,0.0,0.0,0.0,-1.7655,0.0,0.0,0.0,0.0,0.0,0.0,0.0,0.0,0.0,0.0,0.0,0.0,0.0,0.0,0.0,0.0,0.0,0.0,0.0,0.0,0.0,0.0,0.0,0.0,0.0,0.0,0.0,0.0,0.0,0.0,0.0,0.0,0.0,0.0,0.0,0.0,0.0,0.0,0.0,0.0,0.0,0.0,0.0,0.0,0.0,0.0,0.0,0.0,0.0,0.0,0.0,0.0,0.0,0.0,0.0,0.0,0.6491,0.6596,0.6392,0.588,0.4893,0.3641,0.2144,-0.0357,-0.2898,-0.5405,0.0,0.0,0.0,0.0,0.0,0.0,0.0,0.0,0.0,0.0,0.0,0.0,0.0,0.0,0.0,0.0,0.0,0.0,0.0,0.0,0.0,0.0,0.0,0.0,0.0,0.0,0.0,0.0,0.0,0.0,0.0,0.0,0.0,0.0,0.0,0.0,0.0,0.0,0.0,-0.8245,-0.8198,0.0,0.0,0.0,0.0,0.0,0.0,0.0,0.0,-1.8816,0.0,0.0,0.0,0.0,0.0,0.0,0.0,0.0,0.0,0.0,0.0,0.0,0.0,0.0,0.0,0.0,0.0,0.0,0.0,0.0,0.0,0.0,0.0,0.0,0.0,0.0,0.0,0.0,0.0,0.0,0.0,0.0,0.0,0.0,0.0,0.0,0.0,0.0,0.0,0.0,0.0,0.0,0.0,0.0,0.0,0.0,0.0,0.0,0.0,0.0,0.0,0.0,0.0,0.0,0.0,0.692,0.7192,0.6936,0.6018,0.4891,0.3513,0.1914,-0.0585,-0.304,0.0,0.0,0.0,0.0,0.0,0.0,0.0,0.0,0.0,0.0,0.0,0.0,0.0,0.0,0.0,0.0,0.0,0.0,0.0,0.0,0.0,0.0,0.0,0.0,0.0,0.0,0.0,0.0,0.0,0.0,0.0,0.0,0.0,0.0,0.0,0.0,0.0,0.0,0.0,0.0,-0.8246,-0.8318,-0.8212,0.0,0.0,0.0,0.0,0.0,0.0,-1.7054,-1.8448,0.0,0.0,0.0,0.0,0.0,0.0,0.0,0.0,0.0,0.0,0.0,0.0,0.0,0.0,0.0,0.0,0.0,0.0,0.0,0.0,0.0,0.0,0.0,0.0,0.0,0.0,0.0,0.0,0.0,0.0,0.0,0.0,0.0,0.0,0.0,0.0,0.0,0.0,0.0,0.0,0.0,0.0,0.0,0.0,0.0,0.0,0.0,0.0,0.0,0.0,0.0,0.0,0.0,0.0,0.0,0.7304,0.7839,0.7458,0.6149,0.5002,0.3603,0.1851,-0.0501,-0.2851,0.0,0.0,0.0,0.0,0.0,0.0,0.0,0.0,0.0,0.0,0.0,0.0,0.0,0.0,0.0,0.0,0.0,0.0,0.0,0.0,0.0,0.0,0.0,0.0,0.0,0.0,0.0,0.0,0.0,0.0,0.0,0.0,0.0,0.0,0.0,0.0,0.0,0.0,0.0,0.0,0.0,-0.8673,-0.8479,-0.94,0.0,0.0,0.0,0.0,-1.5394,-1.6695,0.0,0.0,0.0,0.0,0.0,0.0,0.0,0.0,0.0,0.0,0.0,0.0,0.0,0.0,0.0,0.0,0.0,0.0,0.0,0.0,0.0,0.0,0.0,0.0,0.0,0.0,0.0,0.0,0.0,0.0,0.0,0.0,0.0,0.0,0.0,0.0,0.0,0.0,0.0,0.0,0.0,0.0,0.0,0.0,0.0,0.0,0.0,0.0,0.0,0.0,0.0,0.0,0.0,0.0,0.0,0.0,0.7655,0.7988,0.7565,0.6318,0.5095,0.3763,0.2266,-0.0039,-0.2317,0.0,0.0,0.0,0.0,0.0,0.0,0.0,0.0,0.0,0.0,0.0,0.0,0.0,0.0,0.0,0.0,0.0,0.0,0.0,0.0,0.0,0.0,0.0,0.0,0.0,0.0,0.0,0.0,0.0,0.0,0.0,0.0,0.0,0.0,0.0,0.0,0.0,0.0,0.0,0.0,0.0,-0.9367,-0.9487,-0.982,-1.0592,0.0,0.0,-1.3356,-1.4846,-1.6365,0.0,0.0,0.0,0.0,0.0,0.0,0.0,0.0,0.0,0.0,0.0,0.0,0.0,0.0,0.0,0.0,0.0,0.0,0.0,0.0,0.0,0.0,0.0,0.0,0.0,0.0,0.0,0.0,0.0,0.0,0.0,0.0,0.0,0.0,0.0,0.0,0.0,0.0,0.0,0.0,0.0,0.0,0.0,0.0,0.0,0.0,0.0,0.0,0.0,0.0,0.0,0.0,0.0,0.0,0.0,0.7311,0.754,0.817,0.7792,0.6366,0.5215,0.3956,0.2548,0.049,-0.1574,0.0,0.0,0.0,0.0,0.0,0.0,0.0,0.0,0.0,0.0,0.0,0.0,0.0,0.0,0.0,0.0,0.0,0.0,0.0,0.0,0.0,0.0,0.0,0.0,0.0,0.0,0.0,0.0,0.0,0.0,0.0,0.0,0.0,0.0,0.0,0.0,0.0,0.0,0.0,0.0,0.0,0.0,-0.9952,-0.9958,0.0,0.0,0.0,-1.3557,-1.5049,0.0,0.0,0.0,0.0,0.0,0.0,0.0,0.0,0.0,0.0,0.0,0.0,0.0,0.0,0.0,0.0,0.0,0.0,0.0,0.0,0.0,0.0,0.0,0.0,0.0,0.0,0.0,0.0,0.0,0.0,0.0,0.0,0.0,0.0,0.0,0.0,0.0,0.0,0.0,0.0,0.0,0.0,0.0,0.0,0.0,0.0,0.0,0.0,0.0,0.0,0.0,0.0,0.0,0.0,0.0,0.0,0.0,0.722,0.801,0.775,0.6377,0.538,0.4308,0.3119,0.13,0.0,0.0,0.0,0.0,0.0,0.0,0.0,0.0,0.0,0.0,0.0,0.0,0.0,0.0,0.0,0.0,0.0,0.0,0.0,0.0,0.0,0.0,0.0,0.0,0.0,0.0,0.0,-0.7123,0.0,0.0,0.0,0.0,0.0,0.0,0.0,0.0,0.0,0.0,0.0,0.0,0.0,0.0,-0.9406,-1.0136,-0.9988,-1.035,0.0,0.0,-1.3624,-1.4964,-1.6114,-1.7518,0.0,0.0,0.0,0.0,0.0,0.0,0.0,0.0,0.0,0.0,0.0,0.0,0.0,0.0,0.0,0.0,0.0,0.0,0.0,0.0,0.0,0.0,0.0,0.0,0.0,0.0,0.0,0.0,0.0,0.0,0.0,0.0,0.0,0.0,0.0,0.0,0.0,0.0,0.0,0.0,0.0,0.0,0.0,0.0,0.0,0.0,0.0,0.0,0.0,0.0,0.0,0.0,0.0,0.0,0.6256,0.6675,0.7315,0.7176,0.6142,0.5602,0.5,0.4176,0.2415,0.0816,0.0,0.0,0.0,0.0,0.0,0.0,0.0,0.0,0.0,0.0,0.0,0.0,0.0,0.0,0.0,0.0,0.0,0.0,0.0,0.0,0.0,0.0,0.0,0.0,0.0,0.0,0.0,0.0,0.0,0.0,0.0,0.0,0.0,0.0,0.0,0.0,0.0,0.0,0.0,0.0,0.0,-0.9526,-0.9953,-0.9869,-1.0241,0.0,-1.2326,-1.3251,-1.4271,-1.5925,-1.7661,-1.9262,0.0,0.0,0.0,0.0,0.0,0.0,0.0,0.0,0.0,0.0,0.0,0.0,0.0,0.0,0.0,0.0,0.0,0.0,0.0,0.0,0.0,0.0,0.0,0.0,0.0,0.0,0.0,0.0,0.0,0.0,0.0,0.0,0.0,0.0,0.0,0.0,0.0,0.0,0.0,0.0,0.0,0.0,0.0,0.0,0.0,0.0,0.0,0.0,0.0,0.0,0.0,0.0,0.0,0.5744,0.6108,0.675,0.673,0.613,0.5602,0.5067,0.4501,0.3393,0.2119,0.0,0.0,0.0,0.0,0.0,0.0,0.0,0.0,0.0,0.0,0.0,0.0,0.0,0.0,0.0,0.0,0.0,0.0,0.0,0.0,0.0,0.0,0.0,0.0,0.0,0.0,0.0,0.0,-0.7672,-0.851,-0.9697,0.0,0.0,0.0,0.0,0.0,0.0,0.0,0.0,0.0,0.0,-0.8999,-0.9294,-1.0008,0.0,0.0,-1.3845,-1.5332,-1.6297,-1.7497,-1.8737,-1.9877,-2.0446,0.0,0.0,0.0,0.0,0.0,0.0,0.0,0.0,0.0,0.0,0.0,0.0,0.0,0.0,0.0,0.0,0.0,0.0,0.0,0.0,0.0,0.0,0.0,0.0,0.0,0.0,0.0,0.0,0.0,0.0,0.0,0.0,0.0,0.0,0.0,0.0,0.0,0.0,0.0,0.0,0.0,0.0,0.0,0.0,0.0,0.0,0.0,0.0,0.0,0.0,0.0,0.0,0.5111,0.5548,0.6124,0.6281,0.5966,0.5627,0.5278,0.4896,0.4121,0.3224,0.0,0.0,0.0,0.0,0.0,0.0,0.0,0.0,0.0,0.0,0.0,0.0,0.0,0.0,0.0,0.0,0.0,0.0,0.0,0.0,0.0,0.0,0.0,0.0,0.0,0.0,0.0,0.0,-0.7847,-0.884,-0.9612,0.0,0.0,0.0,0.0,0.0,0.0,0.0,0.0,0.0,0.0,-0.8605,-0.8983,-1.0084,-1.127,-1.2394,-1.4368,-1.6146,-1.7288,-1.8131,-1.9089,-2.0336,0.0,0.0,0.0,0.0,0.0,0.0,0.0,0.0,0.0,0.0,0.0,0.0,0.0,0.0,0.0,0.0,0.0,0.0,0.0,0.0,0.0,0.0,0.0,0.0,0.0,0.0,0.0,0.7252,0.0,0.0,0.6667,0.0,0.0,0.0,0.0,0.0,0.0,0.0,0.0,0.0,0.0,0.0,0.0,0.0,0.0,0.0,0.0,0.0,0.0,0.0,0.0,0.0,0.0,0.4338,0.4939,0.5542,0.5748,0.5631,0.5722,0.5718,0.552,0.4685,0.4064,0.3795,0.0,0.0,0.0,0.0,0.0,0.0,0.0,0.0,0.0,0.0,0.0,0.0,0.0,0.0,0.0,0.0,0.0,0.0,0.0,0.0,0.0,0.0,0.0,0.0,0.0,0.0,-0.7189,-0.8236,-0.8909,0.0,0.0,0.0,0.0,0.0,0.0,0.0,0.0,0.0,-0.8779,-0.8424,-0.8496,-0.9183,-1.0008,-1.0963,-1.1932,-1.3435,-1.5009,-1.6509,-1.7304,-1.8465,0.0,0.0,0.0,0.0,0.0,0.0,0.0,0.0,0.0,0.0,0.0,0.0,0.0,0.0,0.0,0.0,0.0,0.0,0.0,0.0,0.0,0.0,0.0,0.0,0.0,0.0,0.0,0.9066,0.8738,0.0,0.0,0.0,0.0,0.0,0.0,0.0,0.0,0.0,0.0,0.0,0.8995,0.8702,0.0,0.0,0.0,0.0,0.0,0.0,0.0,0.0,0.0,0.0,0.0,0.0,0.4526,0.5077,0.5464,0.5696,0.5718,0.5617,0.5521,0.5474,0.5117,0.4663,0.4094,0.0,0.0,0.0,0.0,0.0,0.0,0.0,0.0,0.0,0.0,0.0,0.0,0.0,0.0,0.0,0.0,0.0,0.0,0.0,0.0,0.0,0.0,0.0,0.0,0.0,-0.6448,0.0,0.0,0.0,0.0,0.0,0.0,0.0,0.0,0.0,0.0,-0.8091,-0.815,-0.7767,-0.8161,-0.8713,-0.9348,-1.071,-1.2216,0.0,0.0,0.0,0.0,0.0,0.0,0.0,0.0,0.0,0.0,0.0,0.0,0.0,0.0,-2.7979,-2.7703,-2.8023,-2.8328,-2.8314,0.0,0.0,0.0,0.0,0.0,0.0,0.0,0.0,0.0,0.0,0.0,0.0,0.0,0.0,1.0636,1.0421,0.9674,0.0,0.0,0.0,0.0,0.0,0.0,0.0,0.0,0.9946,1.0228,1.0475,1.0106,0.9818,0.0,0.9051,0.7575,0.0,0.0,0.0,0.0,0.0,0.0,0.0,0.0,0.4708,0.5148,0.5502,0.5705,0.5734,0.5579,0.545,0.5399,0.5402,0.5174,0.469,0.4069,0.318,0.0,0.0,0.0,0.0,0.0,0.0,0.0,0.0,0.0,0.0,0.0,0.0,0.0,0.0,0.0,0.0,0.0,0.0,0.0,0.0,0.0,0.0,0.0,-0.5965,0.0,0.0,0.0,0.0,0.0,0.0,0.0,0.0,0.0,-0.7068,-0.7247,-0.7442,-0.7396,-0.8108,-0.8894,-0.9545,0.0,0.0,0.0,0.0,0.0,0.0,0.0,-1.9545,-2.0588,-2.1457,-2.2486,-2.4003,-2.5497,-2.6688,-2.7313,0.0,0.0,-2.8086,-2.8534,-2.9039,-2.9059,-2.9686,-3.0283,-3.05,-3.0716,-3.0574,0.0,0.0,0.0,0.0,1.2384,0.0,0.0,0.0,1.2291,1.2284,0.0,1.1552,0.0,0.0,0.0,0.0,1.0255,1.0261,0.0,0.0,1.1339,1.1349,1.1105,1.1345,1.1031,1.0179,0.9854,0.9066,0.79,0.6888,0.0,0.0,0.0,0.0,0.0,0.0,0.485,0.5147,0.5574,0.5739,0.5608,0.5607,0.5542,0.5405,0.5549,0.5599,0.5568,0.5027,0.4576,0.4239,0.2404,0.0,0.0,0.0,0.0,0.0,0.0,0.0,0.0,0.0,0.0,0.0,0.0,0.0,0.0,0.0,0.0,0.0,0.0,0.0,0.0,-0.4696,0.0,0.0,0.0,0.0,0.0,0.0,0.0,0.0,0.0,-0.6963,-0.7255,-0.713,-0.7146,-0.7567,0.0,0.0,0.0,0.0,-1.2081,-1.312,-1.419,-1.5399,-1.6753,-1.7862,-1.9212,-2.1041,0.0,0.0,-2.5521,-2.6184,-2.6658,-2.7215,-2.8411,-2.9188,-2.8624,-2.916,-2.9739,-2.9915,-3.0548,-3.1144,-3.1486,-3.1142,-3.0511,1.5123,0.0,0.0,0.0,0.0,1.3801,1.433,1.5168,1.5032,1.5282,1.5779,1.5038,0.0,0.0,0.0,0.0,0.0,0.0,1.1923,1.2787,1.24,1.2261,1.2273,1.214,1.1935,1.1657,1.1578,1.112,1.0367,0.99,0.8265,0.5506,0.0,0.0,0.0,0.0,0.5509,0.575,0.596,0.5952,0.575,0.5656,0.5533,0.5395,0.5644,0.5739,0.5742,0.5801,0.5767,0.5608,0.4063,0.0,0.0,0.0,0.0,0.0,0.0,0.0,0.0,0.0,0.0,0.0,0.0,0.0,0.0,0.0,0.0,0.0,0.0,0.0,-0.3196,-0.4015,-0.4802,0.0,0.0,0.0,0.0,0.0,0.0,0.0,0.0,0.0,-0.6348,-0.6499,-0.6605,0.0,0.0,-0.8965,-0.9792,-1.0999,-1.2258,-1.3469,-1.4521,0.0,-1.736,-1.7915,-1.8801,-2.0606,-2.2089,-2.3454,-2.4685,-2.5668,-2.6571,-2.7424,-2.8176,-2.8753,-2.9107,-3.0108,-3.1051,-3.1612,-3.1862,-3.2038,-3.2287,-3.2133,-3.1551,1.6574,1.6425,1.5668,1.5404,1.5535,1.5814,1.619,1.6599,1.6869,1.7171,1.7431,1.6936,1.6355,1.562,1.4358,0.0,0.0,0.0,1.3283,1.3818,1.3393,1.3196,1.3169,1.2883,1.2702,1.2689,1.2506,1.1998,1.1215,1.1175,0.9898,0.7509,0.0,0.6356,0.584,0.5911,0.5987,0.6029,0.6154,0.6129,0.5962,0.5729,0.5549,0.5487,0.5603,0.5743,0.5994,0.6448,0.6753,0.681,0.5982,0.4919,0.0,0.0,0.0,0.0,0.0,0.0,0.0,0.0,0.0,0.0,0.0,-0.3366,-0.2897,0.0,0.0,0.0,-0.1854,-0.1879,-0.2032,-0.3004,0.0,0.0,0.0,0.0,0.0,0.0,0.0,-0.6457,-0.5867,-0.5596,-0.59,-0.6087,-0.6296,-0.6547,-0.7639,-0.8781,-0.9642,0.0,-1.1895,-1.3128,-1.4052,-1.5145,-1.6753,-1.7347,-1.8384,-2.0651,-2.2511,-2.386,-2.458,-2.5721,-2.6768,-2.7481,-2.8045,-2.8659,-2.9536,-3.0368,-3.1136,-3.1848,-3.2212,-3.241,-3.2642,-3.2252,-3.1466,1.7863,1.7957,1.7201,1.6955,1.722,1.7929,1.7895,1.745,1.808,1.8277,1.8099,1.7895,1.7617,1.7322,1.5813,0.0,1.4756,1.4677,1.4556,1.4419,1.4328,1.4137,1.3832,1.3529,1.3313,1.3223,1.282,1.2101,1.12,1.1198,1.0755,0.9941,0.8848,0.7601,0.6307,0.6375,0.6358,0.6154,0.6197,0.6214,0.6181,0.5815,0.5587,0.5597,0.5457,0.5728,0.6342,0.6973,0.7524,0.7977,0.7985,0.7146,0.536,0.0,0.0,0.0,0.0,0.0,0.0,0.0,0.0,0.0,0.0,0.0,0.0,0.0,0.0,-0.1014,-0.0897,0.0,-0.0606,-0.1891,0.0,0.0,0.0,-0.6018,-0.6483,-0.6282,-0.6033,-0.5779,0.0,0.0,-0.5707,-0.5811,-0.6143,-0.6805,-0.7607,-0.8457,-0.9428,-1.0267,-1.1186,-1.2399,-1.3119,-1.4021,-1.5539,-1.6661,-1.8283,-2.0788,-2.3126,-2.4482,-2.487,-2.5926,-2.6925,-2.7324,-2.7886,-2.8584,-2.9832,-2.9819,-3.0052,-3.0778,-3.1655,-3.2315,-3.2247,-3.1367,-3.02,1.7652,1.7765,1.81,1.7715,1.6942,1.7528,1.8187,1.8812,1.9291,2.0035,2.0885,2.0339,1.907,1.7251,1.6231,1.585,1.5956,1.53,1.5494,1.6338,1.5476,1.4808,1.4313,1.3992,1.3543,1.3021,1.2618,1.2447,1.2403,1.1605,1.1214,1.1187,1.0355,0.9311,0.8079,0.7806,0.7298,0.6547,0.6436,0.6284,0.6214,0.5815,0.5568,0.5577,0.553,0.5955,0.7029,0.7327,0.82,0.9718,0.8476,0.7468,0.6939,0.5033,0.0,0.0,0.0,0.0,0.0,0.0,0.0,0.0,0.0,-0.101,-0.0848,0.0,-0.0174,0.0,-0.0251,-0.0334,-0.0581,-0.1804,0.0,0.0,-0.4691,-0.5553,-0.5789,-0.5631,-0.5458,-0.5292,-0.5081,-0.5014,-0.5242,-0.5538,-0.5852,-0.6116,-0.6849,-0.7838,-0.9151,-0.9975,-1.0821,-1.1974,-1.2989,-1.3998,-1.5111,-1.7329,-1.9199,-2.0049,-2.1957,-2.3561,-2.4341,-2.5091,-2.5841,-2.6445,-2.6992,-2.7499,-2.7971,-2.8124,-2.8252,-2.8525,-3.0,-3.1173,-3.047,-2.9275,-2.8009,1.804,1.817,1.8443,1.8032,1.7152,1.7772,1.8398,1.8962,1.9462,2.0248,2.1195,2.084,1.9683,1.801,1.7261,1.6955,1.7,1.6427,1.6435,1.6836,1.6192,1.5585,1.5013,1.4524,1.4042,1.3644,1.3042,1.2806,1.2791,1.2194,1.198,1.2177,1.1801,1.1128,1.0166,0.9086,0.8183,0.7527,0.6954,0.6507,0.6222,0.6018,0.5958,0.5929,0.5862,0.6361,0.7453,0.7941,0.8862,1.0142,0.9441,0.8735,0.8091,0.6549,0.5102,0.0,0.0,0.0,0.0,0.0,0.0,0.0,0.0,0.0,0.0,0.0,0.0609,0.029,0.0184,-0.0038,-0.0431,-0.1626,-0.2586,-0.3207,-0.4304,-0.509,-0.5326,-0.5249,-0.5118,-0.4994,-0.4871,-0.4886,-0.5129,-0.5419,-0.5851,-0.6373,-0.6827,-0.7612,-0.9041,-0.9814,-1.0669,-1.1929,-1.3025,-1.4209,-1.5419,-1.7484,-1.9093,-1.9587,-2.117,-2.2735,-2.3261,-2.415,-2.4945,-2.5351,-2.5649,-2.5987,-2.6365,-2.6526,-2.6682,-2.7123,-2.8061,-2.8723,-2.8405,-2.7278,-2.6117,1.8581,1.868,1.855,1.8129,1.7668,1.8263,1.8562,1.8661,1.9337,1.9928,2.0467,2.0366,1.9851,1.9079,1.8311,1.7845,1.7591,1.7274,1.6862,1.6383,1.6462,1.6166,1.5525,1.498,1.4597,1.443,1.3534,1.2992,1.2805,1.265,1.2692,1.284,1.2869,1.2671,1.2124,1.034,0.9124,0.8519,0.7522,0.68,0.6287,0.6376,0.641,0.6404,0.6313,0.6804,0.7928,0.8752,0.9444,1.0104,1.0541,1.0224,0.9002,0.8078,0.703,0.0,0.5219,0.0,0.0,0.0,0.0,0.0,0.0,0.0,0.0,0.1769,0.1259,0.0835,0.0494,0.0192,-0.0157,-0.1294,-0.2272,-0.2937,-0.3954,-0.4662,-0.4979,-0.5018,-0.5007,-0.4957,-0.4932,-0.5064,-0.5469,-0.5625,-0.6185,-0.7134,-0.7413,-0.8019,-0.925,-0.9898,-1.0707,-1.2155,-1.3187,-1.4346,-1.5909,-1.7271,-1.8309,-1.9104,-2.0787,-2.205,-2.2197,-2.3346,-2.4272,-2.4305,-2.4525,-2.4739,-2.5207,-2.5304,-2.5481,-2.5945,-2.6089,-2.6161,-2.6206,-2.5506,-2.4539,1.8478,1.8076,1.8364,1.8385,1.8216,1.8094,1.8438,1.9238,2.0379,2.082,2.0781,2.0378,2.001,1.9478,1.8145,1.7161,1.6439,1.5568,1.512,1.5069,1.5735,1.5592,1.4863,1.5056,1.4655,1.3694,1.2958,1.2735,1.2938,1.2296,1.2325,1.2911,1.2611,1.27,1.3143,0.0,0.0,0.0,0.7667,0.7044,0.6623,0.6618,0.6547,0.6421,0.6633,0.0,0.8791,0.928,1.0064,1.1242,1.0827,0.0,0.0,0.0,0.0,0.0,0.0,0.0,0.0,0.0,0.0,0.0,0.6086,0.5065,0.3542,0.2531,0.1934,0.1864,0.1092,0.0508,0.0432,-0.051,-0.1488,-0.2308,-0.3324,-0.4226,-0.4898,-0.5018,-0.5197,-0.5775,-0.5662,-0.5902,-0.677,-0.7071,-0.733,-0.7888,-0.8411,-0.9178,-1.0317,-1.0485,-1.1102,-1.2516,-1.3437,-1.4199,-1.5151,-1.6445,-1.765,-1.8952,-2.0673,-2.1823,-2.2137,-2.3158,-2.4075,-2.403,-2.4519,-2.478,-2.4664,-2.4924,-2.4893,-2.4488,-2.4164,-2.4019,-2.4215,-2.3737,-2.2906,1.8316,1.833,1.8202,1.8362,0.0,1.8809,1.9231,1.9918,2.0178,2.0473,2.0673,2.0349,1.9944,1.9404,1.8449,1.7712,1.7219,1.657,1.6131,1.5833,1.6219,1.5947,1.5128,1.4834,1.4477,1.4027,1.3162,1.284,1.2974,1.2771,1.2799,1.3157,1.292,1.3071,1.3601,1.2267,1.0629,0.8764,0.7964,0.7303,0.6831,0.6814,0.6747,0.6651,0.7069,0.0,0.0,0.0,0.0,0.0,0.0,0.0,0.0,1.0272,0.0,0.9701,0.9701,0.98,0.9967,0.9558,0.9102,0.8852,0.7924,0.6474,0.427,0.376,0.3374,0.3034,0.2102,0.1491,0.1373,0.0196,-0.0822,-0.1409,-0.2735,-0.3752,-0.4224,-0.5046,-0.5719,-0.6087,-0.6258,-0.6579,-0.7216,-0.7276,-0.7608,-0.8263,-0.8687,-0.9351,-1.0452,-1.0919,-1.1634,-1.3259,-1.3574,-1.4021,-1.4953,-1.5654,-1.6472,-1.749,-1.8818,-1.9786,-2.0055,-2.1345,-2.2276,-2.2092,-2.288,-2.3569,-2.322,-2.3491,-2.3651,-2.308,-2.2941,-2.2761,-2.2395,-2.2203,-2.2066,1.8648,1.9027,1.8477,1.875,1.9579,1.988,2.0292,2.0672,2.0002,0.0,0.0,2.0282,1.9821,1.9248,1.8718,1.8308,1.8014,1.7672,1.7076,1.6373,1.6511,1.6131,1.5305,1.4544,1.4253,1.4371,1.3527,1.3031,1.2978,1.3293,1.3364,1.3189,1.3204,1.3349,1.3394,1.1605,1.0113,0.9117,0.8229,0.7544,0.6983,0.6983,0.7009,0.6941,0.7484,0.8121,0.8872,0.9686,1.0497,1.123,1.1287,1.1299,1.1345,1.1179,1.1023,1.0915,1.0909,1.1028,1.1348,1.0825,1.0485,1.0604,0.9173,0.7377,0.5215,0.5043,0.4777,0.408,0.3208,0.2593,0.2284,0.0967,-0.0077,-0.0541,-0.2085,-0.3167,-0.349,-0.4977,-0.6076,-0.6353,-0.6766,-0.7182,-0.7566,-0.7619,-0.7811,-0.8594,-0.8944,-0.9265,-1.0365,-1.1201,-1.217,-1.3437,-1.3572,-1.3843,-1.4655,-1.5005,-1.5289,-1.5985,-1.6991,-1.7665,-1.8038,-1.9193,-1.997,-1.9886,-2.0868,-2.1498,-2.1443,-2.1903,-2.2164,-2.1861,-2.2206,-2.2255,-2.1347,-2.1361,-2.169,2.044,2.0258,2.0014,2.0466,2.1304,2.1043,2.1194,2.1586,2.1077,2.0818,2.0734,2.0301,1.9891,1.9489,1.845,1.7641,1.6982,1.6044,1.5138,1.4364,1.4975,1.4743,1.3876,1.4311,1.4204,1.3666,1.3484,1.3211,1.2892,1.3165,1.3084,1.2714,1.2889,1.2859,1.2384,1.0805,0.9754,0.9417,0.8357,0.758,0.7154,0.7313,0.7344,0.7184,0.7717,0.8165,0.847,0.8951,0.9314,0.9626,1.0444,1.0947,1.1162,1.2008,1.2504,1.2396,1.2403,1.2284,1.2058,1.1703,1.1083,1.0153,0.946,0.8493,0.7264,0.6035,0.5223,0.4901,0.4031,0.3154,0.2536,0.1916,0.0995,-0.0294,-0.136,-0.2409,-0.3364,-0.4723,-0.5918,-0.6808,-0.7287,-0.7886,-0.8603,-0.8877,-0.9034,-0.9473,-0.9473,-0.9849,-1.0363,-1.1541,-1.2343,-1.2685,-1.3088,-1.3532,-1.3912,-1.4096,-1.4609,-1.5753,-1.6436,-1.7111,-1.7649,-1.8469,-1.9009,-1.9044,-1.9427,-1.9759,-2.0105,-2.0684,-2.1103,-2.1463,-2.1885,-2.2126,-2.1736,-2.1809,-2.177,2.0906,2.075,2.0453,2.0762,2.1537,2.1318,2.1318,2.1373,2.0669,2.0478,2.0509,2.0017,1.955,1.9128,1.8494,1.8037,1.7681,1.7207,1.6339,1.5272,1.5549,1.5122,1.4183,1.425,1.4258,1.4103,1.3901,1.3545,1.3055,1.3271,1.3157,1.2687,1.2731,1.2183,1.0975,1.026,0.9607,0.8942,0.8193,0.7653,0.737,0.7348,0.7297,0.7204,0.7758,0.8161,0.8412,0.8958,0.9427,0.9759,1.0231,1.0748,1.1309,1.1503,1.1869,1.2504,1.2248,1.2073,1.2111,1.1791,1.1437,1.1054,1.0242,0.9558,0.9035,0.7619,0.6654,0.6359,0.5202,0.4099,0.3268,0.2617,0.1601,0.0036,-0.1018,-0.201,-0.3059,-0.4896,-0.6287,-0.6877,-0.7748,-0.8497,-0.8972,-0.9047,-0.9162,-0.9331,-0.9441,-0.9549,-0.9695,-1.0434,-1.1278,-1.1909,-1.228,-1.2539,-1.2878,-1.3246,-1.3765,-1.4535,-1.5178,-1.5834,-1.6545,-1.7312,-1.7772,-1.7766,-1.8315,-1.8924,-1.9144,-1.9484,-1.9817,-1.9863,-2.0532,-2.0743,-2.0334,-2.0465,-2.1033,2.1761,2.166,2.1243,2.138,2.1768,2.1676,2.1476,2.1104,2.0222,1.999,2.0158,1.9671,1.9179,1.8795,1.865,1.8549,1.8492,1.8412,1.7668,1.6483,1.6307,1.5721,1.4765,1.4514,1.4545,1.4682,1.4453,1.394,1.3355,1.3405,1.322,1.2739,1.2419,1.1488,1.0104,0.9892,0.9402,0.863,0.8192,0.7831,0.7629,0.7461,0.7335,0.7302,0.7661,0.7964,0.8225,0.8693,0.9175,0.9565,0.9706,1.0125,1.0848,1.0572,1.0844,1.1749,1.1418,1.1182,1.1365,1.1305,1.1271,1.1397,1.0808,1.0313,0.998,0.8906,0.7944,0.7371,0.6137,0.4909,0.3947,0.3207,0.2006,0.0324,-0.0793,-0.1736,-0.2687,-0.4938,-0.6542,-0.6674,-0.7864,-0.8748,-0.8706,-0.8761,-0.8922,-0.9081,-0.9082,-0.9064,-0.9065,-0.9254,-0.9895,-1.0738,-1.1193,-1.1453,-1.1781,-1.2181,-1.2692,-1.3248,-1.38,-1.4476,-1.5188,-1.6041,-1.6478,-1.642,-1.7222,-1.7858,-1.7921,-1.8321,-1.8539,-1.8577,-1.9196,-1.9416,-1.8856,-1.9189,-2.003,2.4043,2.3857,2.352,2.3269,2.2889,2.2476,2.1935,2.1288,2.0408,1.9917,1.9803,1.9334,1.9047,1.8808,1.8785,1.8684,1.8512,1.818,1.7617,1.6793,1.6387,1.5777,1.5127,1.5333,1.5333,1.508,1.5004,1.4564,1.37,1.3437,1.3078,1.2562,1.1665,1.1122,1.0776,0.9714,0.9077,0.8958,0.863,0.8268,0.7987,0.7949,0.7792,0.7456,0.7526,0.7563,0.7625,0.7469,0.7533,0.7769,0.8297,0.8788,0.9225,0.9658,1.0037,1.0215,1.0016,0.9797,0.963,1.0098,1.0315,1.0085,1.0653,1.0574,0.9673,0.9097,0.8407,0.7551,0.6622,0.5476,0.4182,0.3587,0.2399,0.028,-0.0738,-0.1597,-0.2735,-0.4683,-0.6052,-0.6066,-0.7494,-0.8366,-0.8145,-0.8433,-0.8856,-0.9043,-0.8894,-0.8779,-0.8753,-0.8623,-0.8658,-0.918,-0.9748,-1.039,-1.0787,-1.0878,-1.1629,-1.2506,-1.2861,-1.3498,-1.4295,-1.4552,-1.4541,-1.5558,-1.5668,-1.6029,-1.6595,-1.7186,-1.7675,-1.7804,-1.8336,-1.896,-1.8901,-1.8976,-1.9426,2.4687,2.4015,2.4249,2.4135,2.3691,2.2972,2.2211,2.1559,2.1056,2.0331,1.9604,1.9751,1.9548,1.8975,1.8975,1.8942,1.8872,1.8992,1.8367,1.7261,1.7254,1.6767,1.5842,1.5897,1.5787,1.5474,1.5451,1.4956,1.4041,1.3435,1.282,1.2166,1.1677,1.1334,1.0958,1.0199,0.976,0.976,0.9323,0.8931,0.8571,0.8177,0.7922,0.7787,0.7619,0.7493,0.7474,0.7299,0.7285,0.7478,0.7492,0.7778,0.8478,0.8371,0.8671,0.9402,0.9558,0.955,0.9422,0.9614,0.9678,0.962,0.9782,0.9665,0.9236,0.8603,0.7997,0.7508,0.6773,0.5679,0.4215,0.3611,0.2321,0.0068,-0.1026,-0.1823,-0.2911,-0.4219,-0.5302,-0.5914,-0.699,-0.7894,-0.8101,-0.8153,-0.8226,-0.8334,-0.8222,-0.8176,-0.8397,-0.8293,-0.8167,-0.8203,-0.8571,-0.935,-1.0257,-1.0694,-1.1317,-1.2218,-1.2706,-1.314,-1.3771,-1.3989,-1.4143,-1.4755,-1.4846,-1.4903,-1.5176,-1.5911,-1.6516,-1.6764,-1.7102,-1.7585,-1.7572,-1.8097,-1.8681,2.5171,2.4429,2.4891,2.4862,2.4404,2.3471,2.2638,2.1949,2.1415,2.0523,1.9611,1.9945,1.9741,1.916,1.9098,1.9098,1.9147,1.9469,1.9047,1.7987,1.8053,1.7561,1.6724,1.6421,1.6222,1.5968,1.5769,1.5133,1.4156,1.3529,1.2891,1.2348,1.2052,1.1755,1.1322,1.0798,1.0428,1.0269,0.9894,0.9542,0.9113,0.8565,0.8247,0.8117,0.7819,0.7652,0.7614,0.7273,0.7199,0.7384,0.6932,0.6978,0.7721,0.733,0.7547,0.8531,0.8854,0.8935,0.8967,0.9043,0.9107,0.9139,0.9075,0.8979,0.8678,0.8096,0.7582,0.7228,0.6576,0.5481,0.4314,0.3511,0.208,-0.0237,-0.1088,-0.1834,-0.2929,-0.3929,-0.4809,-0.5399,-0.6261,-0.7153,-0.7674,-0.7501,-0.7265,-0.7409,-0.7394,-0.7465,-0.7857,-0.7856,-0.7745,-0.7695,-0.7815,-0.8494,-0.9847,-1.0336,-1.1007,-1.1807,-1.2276,-1.2725,-1.3341,-1.3419,-1.3658,-1.4084,-1.4314,-1.4592,-1.4787,-1.5256,-1.5683,-1.5551,-1.5946,-1.658,-1.6782,-1.7352,-1.8116,2.5748,2.5537,2.5768,2.5557,2.5065,2.4087,2.3324,2.2654,2.1366,2.045,2.0041,1.9653,1.9281,1.9108,1.9129,1.9108,1.9111,1.9253,1.9226,1.8976,1.8381,1.7977,1.7851,1.7107,1.6642,1.65,1.5936,1.517,1.414,1.3785,1.3586,1.3472,1.2758,1.2298,1.2141,1.147,1.0769,1.0523,1.0339,1.0015,0.951,0.9151,0.8797,0.8511,0.8149,0.7987,0.7914,0.7238,0.7005,0.7204,0.6721,0.653,0.6854,0.6834,0.7041,0.7459,0.7587,0.7652,0.7749,0.8199,0.8458,0.8393,0.8818,0.892,0.8144,0.7809,0.7419,0.6806,0.5976,0.508,0.4353,0.3487,0.2168,0.0208,-0.0591,-0.1459,-0.2681,-0.3728,-0.4406,-0.4593,-0.5502,-0.6293,-0.6494,-0.625,-0.6346,-0.6557,-0.6617,-0.6705,-0.7066,-0.7126,-0.7259,-0.7535,-0.7723,-0.8031,-0.8922,-0.9684,-1.0295,-1.1049,-1.1801,-1.2166,-1.2437,-1.272,-1.3098,-1.3375,-1.3494,-1.3839,-1.4445,-1.4903,-1.5266,-1.5448,-1.5755,-1.6187,-1.6391,-1.6571,-1.7486,2.5853,2.579,2.5557,2.5491,2.5557,2.4923,2.4174,2.3346,2.2675,2.1629,2.0589,2.0569,2.0111,1.9218,1.9453,1.9388,1.9168,1.9701,1.9703,1.9246,1.8937,1.855,1.7917,1.7131,1.6562,1.6341,1.5896,1.5282,1.4612,1.4595,1.4555,1.4246,1.3728,1.3451,1.3291,1.2578,1.2058,1.181,1.1101,1.0534,1.025,0.9658,0.9253,0.913,0.8608,0.8322,0.8317,0.8126,0.8124,0.8361,0.8155,0.805,0.8012,0.777,0.7783,0.7996,0.7896,0.7819,0.7819,0.7847,0.7809,0.7782,0.7972,0.8009,0.7591,0.7396,0.7199,0.6708,0.5573,0.471,0.4314,0.3351,0.2056,0.0714,-0.0136,-0.0955,-0.1975,-0.2754,-0.3402,-0.4306,-0.5384,-0.5972,-0.5603,-0.5514,-0.5569,-0.5691,-0.561,-0.5779,-0.6183,-0.6554,-0.6885,-0.7062,-0.7402,-0.7836,-0.8156,-0.9223,-1.0046,-1.0711,-1.1334,-1.1794,-1.215,-1.2274,-1.2598,-1.2793,-1.2846,-1.3098,-1.3729,-1.4258,-1.4663,-1.5459,-1.5766,-1.5884,-1.6126,-1.6691,-1.7742,2.5895,2.5852,2.5546,2.56,2.583,2.5423,2.4814,2.4131,2.3709,2.268,2.1546,2.1585,2.1056,2.0146,2.0174,2.0048,1.9789,2.0199,2.018,1.9789,1.9457,1.8979,1.8318,1.7245,1.6652,1.6557,1.6407,1.5898,1.5175,1.5453,1.5455,1.5043,1.4682,1.4425,1.4166,1.3536,1.3126,1.2644,1.1686,1.1055,1.0804,1.004,0.9606,0.9542,0.9098,0.8867,0.892,0.8834,0.8914,0.9176,0.9197,0.9153,0.9023,0.8464,0.8335,0.8661,0.8318,0.8072,0.8107,0.7819,0.7657,0.7657,0.7554,0.7391,0.7232,0.7204,0.711,0.6646,0.5613,0.468,0.4278,0.3282,0.2082,0.1109,0.037,-0.0403,-0.1275,-0.1879,-0.2802,-0.3868,-0.4689,-0.4946,-0.4708,-0.4717,-0.4731,-0.4722,-0.4653,-0.4815,-0.5314,-0.5851,-0.6401,-0.6516,-0.717,-0.7579,-0.7964,-0.8729,-0.9559,-1.0226,-1.0871,-1.1393,-1.1803,-1.1927,-1.2076,-1.2224,-1.2397,-1.2588,-1.2992,-1.3559,-1.4326,-1.5187,-1.5507,-1.5612,-1.622,-1.7039,-1.804,2.5884,2.5926,2.5895,2.5863,2.583,2.5437,2.5226,2.4934,2.4109,2.3324,2.268,2.2515,2.1961,2.1376,2.1136,2.1099,2.0886,2.0663,2.0664,2.0814,1.9879,1.9356,1.9131,1.7674,1.7033,1.7218,1.7398,1.6833,1.5823,1.611,1.6137,1.5808,1.548,1.5073,1.4648,1.4253,1.3684,1.2977,1.2228,1.16,1.0993,1.0288,0.9862,0.9766,0.9574,0.96,0.9805,0.9302,0.9297,0.968,0.9626,0.9586,0.967,0.8872,0.8515,0.9193,0.8674,0.8374,0.8506,0.8274,0.8079,0.7982,0.7722,0.7461,0.7265,0.7237,0.7171,0.6843,0.5848,0.4951,0.4444,0.3451,0.2351,0.1479,0.0873,0.0336,-0.0403,-0.1409,-0.249,-0.3195,-0.3591,-0.3533,-0.3571,-0.3797,-0.3898,-0.3905,-0.3889,-0.4068,-0.4528,-0.5065,-0.5554,-0.6139,-0.677,-0.724,-0.7736,-0.8262,-0.8963,-0.9651,-1.0328,-1.0905,-1.1385,-1.1644,-1.1877,-1.2051,-1.2175,-1.2382,-1.2827,-1.3381,-1.3941,-1.4674,-1.4925,-1.543,-1.6209,-1.7027,-1.8031,2.5744,2.6238,2.601,2.5895,2.5884,2.5732,2.5491,2.5161,2.4497,2.3934,2.3465,2.3199,2.2569,2.1839,2.1871,2.1675,2.1151,2.1214,2.1235,2.1007,2.0399,1.9985,1.9553,1.8563,1.7709,1.7213,1.735,1.7053,1.6378,1.6545,1.6659,1.6498,1.6156,1.577,1.5307,1.4971,1.4492,1.3964,1.3216,1.2528,1.1888,1.1055,1.044,1.0015,1.0085,1.0396,1.0793,1.0454,1.0369,1.0583,1.0901,1.1005,1.0776,1.0338,1.0207,1.0399,1.0051,0.9781,0.9774,0.9268,0.878,0.849,0.8102,0.7722,0.7461,0.7396,0.7363,0.7162,0.6071,0.518,0.4878,0.3851,0.2788,0.1985,0.1648,0.1076,0.0235,-0.0739,-0.1657,-0.2303,-0.2564,-0.2817,-0.3197,-0.3383,-0.3447,-0.3522,-0.3569,-0.3673,-0.3913,-0.4448,-0.5003,-0.564,-0.6243,-0.6881,-0.7379,-0.7828,-0.8352,-0.9051,-0.9736,-1.0336,-1.0821,-1.1334,-1.1619,-1.1927,-1.2026,-1.2252,-1.2723,-1.312,-1.3597,-1.4188,-1.4637,-1.5313,-1.6092,-1.7003,-1.7995,2.5979,2.6389,2.5987,2.5839,2.587,2.5881,2.5703,2.5423,2.4945,2.4476,2.4065,2.3956,2.3337,2.2579,2.276,2.24,2.1675,2.1845,2.1654,2.1131,2.0865,2.0553,2.0146,1.9369,1.8353,1.7496,1.7739,1.7506,1.6587,1.676,1.6835,1.6617,1.6285,1.584,1.5487,1.5221,1.49,1.445,1.3731,1.3047,1.2358,1.1562,1.0787,1.0269,1.0478,1.0951,1.1428,1.1389,1.1368,1.1406,1.1608,1.1705,1.1721,1.1405,1.1205,1.1207,1.0964,1.0698,1.0627,1.0059,0.9544,0.9128,0.8581,0.8042,0.7689,0.7526,0.7489,0.7228,0.6465,0.5672,0.5209,0.4386,0.3426,0.2624,0.2252,0.1613,0.0605,-0.0168,-0.0829,-0.143,-0.1772,-0.2114,-0.247,-0.2777,-0.298,-0.318,-0.3349,-0.3416,-0.3638,-0.411,-0.4632,-0.5202,-0.5886,-0.6464,-0.6997,-0.7402,-0.7786,-0.8456,-0.9138,-0.9666,-1.0182,-1.077,-1.1209,-1.176,-1.2008,-1.2101,-1.2487,-1.2558,-1.288,-1.3573,-1.4309,-1.487,-1.556,-1.6841,-1.7832,2.6353,2.6324,2.581,2.5661,2.5806,2.5833,2.5821,2.5757,2.5557,2.5073,2.4646,2.4745,2.4241,2.3591,2.3424,2.3015,2.2456,2.2184,2.1869,2.1328,2.1141,2.11,2.0776,1.9945,1.9002,1.8179,1.8483,1.8073,1.6996,1.6908,1.6691,1.6441,1.6065,1.5592,1.5335,1.5139,1.4931,1.4492,1.3911,1.3312,1.2596,1.1849,1.1083,1.0491,1.0787,1.1226,1.1709,1.2066,1.2186,1.1968,1.1692,1.1884,1.2288,1.1871,1.1701,1.1912,1.1488,1.1365,1.1162,1.0968,1.0451,0.9926,0.925,0.8452,0.7884,0.7661,0.7493,0.7297,0.6905,0.6371,0.5642,0.4984,0.4256,0.336,0.2686,0.1813,0.0705,0.0437,0.0,-0.0616,-0.0964,-0.1229,-0.17,-0.2031,-0.2378,-0.2839,-0.3172,-0.3307,-0.3499,-0.3871,-0.4256,-0.4827,-0.5414,-0.5992,-0.6496,-0.6838,-0.7257,-0.7929,-0.8567,-0.9007,-0.964,-1.0285,-1.083,-1.14,-1.1875,-1.1993,-1.2162,-1.228,-1.2565,-1.3189,-1.3786,-1.4259,-1.5295,-1.6642,-1.7516,2.6043,2.6252,2.5816,2.5607,2.5711,2.6069,2.6012,2.5803,2.6397,2.588,2.5149,2.5336,2.4682,2.3485,2.3259,2.2735,2.2086,2.1887,2.1855,2.1779,2.1915,2.1796,2.1408,2.0602,1.9861,1.9232,1.8692,1.812,1.7505,1.706,1.6807,1.6743,1.6285,1.5974,1.5706,1.5396,1.5044,1.4721,1.4517,1.404,1.3238,1.2558,1.188,1.1272,1.117,1.1421,1.1927,1.2508,1.2524,1.2035,1.194,1.2065,1.2506,1.2546,1.2644,1.2835,1.2904,1.2833,1.2702,1.2389,1.1734,1.0804,1.0135,0.9314,0.8014,0.7889,0.7722,0.7456,0.7199,0.6966,0.6601,0.5972,0.505,0.3925,0.3054,0.2315,0.1846,0.1477,0.0964,0.0227,0.0032,-0.05,-0.1322,-0.1702,-0.2063,-0.2661,-0.2972,-0.3144,-0.3347,-0.3543,-0.3907,-0.4259,-0.478,-0.5414,-0.5951,-0.6284,-0.6759,-0.7425,-0.7963,-0.8329,-0.9086,-0.9925,-1.0416,-1.0914,-1.1459,-1.1694,-1.1969,-1.2202,-1.261,-1.288,-1.3816,-1.4591,-1.5499,-1.6627,-1.7208,2.6214,2.6166,2.5693,2.5631,2.5923,2.6225,2.6304,2.6358,2.6657,2.6331,2.548,2.5328,2.4662,2.3431,2.3183,2.2626,2.1888,2.1951,2.1909,2.164,2.1779,2.1908,2.1738,2.1149,2.0469,1.9827,1.8887,1.8213,1.7629,1.7043,1.6698,1.6557,1.6324,1.6025,1.5631,1.5729,1.5439,1.5179,1.5207,1.4909,1.3987,1.354,1.2847,1.2267,1.2066,1.2351,1.284,1.3224,1.3173,1.2716,1.2537,1.2555,1.2906,1.3241,1.3459,1.3511,1.3631,1.3662,1.348,1.323,1.2551,1.1524,1.0867,0.992,0.885,0.8376,0.8084,0.7949,0.7792,0.7657,0.7288,0.6494,0.5609,0.4752,0.372,0.2919,0.2484,0.2115,0.1635,0.115,0.0841,0.0412,-0.0873,-0.1008,-0.1592,-0.2292,-0.2663,-0.2882,-0.3135,-0.3336,-0.3529,-0.3912,-0.4301,-0.4912,-0.5458,-0.5846,-0.6296,-0.6961,-0.7626,-0.7925,-0.8599,-0.9487,-0.9843,-1.0307,-1.0906,-1.1385,-1.1607,-1.1865,-1.2217,-1.2791,-1.3897,-1.4615,-1.5258,-1.6403,-1.6957,2.6599,2.5961,2.5516,2.5672,2.6205,2.6344,2.666,2.6984,2.6862,2.632,2.5616,2.5099,2.4393,2.3407,2.3059,2.2662,2.1908,2.2115,2.1874,2.1615,2.1631,2.1885,2.2084,2.1444,2.0869,2.0176,1.9216,1.8448,1.7829,1.7035,1.658,1.6477,1.6216,1.581,1.5564,1.5763,1.5778,1.5486,1.5522,1.5315,1.4619,1.4224,1.3672,1.3111,1.3108,1.339,1.37,1.3944,1.3885,1.3623,1.3261,1.322,1.352,1.3851,1.3911,1.3791,1.3971,1.3971,1.3752,1.3683,1.3199,1.2243,1.1516,1.064,0.964,0.8947,0.8544,0.8382,0.8517,0.8274,0.7777,0.6822,0.6137,0.5547,0.4688,0.3787,0.2852,0.2484,0.2216,0.1781,0.1674,0.1087,0.0371,-0.018,-0.0613,-0.1837,-0.2254,-0.2684,-0.2953,-0.3184,-0.3375,-0.3603,-0.3986,-0.4431,-0.4947,-0.5401,-0.5928,-0.6534,-0.7285,-0.7804,-0.8282,-0.8924,-0.9251,-0.9658,-1.0226,-1.0643,-1.0981,-1.1311,-1.1748,-1.2624,-1.3698,-1.3938,-1.425,-1.5859,-1.6797,2.6785,2.5468,2.536,2.5601,2.6176,2.6593,2.684,2.699,2.735,2.6742,2.5679,2.5068,2.4316,2.3374,2.2719,2.2066,2.188,2.1774,2.1502,2.186,2.216,2.2173,2.2043,2.138,2.1109,2.0751,1.976,1.8894,1.8298,1.7675,1.7283,1.7014,1.6423,1.5845,1.5747,1.5436,1.4946,1.4869,1.4984,1.5125,1.4939,1.4451,1.4086,1.3743,1.3713,1.3692,1.3851,1.4169,1.4357,1.4142,1.3781,1.3588,1.3863,1.3971,1.4121,1.4359,1.4449,1.4577,1.4606,1.441,1.4094,1.3265,1.2381,1.1516,1.0375,0.955,0.899,0.8705,0.8738,0.8727,0.8393,0.7967,0.7186,0.6367,0.5708,0.4984,0.3889,0.3054,0.2584,0.228,0.2003,0.1504,0.0622,0.0246,-0.036,-0.1288,-0.1843,-0.2396,-0.2666,-0.2881,-0.3092,-0.32,-0.3639,-0.4022,-0.4365,-0.493,-0.5582,-0.6197,-0.6959,-0.7644,-0.8137,-0.8448,-0.8762,-0.909,-0.9477,-0.9873,-1.0208,-1.0939,-1.1434,-1.2457,-1.336,-1.3691,-1.4248,-1.5636,-1.6004,2.6834,2.5899,2.5337,2.56,2.6429,2.6803,2.7136,2.752,2.7896,2.7468,2.642,2.5766,2.4776,2.3568,2.2794,2.2324,2.2042,2.1808,2.1827,2.2022,2.2162,2.2186,2.2091,2.1485,2.1141,2.1059,1.9749,1.8913,1.8478,1.7897,1.7378,1.7404,1.6945,1.662,1.6324,1.6019,1.5841,1.5517,1.5517,1.5593,1.5434,1.5085,1.4676,1.4506,1.4359,1.43,1.4389,1.4449,1.4577,1.4488,1.427,1.4091,1.4219,1.4279,1.4478,1.4656,1.4813,1.4882,1.4941,1.4872,1.4529,1.3906,1.3031,1.2066,1.1104,1.0212,0.9658,0.9344,0.9344,0.937,0.9204,0.8742,0.8091,0.7474,0.6593,0.5837,0.5011,0.4018,0.3157,0.2855,0.2619,0.2232,0.163,0.1067,0.0556,-0.006,-0.0359,-0.0906,-0.1739,-0.1999,-0.2459,-0.2767,-0.3221,-0.3609,-0.3877,-0.4413,-0.5209,-0.5901,-0.6672,-0.7336,-0.7937,-0.8153,-0.8333,-0.8635,-0.8945,-0.9073,-0.9494,-1.028,-1.1097,-1.1919,-1.2704,-1.3382,-1.4053,-1.4859,-1.4732,2.7017,2.6406,2.5385,2.5682,2.6677,2.6789,2.725,2.8011,2.8102,2.7579,2.7183,2.6368,2.4924,2.4004,2.3196,2.2689,2.2318,2.2178,2.2133,2.2138,2.1981,2.2027,2.1996,2.1597,2.1162,2.0809,1.9809,1.9111,1.8616,1.7965,1.7801,1.7729,1.7811,1.748,1.7131,1.7072,1.6798,1.6148,1.5988,1.5995,1.5868,1.5649,1.5366,1.5086,1.4931,1.4911,1.4872,1.4843,1.4745,1.4745,1.4754,1.4675,1.4645,1.4675,1.4775,1.4775,1.497,1.5059,1.5088,1.5029,1.4784,1.4183,1.3312,1.2573,1.1764,1.0874,1.0238,1.0047,0.9951,0.9894,0.9951,0.9518,0.9058,0.8538,0.747,0.6748,0.6158,0.511,0.4287,0.3426,0.3153,0.2805,0.2562,0.2135,0.1669,0.1215,0.0929,0.0463,-0.0404,-0.1278,-0.1847,-0.2424,-0.2889,-0.336,-0.3622,-0.4042,-0.4786,-0.5468,-0.6263,-0.696,-0.76,-0.7855,-0.8009,-0.8147,-0.8373,-0.8567,-0.8904,-0.9596,-1.0426,-1.1276,-1.2101,-1.2812,-1.344,-1.4012,-1.3678,2.7446,2.5538,2.5654,2.5985,2.6342,2.6294,2.681,2.7446,2.6923,2.6684,2.6799,2.5453,2.4841,2.4213,2.3343,2.2684,2.2376,2.2216,2.2197,2.2197,2.2092,2.2087,2.1843,2.1769,2.1449,2.1088,2.0461,1.9935,1.9335,1.8879,1.8543,1.8425,1.8412,1.8164,1.7718,1.7164,1.695,1.6566,1.5956,1.5556,1.5713,1.5566,1.5478,1.5274,1.5196,1.5176,1.5117,1.5029,1.4941,1.4941,1.497,1.4941,1.4911,1.4941,1.5,1.5059,1.5117,1.5205,1.5254,1.5196,1.5196,1.4844,1.3825,1.3039,1.2428,1.1445,1.0618,1.0301,1.0142,1.0015,1.0021,0.9881,0.9582,0.909,0.8667,0.8113,0.7298,0.6388,0.5408,0.4453,0.391,0.3436,0.3283,0.3051,0.2641,0.2106,0.1677,0.1224,0.0501,-0.0534,-0.1504,-0.2068,-0.261,-0.3053,-0.3444,-0.3861,-0.443,-0.4972,-0.5728,-0.6457,-0.7061,-0.7505,-0.7746,-0.7822,-0.7977,-0.8217,-0.862,-0.9031,-0.9796,-1.071,-1.1497,-1.2278,-1.2719,-1.3132,-1.3178,2.6913,2.5958,2.5491,2.5516,2.591,2.6117,2.6541,2.7063,2.7208,2.7237,2.6895,2.614,2.5376,2.4849,2.4103,2.3311,2.2665,2.2278,2.2197,2.2197,2.2166,2.2135,2.1956,2.1968,2.1769,2.1506,2.1219,2.0737,1.9958,1.9521,1.9395,1.9455,1.9365,1.9199,1.8818,1.8196,1.7752,1.7409,1.6386,1.5792,1.6105,1.5781,1.543,1.5391,1.5332,1.5303,1.5284,1.5176,1.5098,1.5098,1.5098,1.5098,1.5117,1.5167,1.5205,1.5215,1.5264,1.5313,1.5391,1.5332,1.5332,1.5206,1.4064,1.329,1.2795,1.188,1.0902,1.0586,1.0428,1.0333,1.0428,1.0333,1.0199,0.9932,0.9512,0.8967,0.8382,0.7605,0.6654,0.5635,0.4942,0.4436,0.4119,0.3856,0.3521,0.3071,0.2523,0.1984,0.1424,0.0378,-0.0724,-0.1301,-0.1798,-0.2334,-0.2769,-0.3236,-0.3827,-0.4428,-0.4931,-0.5694,-0.6314,-0.6689,-0.7135,-0.7448,-0.7667,-0.7773,-0.8029,-0.8367,-0.9241,-1.0091,-1.0755,-1.1379,-1.184,-1.215,-1.2212,2.6588,2.6248,2.5349,2.5061,2.5345,2.5686,2.6105,2.6637,2.7394,2.7587,2.738,2.6835,2.6225,2.5554,2.4756,2.391,2.3024,2.2586,2.2402,2.234,2.2228,2.2197,2.2197,2.2154,2.2061,2.1851,2.1745,2.1377,2.0615,2.0178,2.014,2.0228,2.0352,2.0329,1.9965,1.9424,1.924,1.864,1.7522,1.6867,1.6593,1.6078,1.5478,1.542,1.542,1.5381,1.5391,1.5313,1.5264,1.5235,1.5235,1.5244,1.5254,1.5332,1.5332,1.5284,1.5342,1.5391,1.541,1.5381,1.5391,1.5352,1.4341,1.3773,1.3221,1.2428,1.1365,1.0958,1.0776,1.0719,1.0776,1.0713,1.0681,1.0586,1.004,0.9498,0.9236,0.871,0.8086,0.7074,0.6104,0.5437,0.5117,0.4496,0.4117,0.3924,0.3394,0.3087,0.2448,0.1384,0.0405,-0.0242,-0.085,-0.1448,-0.1924,-0.2329,-0.2981,-0.3673,-0.4007,-0.4486,-0.5137,-0.5712,-0.6209,-0.6679,-0.6974,-0.7111,-0.7394,-0.7829,-0.8625,-0.9376,-0.9991,-1.0481,-1.0851,-1.1182,-1.1351,2.7561,2.5467,2.5688,2.5313,2.4633,2.4542,2.5123,2.6015,2.6067,2.6517,2.7328,2.6546,2.6386,2.6214,2.5107,2.4184,2.3534,2.3047,2.2787,2.2708,2.2432,2.2216,2.2166,2.2197,2.2123,2.1987,2.2049,2.1745,2.1218,2.0871,2.0775,2.0895,2.1129,2.1218,2.1045,2.051,2.0342,1.9981,1.8529,1.7174,1.6387,1.6088,1.5743,1.5508,1.542,1.5449,1.5449,1.542,1.5391,1.5362,1.5391,1.5391,1.5391,1.5391,1.5381,1.5381,1.5381,1.542,1.5449,1.541,1.5449,1.5332,1.4706,1.444,1.3825,1.297,1.188,1.1122,1.1059,1.1059,1.1028,1.0902,1.0807,1.0737,1.0523,1.0269,1.004,0.9556,0.8935,0.8474,0.747,0.6658,0.6088,0.5378,0.4722,0.4518,0.4311,0.3987,0.3432,0.2346,0.1235,0.0481,-0.0121,-0.072,-0.1321,-0.1685,-0.2171,-0.2913,-0.3215,-0.3447,-0.4082,-0.4737,-0.5173,-0.5612,-0.5967,-0.6575,-0.7126,-0.7609,-0.8111,-0.8614,-0.9158,-0.9522,-0.9825,-1.0121,-1.0503,2.8167,2.6422,2.6126,2.5469,2.4597,2.4371,2.4789,2.5541,2.6099,2.6657,2.7168,2.6929,2.6664,2.6222,2.5261,2.4592,2.4005,2.3501,2.3125,2.2969,2.2696,2.2359,2.1975,2.1913,2.1925,2.1987,2.1925,2.1956,2.1674,2.1685,2.1623,2.1629,2.1764,2.1849,2.1783,2.1271,2.1275,2.0791,1.9488,1.7657,1.6514,1.592,1.5684,1.5556,1.5575,1.5575,1.5575,1.5662,1.5575,1.5478,1.5478,1.5575,1.5575,1.5575,1.5604,1.5701,1.5691,1.5662,1.5604,1.5468,1.5478,1.54,1.501,1.444,1.4004,1.3364,1.2551,1.1849,1.1663,1.1514,1.1279,1.1059,1.1059,1.0996,1.0839,1.0713,1.0491,1.0206,0.9716,0.9288,0.8833,0.7989,0.7274,0.6724,0.6137,0.5789,0.5349,0.4802,0.4153,0.3186,0.2057,0.0985,0.0456,-0.0031,-0.0644,-0.1156,-0.1504,-0.2079,-0.2452,-0.2751,-0.322,-0.3768,-0.4172,-0.4525,-0.4858,-0.5627,-0.6634,-0.7124,-0.7345,-0.7813,-0.8294,-0.8582,-0.8903,-0.9435,-0.9877,2.9041,2.7631,2.6429,2.5385,2.4563,2.432,2.4594,2.5328,2.622,2.6918,2.734,2.7479,2.6964,2.608,2.5654,2.5252,2.445,2.3989,2.3619,2.3335,2.3065,2.275,2.2414,2.2168,2.1994,2.1963,2.1819,2.1894,2.2092,2.213,2.2106,2.2197,2.2163,2.223,2.2157,2.1922,2.1765,2.1301,1.9992,1.8325,1.6794,1.6153,1.5879,1.5741,1.573,1.5769,1.5769,1.5827,1.573,1.5633,1.5662,1.573,1.573,1.573,1.5769,1.5856,1.5846,1.5846,1.5788,1.5691,1.5633,1.5556,1.5352,1.4824,1.4115,1.3666,1.3282,1.2673,1.252,1.2151,1.1732,1.1514,1.1365,1.1272,1.1052,1.0895,1.0744,1.046,1.0238,0.9945,0.955,0.9198,0.8549,0.8129,0.7637,0.7181,0.6522,0.5686,0.475,0.3765,0.2908,0.1783,0.1259,0.0771,0.019,-0.0389,-0.0825,-0.1271,-0.1639,-0.2034,-0.2451,-0.2737,-0.3069,-0.34,-0.3862,-0.4439,-0.5306,-0.5938,-0.6571,-0.7117,-0.7563,-0.7722,-0.8035,-0.8633,-0.9242,3.0419,2.8586,2.6355,2.4992,2.4204,2.3799,2.4298,2.532,2.5896,2.6829,2.769,2.7924,2.7126,2.6163,2.6185,2.5932,2.4919,2.4465,2.4297,2.4093,2.3754,2.348,2.3065,2.2677,2.2457,2.2531,2.2149,2.1975,2.2123,2.2197,2.2197,2.2197,2.2309,2.2359,2.2396,2.2372,2.1771,2.1216,2.0189,1.8996,1.7619,1.6875,1.6597,1.5954,1.5846,1.5885,1.5885,1.5943,1.5885,1.5827,1.5856,1.5885,1.5885,1.5885,1.5914,1.5972,1.5972,1.6,1.598,1.5904,1.5875,1.5856,1.5701,1.5371,1.4785,1.4638,1.4192,1.3584,1.3394,1.3039,1.2642,1.2266,1.2035,1.1632,1.1389,1.1115,1.0958,1.0744,1.0555,1.0466,1.0174,0.9716,0.9466,0.8947,0.8522,0.8037,0.6907,0.6034,0.497,0.4019,0.351,0.274,0.2191,0.1654,0.1077,0.0535,0.0032,-0.0457,-0.0886,-0.1238,-0.1616,-0.1902,-0.2421,-0.2643,-0.3132,-0.3535,-0.3981,-0.4777,-0.5567,-0.6354,-0.6864,-0.7069,-0.7613,-0.8352,-0.885,3.065,2.979,2.7352,2.5967,2.5276,2.4347,2.4491,2.53,2.5884,2.6812,2.7941,2.7685,2.7055,2.6421,2.6442,2.6316,2.5567,2.5819,2.5368,2.4972,2.4629,2.4094,2.3552,2.307,2.2768,2.2628,2.2304,2.2099,2.2185,2.2309,2.2278,2.2309,2.2451,2.2389,2.2451,2.2531,2.1897,2.1079,2.0352,1.932,1.8289,1.7531,1.7144,1.6602,1.6542,1.6353,1.6124,1.6163,1.6058,1.5972,1.6,1.6019,1.6048,1.6048,1.6077,1.6134,1.6173,1.6202,1.6192,1.6077,1.5943,1.598,1.5933,1.5798,1.5449,1.5459,1.5059,1.4599,1.4243,1.3923,1.3356,1.3092,1.2834,1.2243,1.1818,1.1507,1.117,1.1021,1.0681,1.0523,1.0333,1.004,0.9856,0.967,0.928,0.8791,0.7553,0.6371,0.5375,0.4571,0.4136,0.3653,0.3118,0.2465,0.1881,0.1361,0.0851,0.035,-0.0096,-0.0509,-0.0946,-0.1783,-0.2218,-0.2345,-0.2442,-0.2873,-0.3338,-0.3832,-0.4643,-0.5696,-0.6236,-0.6534,-0.7198,-0.8012,-0.844,3.1194,3.0542,2.8711,2.7306,2.627,2.4956,2.473,2.5335,2.6,2.6892,2.7973,2.7581,2.7102,2.6698,2.6654,2.6364,2.5862,2.5835,2.5638,2.532,2.4917,2.4505,2.39,2.3446,2.3237,2.2919,2.2677,2.2598,2.2714,2.2714,2.2714,2.2744,2.2744,2.2793,2.2567,2.2444,2.2036,2.1194,2.0423,1.9606,1.8549,1.8159,1.7749,1.7352,1.7307,1.7028,1.6691,1.6588,1.642,1.6259,1.6144,1.6192,1.6192,1.622,1.6249,1.6335,1.6402,1.6402,1.6316,1.623,1.6087,1.6163,1.6134,1.6105,1.6066,1.6019,1.5565,1.5206,1.5001,1.4706,1.4055,1.3795,1.3472,1.2917,1.2673,1.2366,1.1717,1.1351,1.0895,1.0523,1.0364,1.0174,0.9951,0.9728,0.93,0.8869,0.809,0.704,0.6201,0.547,0.5012,0.4547,0.4027,0.3352,0.2669,0.2412,0.2048,0.106,0.0595,0.0185,-0.0369,-0.1147,-0.1752,-0.1841,-0.1986,-0.2276,-0.2649,-0.31,-0.4076,-0.5199,-0.5741,-0.6317,-0.6788,-0.7528,-0.794,3.2291,3.0896,3.0207,2.8804,2.7037,2.5433,2.5016,2.5488,2.6324,2.7142,2.7829,2.7887,2.7508,2.6963,2.6825,2.6512,2.5926,2.5583,2.5395,2.5364,2.5268,2.4998,2.4635,2.4221,2.3859,2.3989,2.3684,2.3436,2.3471,2.3833,2.3662,2.3382,2.3429,2.3339,2.2889,2.2399,2.1853,2.129,2.0625,1.9758,1.9042,1.881,1.8432,1.8081,1.8011,1.7738,1.7296,1.7185,1.6955,1.6563,1.6477,1.6449,1.6374,1.6335,1.6363,1.6374,1.6402,1.6402,1.6374,1.6374,1.6345,1.6345,1.6278,1.6249,1.6153,1.6066,1.6019,1.5662,1.5575,1.5254,1.4824,1.444,1.4073,1.3683,1.3433,1.3009,1.2358,1.1655,1.1195,1.08,1.0491,1.0244,0.9977,0.9684,0.9224,0.8792,0.8353,0.7681,0.6898,0.6338,0.5868,0.5452,0.4962,0.4496,0.3941,0.3696,0.3179,0.2116,0.1369,0.1044,0.0563,-0.0059,-0.0614,-0.1111,-0.1536,-0.1831,-0.2071,-0.2324,-0.3541,-0.4756,-0.5637,-0.6263,-0.6669,-0.7047,-0.7503,3.2996,3.234,3.0766,2.9707,2.8765,2.6664,2.5781,2.6047,2.6837,2.7577,2.7933,2.7841,2.7223,2.6854,2.7077,2.6962,2.6412,2.6827,2.6671,2.6117,2.5751,2.5331,2.504,2.4801,2.4545,2.4411,2.4262,2.4226,2.3842,2.4771,2.4754,2.4389,2.4083,2.3632,2.3173,2.2785,2.251,2.1972,2.1378,2.0707,1.9988,1.958,1.9174,1.8643,1.867,1.8402,1.7875,1.7809,1.7529,1.7011,1.6927,1.674,1.6534,1.642,1.6402,1.6402,1.6402,1.6402,1.6402,1.6374,1.6402,1.6402,1.6374,1.6335,1.6306,1.6306,1.622,1.6116,1.5885,1.5614,1.5488,1.5177,1.4815,1.4312,1.3944,1.3494,1.2879,1.2135,1.1555,1.1202,1.087,1.0433,1.0104,0.9724,0.9293,0.9035,0.8687,0.8242,0.7553,0.7127,0.6692,0.6346,0.5941,0.5582,0.5199,0.479,0.4259,0.3363,0.2611,0.206,0.1538,0.0804,0.0171,-0.0507,-0.0956,-0.1374,-0.1737,-0.2238,-0.3241,-0.4319,-0.5199,-0.5914,-0.6322,-0.6723,-0.7122,3.3597,3.3268,3.1378,3.0378,2.9743,2.7503,2.6577,2.6803,2.7323,2.7776,2.8109,2.7857,2.7493,2.7233,2.7355,2.7476,2.692,2.6898,2.6959,2.6457,2.6117,2.5683,2.5466,2.5493,2.5677,2.5448,2.5625,2.5676,2.5594,2.6302,2.619,2.5551,2.4934,2.4331,2.3671,2.3077,2.2468,2.1879,2.1315,2.0776,2.0285,1.9921,1.9592,1.9357,1.9212,1.9001,1.8602,1.8321,1.8159,1.7672,1.7285,1.7073,1.6768,1.6506,1.642,1.6402,1.6402,1.6402,1.6402,1.6402,1.6402,1.6402,1.6402,1.6402,1.6402,1.6374,1.6288,1.6183,1.6011,1.5856,1.5691,1.5468,1.5235,1.4726,1.4549,1.4094,1.3515,1.281,1.232,1.1934,1.1388,1.0847,1.0235,0.9794,0.9385,0.9231,0.907,0.8624,0.8264,0.7946,0.7589,0.7262,0.6955,0.6632,0.6194,0.566,0.5127,0.4539,0.3788,0.2984,0.2043,0.1244,0.0674,0.0084,-0.056,-0.1121,-0.1569,-0.2211,-0.31,-0.3907,-0.4708,-0.5367,-0.5914,-0.6322,-0.6642,3.4162,3.3619,3.2164,3.1003,2.9942,2.8072,2.7421,2.7795,2.7623,2.7842,2.8306,2.8293,2.7986,2.7876,2.775,2.7462,2.7045,2.6356,2.6158,2.6025,2.6015,2.5864,2.6111,2.6426,2.6642,2.7039,2.7237,2.7211,2.7664,2.7751,2.7427,2.6707,2.6001,2.5139,2.4189,2.3302,2.2546,2.2052,2.1493,2.0966,2.0476,2.0049,1.9859,1.9706,1.9618,1.9422,1.9133,1.8975,1.8655,1.8201,1.7672,1.7424,1.7101,1.6712,1.6534,1.6392,1.6392,1.642,1.642,1.642,1.6402,1.6402,1.6402,1.6402,1.6402,1.6374,1.6288,1.6116,1.5943,1.572,1.5497,1.5439,1.5381,1.5264,1.5264,1.4815,1.4243,1.3696,1.3265,1.2775,1.2153,1.151,1.0636,1.0073,0.98,0.9352,0.9247,0.9169,0.8882,0.8867,0.8543,0.826,0.7965,0.7665,0.7161,0.6447,0.5891,0.5274,0.4512,0.3705,0.2679,0.1761,0.1119,0.0476,-0.028,-0.0869,-0.1317,-0.1987,-0.282,-0.3569,-0.4098,-0.4904,-0.5481,-0.5732,-0.6032,3.4346,3.4075,3.2732,3.1974,3.1453,2.9598,2.8665,2.8457,2.8345,2.8392,2.8522,2.8509,2.8039,2.7224,2.7538,2.7101,2.6532,2.6074,2.5982,2.6015,2.6313,2.629,2.6584,2.713,2.7516,2.7813,2.8055,2.8286,2.8196,2.8426,2.7925,2.6877,2.6665,2.5809,2.4872,2.3977,2.3293,2.2576,2.2002,2.1355,2.0853,2.0489,2.0225,1.9911,1.9798,1.9668,1.9626,1.9512,1.9212,1.8798,1.8602,1.8348,1.7809,1.7296,1.6916,1.6552,1.6552,1.6552,1.6552,1.6524,1.6506,1.6402,1.6402,1.6402,1.6402,1.6374,1.6288,1.6105,1.5933,1.573,1.5565,1.5507,1.5449,1.542,1.5391,1.5147,1.4608,1.4282,1.3876,1.3357,1.2763,1.2031,1.1151,1.0729,1.0392,0.9768,0.9412,0.9454,0.9378,0.9302,0.9148,0.886,0.8483,0.8067,0.7658,0.6976,0.6523,0.5982,0.5183,0.4422,0.3674,0.273,0.1758,0.0839,0.0028,-0.0589,-0.1094,-0.1736,-0.2319,-0.2734,-0.3259,-0.4208,-0.4963,-0.5183,-0.5407,3.438,3.4225,3.2965,3.2128,3.1411,3.0125,2.9302,2.894,2.8457,2.8343,2.8546,2.8343,2.7854,2.7362,2.7528,2.7244,2.6402,2.654,2.6574,2.666,2.6991,2.7317,2.7615,2.8055,2.8567,2.8813,2.8988,2.9279,2.8986,2.8814,2.8454,2.7311,2.7157,2.6413,2.5577,2.4937,2.431,2.348,2.2714,2.1964,2.1395,2.0905,2.0402,1.9974,1.9861,1.9936,2.0087,2.0024,1.9716,1.9499,1.9419,1.8842,1.8321,1.7765,1.7307,1.6937,1.6694,1.6637,1.6581,1.6506,1.6477,1.6431,1.6402,1.6402,1.6402,1.6374,1.6278,1.6124,1.5961,1.5827,1.5672,1.5546,1.5478,1.542,1.5362,1.5332,1.504,1.4745,1.4328,1.3856,1.322,1.2518,1.1928,1.1503,1.1073,1.0595,1.0161,0.9869,0.9686,0.9405,0.9244,0.8988,0.8656,0.8265,0.7835,0.7466,0.7054,0.6465,0.5709,0.5003,0.4446,0.3395,0.2122,0.1147,0.0308,-0.0252,-0.0785,-0.1121,-0.1624,-0.2038,-0.2482,-0.3204,-0.3984,-0.4512,-0.4763,3.438,3.4288,3.2951,3.166,3.0433,2.9787,2.9442,2.9312,2.8234,2.8003,2.8315,2.7881,2.7542,2.7216,2.7379,2.721,2.681,2.6909,2.7126,2.7395,2.8082,2.8427,2.8667,2.9332,2.9562,2.994,2.9915,2.9546,2.987,2.9464,2.8594,2.771,2.7641,2.7022,2.6087,2.5729,2.5147,2.4401,2.3289,2.2309,2.1385,2.0842,2.0566,2.0137,2.0112,2.0213,2.0503,2.044,2.0137,2.0142,1.9892,1.9252,1.8667,1.8251,1.7826,1.7412,1.7078,1.6881,1.6751,1.662,1.6459,1.6402,1.6402,1.6402,1.6402,1.6402,1.6306,1.6142,1.6009,1.5887,1.5751,1.5612,1.5536,1.5458,1.5399,1.5361,1.5216,1.4914,1.4559,1.4118,1.3729,1.3046,1.2589,1.2127,1.1609,1.1305,1.0767,1.0335,1.0044,0.9662,0.9291,0.9065,0.8646,0.8315,0.807,0.7714,0.7486,0.6928,0.6213,0.5555,0.4992,0.3782,0.2402,0.1426,0.0476,0.0056,-0.0421,-0.0728,-0.1064,-0.1455,-0.1871,-0.2259,-0.2869,-0.3483,-0.4122,3.438,3.4288,3.2965,3.1611,3.0398,2.974,2.9224,2.875,2.8044,2.7813,2.78,2.7294,2.6793,2.6619,2.6972,2.6887,2.6787,2.7264,2.7456,2.7973,2.8705,2.9209,2.9283,2.9902,3.0297,3.0258,2.9956,2.9392,2.8942,2.8695,2.8332,2.7244,2.7345,2.714,2.6517,2.6206,2.5688,2.5161,2.4268,2.3132,2.2242,2.1905,2.1669,2.1217,2.1054,2.1029,2.1192,2.1179,2.088,2.0648,2.0496,1.9853,1.9062,1.8759,1.8441,1.8077,1.7595,1.7357,1.7162,1.692,1.6666,1.6477,1.6449,1.6402,1.6402,1.6402,1.6335,1.6181,1.6053,1.5928,1.5818,1.5694,1.5583,1.5514,1.5453,1.5408,1.5342,1.5042,1.4735,1.4429,1.4102,1.3682,1.3169,1.272,1.2174,1.1568,1.0873,1.0438,1.0306,0.9987,0.929,0.8982,0.8576,0.8251,0.8072,0.7943,0.7684,0.744,0.6864,0.6226,0.5511,0.403,0.2516,0.154,0.0673,0.028,-0.0028,-0.0252,-0.0588,-0.0952,-0.1175,-0.1509,-0.1705,-0.2235,-0.3067,3.438,3.4211,3.2965,3.1734,3.0651,3.0093,2.9414,2.8641,2.8234,2.7949,2.7637,2.7094,2.6606,2.6307,2.6657,2.6909,2.6919,2.7609,2.8127,2.8635,2.9169,2.975,3.0129,3.0305,3.0465,3.0408,2.9885,2.916,2.8245,2.7984,2.7737,2.6968,2.7171,2.7144,2.6753,2.642,2.6111,2.5839,2.5147,2.4395,2.3384,2.2872,2.2103,2.1656,2.1546,2.1634,2.1707,2.1681,2.133,2.0893,2.0525,2.007,1.9445,1.9172,1.896,1.8629,1.8224,1.7854,1.7744,1.7457,1.7056,1.687,1.6768,1.6832,1.6392,1.6402,1.6374,1.6249,1.6114,1.602,1.5943,1.5835,1.5724,1.5637,1.5515,1.5447,1.5261,1.4974,1.4735,1.4544,1.4241,1.3964,1.3626,1.354,1.3017,1.2598,1.1794,1.1136,1.0907,1.0397,0.9695,0.9071,0.8764,0.8294,0.8003,0.7943,0.786,0.7628,0.7381,0.6448,0.546,0.4009,0.2657,0.1874,0.1175,0.0588,0.0308,0.0084,-0.0168,-0.0504,-0.0616,-0.0728,-0.0925,-0.1205,-0.1956,3.4312,3.4143,3.2883,3.1754,3.0916,3.0515,2.9767,2.8845,2.8695,2.837,2.7827,2.7213,2.6945,2.6806,2.6823,2.7105,2.7552,2.8219,2.8808,2.918,2.9952,2.9967,3.0114,3.0495,3.0466,3.0205,2.9668,2.9073,2.8347,2.7911,2.7345,2.6881,2.6794,2.6794,2.6794,2.6727,2.6527,2.6192,2.5756,2.5619,2.4664,2.3589,2.269,2.2106,2.1885,2.2043,2.2137,2.2144,2.1857,2.1204,2.0665,2.0099,1.9732,1.9474,1.937,1.9095,1.8682,1.8441,1.8306,1.8077,1.7738,1.7451,1.7357,1.7101,1.6684,1.6506,1.6516,1.6345,1.621,1.6118,1.6041,1.5983,1.5866,1.5779,1.5662,1.5523,1.5246,1.5011,1.4865,1.4684,1.4412,1.4185,1.4141,1.4066,1.3767,1.3365,1.2902,1.2352,1.1768,1.1073,1.0384,0.9764,0.9305,0.8785,0.8078,0.7901,0.7901,0.7815,0.7461,0.6502,0.5519,0.4474,0.3483,0.2514,0.1815,0.1286,0.0728,0.0392,0.014,-0.0084,-0.0308,-0.0449,-0.0617,-0.0869,-0.112,3.3908,3.3782,3.2471,3.1529,3.093,3.0542,2.9984,2.9407,2.9339,2.898,2.8424,2.7813,2.7281,2.682,2.6793,2.7168,2.7967,2.866,2.8775,2.8967,2.9781,2.9787,2.9879,3.0287,3.019,2.9813,2.9261,2.8565,2.8086,2.7403,2.6939,2.6794,2.6794,2.6794,2.6794,2.6753,2.6727,2.6474,2.6285,2.6055,2.5687,2.4773,2.4061,2.3702,2.366,2.3346,2.3179,2.3434,2.2939,2.217,2.1066,2.0327,1.9923,1.9695,1.9618,1.95,1.9107,1.8948,1.8789,1.8563,1.8217,1.8,1.7863,1.7617,1.7251,1.6944,1.6797,1.6402,1.6283,1.6241,1.6179,1.6155,1.6069,1.6057,1.5967,1.5728,1.5473,1.5342,1.5229,1.4921,1.4563,1.4477,1.4482,1.4282,1.3894,1.3477,1.3024,1.2572,1.251,1.1821,1.1083,1.0544,0.9979,0.8935,0.8131,0.794,0.7901,0.7842,0.7595,0.675,0.6009,0.5355,0.436,0.3146,0.2567,0.2122,0.1536,0.0839,0.0532,0.028,-0.0084,-0.0308,-0.0393,-0.0561,-0.0785]}]]